GFSNGP_925_spd_000.txt.gz
Wind_Speed
21 20 18 22 29 30 25 27 17 37 31 32 31 30 28 25 20 19 18 23 23 21 17 14 14 12 10 8 7 8 9 12 10 9 11 15 18 21 22 23 25 26 28 29
14 21 20 23 29 32 28 30 31 33 35 32 30 23 21 20 21 18 23 26 23 21 17 13 15 13 6 6 8 12 12 11 7 8 13 17 19 22 24 25 26 27 29 30
6 7 5 10 24 22 17 15 16 21 26 24 23 22 16 17 19 23 26 16 22 21 15 11 12 8 8 10 11 11 11 8 7 11 15 18 21 23 25 27 29 30 30 29
6 4 7 3 17 19 18 19 22 21 22 23 20 17 17 24 25 18 11 13 18 15 11 8 12 12 12 8 10 10 7 5 9 13 17 20 22 24 26 27 28 30 30 30
4 8 20 13 7 7 11 15 16 16 14 18 22 25 22 21 5 8 7 14 17 13 15 14 13 16 9 13 10 7 4 6 11 15 18 21 23 24 26 27 28 29 30 31
3 10 15 11 24 5 5 14 8 7 19 20 17 14 18 22 6 7 17 21 13 11 15 15 10 8 10 11 8 5 4 7 11 15 18 21 23 25 26 27 29 29 32 31
12 10 12 13 3 1 4 10 10 20 24 25 22 18 24 10 12 23 23 18 8 9 11 8 7 7 9 7 5 1 5 9 12 15 18 20 22 24 27 27 28 28 29 30
5 7 11 4 3 5 14 24 28 28 28 26 21 18 12 8 17 17 13 2 5 6 6 6 8 8 7 5 1 2 6 10 13 15 17 19 22 24 25 25 25 25 27 28
12 10 14 12 16 18 24 25 28 24 24 18 18 23 6 13 19 11 4 5 4 5 8 10 5 4 4 2 1 5 8 11 14 16 17 19 21 22 23 24 23 23 23 25
14 14 26 21 21 25 28 24 23 23 15 14 14 8 15 16 13 3 4 5 3 8 10 6 3 3 2 1 2 7 10 12 14 15 17 18 19 19 21 22 22 22 23 23
18 22 28 23 23 23 26 25 24 18 14 14 6 13 14 13 5 2 5 3 6 9 7 3 4 3 2 1 4 8 9 12 13 14 16 18 18 18 21 20 20 24 23 24
18 26 23 28 26 28 30 26 23 17 15 9 12 12 11 7 2 4 4 7 10 7 2 3 3 2 2 2 5 7 9 11 12 14 15 17 19 21 18 18 22 22 22 24
21 23 27 30 31 30 24 24 24 20 16 16 8 6 2 2 3 4 7 9 7 2 1 2 2 2 2 4 6 5 7 10 12 13 15 16 18 20 22 23 19 18 19 24
23 23 25 26 20 24 25 24 24 20 10 4 3 3 2 3 3 5 7 4 1 1 1 1 2 3 3 3 4 5 7 8 10 13 14 15 16 18 19 20 20 23 21 23
21 17 17 20 22 18 19 18 19 16 7 4 3 2 2 5 7 7 2 2 2 2 1 2 3 3 3 3 3 5 7 8 10 11 12 13 14 16 16 18 18 18 20 21
20 18 17 13 16 17 18 18 16 11 3 2 2 2 5 7 2 2 3 2 1 2 3 4 4 4 3 3 4 6 6 5 9 10 11 11 12 14 15 16 16 16 17 20
10 10 12 15 15 17 14 10 6 4 3 4 7 7 3 1 1 1 1 0 1 2 3 4 5 3 3 3 4 6 6 7 8 9 10 10 11 11 12 13 14 15 15 19
7 10 11 12 12 8 5 5 5 4 4 5 2 0 0 1 2 1 2 2 3 4 3 4 3 2 3 3 4 4 5 6 7 8 8 8 9 9 10 10 12 14 14 16
10 10 9 6 4 4 3 3 4 4 4 3 4 3 2 2 2 2 3 4 4 4 1 3 5 5 4 4 4 4 4 5 6 6 7 6 7 7 8 10 10 11 13 14
12 12 9 6 4 4 5 5 2 2 3 4 3 4 3 1 3 4 4 7 7 5 4 7 7 6 6 5 4 3 3 3 4 4 5 5 6 6 6 8 9 9 11 13
10 9 5 4 4 3 1 2 2 2 3 4 5 4 4 5 5 6 7 6 3 4 4 6 4 4 4 4 3 2 2 2 2 3 4 4 4 4 5 6 8 9 10 10
9 5 6 6 6 5 3 1 2 2 3 3 3 4 5 6 7 8 8 10 5 7 8 8 6 6 5 5 3 3 2 2 1 1 2 3 3 3 4 4 5 7 8 10
11 8 8 6 7 6 4 1 1 2 2 3 4 4 5 6 6 6 6 5 8 10 11 9 10 10 7 5 4 4 3 3 2 1 0 1 2 2 3 3 4 5 6 7
11 6 6 7 7 5 3 3 1 2 2 3 4 5 6 6 7 5 7 11 12 13 12 9 11 9 6 5 5 5 4 4 3 3 2 1 0 1 2 3 4 4 5 6
9 6 7 8 8 5 4 4 2 1 2 4 5 3 3 3 4 8 8 10 12 12 9 8 6 7 6 5 5 5 5 4 4 4 4 3 2 2 2 2 3 3 3 4
8 9 8 10 6 5 5 6 3 2 3 3 3 3 6 7 7 7 7 8 10 10 7 6 4 7 6 6 5 6 5 5 5 6 5 4 3 3 3 3 3 3 4 4
7 8 8 7 5 4 5 6 4 3 2 2 4 4 8 9 7 8 7 8 10 9 7 6 5 7 7 6 6 6 6 5 6 6 6 6 5 4 4 4 4 4 4 4

GFSNGP_925_spd_003.txt.gz
Wind_Speed
19 22 22 23 26 31 26 26 22 33 30 32 29 27 22 21 19 19 23 24 21 17 19 32 27 22 13 12 13 11 10 11 14 15 14 14 14 17 20 22 23 25 27 29
17 23 21 21 25 30 27 28 29 30 33 24 24 20 21 19 20 25 27 24 22 19 23 26 24 20 12 13 10 15 14 13 13 12 12 14 16 19 21 23 24 26 27 29
7 14 9 11 18 17 16 20 23 20 23 24 21 17 19 25 27 26 25 25 19 19 23 23 23 14 13 12 13 13 11 11 11 10 12 15 18 21 22 24 25 27 28 28
5 4 7 7 23 22 16 19 20 23 21 14 19 24 25 23 22 16 22 20 15 21 25 17 19 15 11 11 10 9 13 10 9 11 13 17 19 22 23 24 25 26 27 27
4 11 21 16 12 19 15 16 19 14 13 21 28 25 19 15 14 16 16 14 26 24 21 9 16 14 12 6 10 14 7 9 9 11 15 18 21 22 24 24 25 26 26 27
5 10 13 10 22 6 12 15 7 11 18 25 23 15 13 11 22 10 16 27 22 18 6 8 12 10 5 9 10 8 8 7 10 13 16 19 21 23 23 24 25 25 27 28
12 10 12 16 16 2 7 12 17 24 22 21 19 17 21 18 12 20 25 26 14 8 10 11 8 7 7 10 11 3 4 8 11 14 17 18 21 22 24 24 24 24 24 26
4 8 10 2 5 3 11 22 26 23 21 23 21 19 16 9 15 18 20 17 11 11 7 4 5 7 9 9 3 1 7 10 13 15 17 19 20 23 23 24 22 22 24 26
11 9 16 24 24 23 24 25 22 23 22 16 19 19 18 13 16 15 11 12 8 6 5 8 6 5 7 3 1 5 9 12 15 16 17 17 20 21 22 22 21 21 22 24
20 17 24 23 26 28 21 19 25 20 20 23 24 20 16 15 15 11 6 6 6 5 8 9 2 1 3 0 4 8 11 13 15 16 16 18 19 19 20 20 22 22 22 23
23 26 26 20 21 20 19 23 22 22 23 20 16 17 11 13 14 7 4 5 4 7 9 7 1 1 1 3 6 10 11 13 14 14 16 18 18 18 20 21 19 23 24 25
14 26 21 28 21 23 19 18 23 24 22 20 16 13 10 11 9 4 6 4 7 9 7 4 2 3 4 6 8 9 11 12 13 14 16 17 19 20 18 19 23 23 22 21
21 25 27 25 20 17 20 22 18 19 20 23 15 12 11 4 3 4 7 8 8 7 3 3 4 6 6 7 9 6 8 10 12 13 15 17 18 19 20 21 20 19 18 20
24 25 21 21 19 22 17 19 23 25 25 13 6 6 6 5 4 7 9 7 5 3 2 4 6 7 6 7 6 6 8 10 11 14 15 16 17 18 18 20 19 21 19 21
19 16 17 20 17 16 20 20 20 18 15 10 7 4 4 5 8 9 5 4 3 2 3 6 7 8 7 6 6 8 9 9 10 12 13 14 15 17 16 18 19 18 20 22
18 17 14 12 15 18 20 21 17 15 11 6 6 6 8 11 9 4 3 4 5 4 4 5 7 7 6 6 8 9 9 7 8 12 13 14 15 16 15 16 17 16 17 20
11 11 13 15 16 19 18 13 10 6 8 6 8 9 7 5 4 4 4 4 4 5 6 6 7 7 5 5 8 10 10 10 10 11 12 13 13 14 13 14 14 15 15 17
8 11 14 16 17 15 11 10 8 7 8 8 8 7 6 5 5 6 5 6 7 9 8 6 6 6 6 6 7 8 8 10 10 11 11 11 12 13 12 13 12 13 13 14
12 14 19 21 18 10 7 6 8 8 7 6 6 5 6 7 6 6 7 7 9 10 4 5 8 8 6 7 7 8 8 9 10 10 10 10 10 10 11 11 12 11 11 13
13 19 21 20 15 4 7 9 7 6 5 5 7 7 6 5 6 7 7 11 12 9 7 6 7 6 7 7 7 7 7 8 9 9 8 9 9 10 9 9 10 10 10 11
12 17 14 11 10 11 10 7 4 5 4 5 5 5 5 6 6 7 10 10 3 6 8 9 8 7 6 6 6 4 6 6 6 7 8 8 8 8 8 8 8 9 10 10
17 12 11 12 8 7 7 7 5 4 4 3 3 4 5 5 6 8 9 10 10 11 11 11 11 10 7 8 5 4 5 5 5 6 6 6 7 7 7 7 7 7 8 9
19 17 14 10 10 7 8 9 6 4 3 2 2 3 5 7 7 9 6 7 11 12 14 15 14 13 12 7 5 5 5 4 5 5 5 5 5 6 6 6 6 6 7 7
19 18 16 12 9 7 7 10 6 5 4 3 4 4 4 5 7 5 8 11 12 15 15 13 12 12 8 5 5 5 5 5 4 4 4 3 3 3 4 4 4 4 5 5
15 18 13 10 9 10 10 6 5 5 4 4 4 3 3 5 6 9 10 12 12 14 13 11 11 5 5 6 5 5 5 5 4 4 3 3 3 3 2 2 3 3 3 4
16 11 11 12 11 10 7 7 7 5 4 4 4 2 6 9 10 11 11 11 12 13 12 10 6 6 7 6 5 5 5 5 4 5 4 3 3 3 2 1 1 1 1 2
11 10 9 8 10 8 6 7 7 6 3 2 3 5 6 8 9 8 8 10 10 11 11 11 10 8 8 7 7 6 6 6 6 5 5 5 4 3 3 2 2 1 1 0

GFSNGP_925_spd_006.txt.gz
Wind_Speed
17 19 20 23 25 24 23 21 19 24 22 23 19 18 12 13 15 17 17 17 17 18 16 23 25 26 19 24 8 5 7 8 8 6 10 13 10 12 14 18 22 24 25 27
7 19 20 19 22 25 25 22 21 20 21 16 17 14 16 18 20 18 15 17 19 18 20 25 23 20 18 19 7 5 5 7 11 12 11 8 11 13 18 22 22 24 25 26
8 9 11 11 14 16 13 17 17 16 21 18 15 15 16 19 17 13 17 17 16 15 19 25 21 13 14 16 11 8 8 6 8 11 10 10 11 17 20 22 22 23 24 24
3 3 6 7 20 24 20 16 17 19 21 14 15 20 18 15 13 13 14 19 19 19 23 20 13 10 11 10 9 2 4 10 13 8 8 11 15 18 20 21 22 23 23 23
3 8 17 16 17 13 19 13 16 10 19 22 21 18 17 11 10 12 17 15 22 25 18 12 12 11 12 6 7 8 15 5 3 5 9 14 17 17 19 21 22 22 20 22
3 13 15 2 18 19 12 15 12 13 17 19 13 13 11 16 13 12 16 22 21 16 14 17 15 11 7 7 10 6 3 2 4 9 13 15 15 18 20 20 22 22 26 21
10 10 10 14 15 12 7 5 17 14 16 17 13 8 14 18 11 15 20 19 17 14 17 15 9 5 8 9 11 2 6 4 7 11 14 16 17 19 19 21 23 25 18 22
5 5 11 4 12 5 14 17 19 15 13 17 16 17 15 14 8 12 16 16 14 14 11 7 6 6 9 8 10 6 5 7 11 13 14 16 17 19 20 22 21 18 23 23
9 7 20 24 25 16 24 20 18 20 20 11 17 18 14 13 12 10 7 12 13 11 6 8 10 6 7 8 6 6 8 10 12 14 16 15 19 18 20 17 18 20 19 22
16 18 23 24 25 22 21 18 18 18 15 18 16 15 16 11 9 8 11 13 10 7 7 9 7 2 5 4 6 8 10 11 13 14 15 16 17 17 17 17 17 17 21 21
21 23 22 20 19 22 22 19 13 15 13 12 15 17 14 10 11 11 12 8 6 7 9 10 3 3 2 5 7 9 10 12 13 13 15 16 15 16 16 14 19 22 22 22
17 21 19 25 22 25 16 10 15 13 13 15 16 15 14 11 14 11 8 7 7 10 8 7 4 3 4 5 6 9 10 10 12 13 15 15 16 16 16 18 21 22 18 19
17 26 26 24 19 17 15 14 12 14 13 14 15 15 17 12 10 9 10 11 11 9 8 7 7 8 7 10 11 8 8 10 11 12 14 15 15 16 17 17 19 20 18 19
23 17 14 15 12 12 8 15 20 17 18 19 17 14 10 11 9 10 9 9 9 9 8 8 9 9 8 7 7 9 10 11 10 11 13 14 15 16 17 15 18 20 18 20
13 12 11 10 13 13 17 16 13 12 12 12 9 11 11 11 12 13 8 8 8 4 5 7 9 11 8 9 9 9 12 10 7 9 13 15 14 16 16 14 16 17 18 22
10 10 11 12 13 14 15 16 13 10 8 7 9 8 10 12 13 10 7 8 8 7 7 7 8 10 9 9 9 12 13 6 6 11 13 13 14 15 15 14 15 15 15 18
5 7 10 11 13 15 15 13 8 5 6 5 6 11 11 11 13 8 9 9 8 9 9 9 9 8 11 8 10 11 11 11 12 11 12 12 12 14 14 13 14 13 14 18
8 10 13 13 14 14 12 7 2 4 6 5 9 9 9 9 7 10 10 11 11 13 12 10 8 7 10 8 9 9 9 10 11 13 11 12 14 12 12 12 13 13 13 16
12 13 18 19 19 12 12 5 4 7 10 6 7 7 9 10 9 9 11 12 13 13 7 5 7 9 8 10 10 8 7 7 10 12 9 10 11 12 11 11 11 13 13 14
16 22 23 22 21 15 12 10 9 9 7 5 5 7 7 7 8 10 11 12 15 10 11 8 9 10 9 9 9 7 6 7 8 9 10 10 10 10 10 10 9 12 13 13
12 18 19 17 18 17 13 14 10 7 6 6 3 5 6 7 7 7 9 8 8 14 14 14 14 15 11 7 5 6 6 7 7 7 8 8 10 10 9 9 9 10 11 12
17 15 15 18 11 13 14 10 9 8 8 6 4 3 3 7 6 6 7 5 10 13 14 14 15 16 13 9 7 6 7 6 6 6 7 7 8 9 9 9 9 9 10 10
19 18 17 17 12 12 11 12 10 12 11 7 5 4 4 5 5 6 5 8 12 12 15 15 15 15 12 10 5 6 7 6 5 4 5 5 5 6 7 7 7 7 8 9
19 18 17 17 17 14 8 10 13 13 11 7 6 5 4 4 6 4 6 9 11 13 14 15 14 14 9 5 6 7 7 7 5 5 3 5 2 4 4 5 6 6 7 7
20 14 14 17 15 10 11 11 13 10 9 7 5 4 3 3 4 10 11 12 12 13 15 15 14 13 6 6 8 8 8 7 6 4 3 3 1 3 3 2 3 4 5 5
13 12 18 19 13 11 12 13 9 11 10 8 6 5 4 4 6 9 11 11 10 13 13 12 11 13 11 10 10 9 8 7 8 6 5 3 2 2 1 1 2 2 2 2
14 17 14 10 11 12 8 7 8 6 6 3 3 4 2 5 7 9 9 10 10 11 13 13 14 12 12 10 10 10 9 8 9 6 6 5 4 3 3 2 2 1 1 3

GFSNGP_925_spd_009.txt.gz
Wind_Speed
8 7 10 16 20 21 16 16 13 24 19 17 8 7 5 8 10 8 6 7 10 12 10 21 25 25 16 18 19 8 4 6 10 9 6 6 7 5 6 11 17 21 22 23
6 12 11 8 21 21 20 15 12 13 18 7 7 12 14 13 12 9 9 11 14 14 19 20 22 15 11 10 11 8 7 7 8 10 7 7 5 9 13 17 21 19 22 21
12 3 5 7 13 4 6 12 11 7 4 15 17 17 15 13 5 5 11 13 15 14 17 20 16 9 11 15 13 7 3 5 8 9 3 7 11 11 15 15 17 19 21 24
4 2 4 8 14 21 17 8 8 8 14 17 14 14 14 10 3 10 16 13 10 15 20 10 12 17 21 18 6 4 6 6 2 4 10 4 8 11 14 14 17 23 25 19
2 3 9 9 9 3 11 16 4 10 19 18 13 17 10 3 3 11 14 10 16 21 9 14 23 19 16 13 11 10 8 9 3 5 4 7 10 11 14 18 22 21 17 26
2 4 6 7 4 8 10 11 7 16 11 15 14 13 12 5 11 14 15 16 18 6 11 17 16 11 12 15 12 6 5 9 7 7 9 9 9 13 17 16 19 21 26 15
3 5 7 7 5 1 4 9 12 9 10 13 10 9 13 13 9 12 10 12 8 13 13 10 8 8 10 12 12 10 7 7 7 8 9 10 14 14 17 18 21 18 19 26
2 5 8 2 8 5 10 9 18 14 6 14 12 9 13 9 9 7 6 7 13 14 13 5 7 9 7 9 7 6 6 6 7 9 13 14 12 16 17 18 15 19 22 23
9 6 6 13 12 12 19 19 16 11 7 11 12 13 9 9 7 7 8 11 13 10 6 9 11 2 5 5 5 7 10 10 12 14 12 11 14 17 17 16 15 19 19 20
6 4 17 17 19 18 15 12 8 9 9 9 12 7 8 8 7 7 12 15 13 6 6 8 11 5 6 4 7 10 9 11 12 9 13 15 14 15 16 14 18 17 17 18
14 18 19 14 11 14 7 6 4 6 10 5 7 6 7 10 11 11 15 14 11 10 12 13 5 5 3 2 3 6 11 11 10 13 13 15 14 15 15 19 17 20 19 18
15 17 13 19 8 7 6 3 8 4 7 5 6 7 10 10 16 13 15 10 11 13 10 13 11 8 5 6 10 11 10 11 10 12 13 14 15 17 16 16 16 18 17 14
11 11 16 9 12 6 5 5 9 6 4 6 11 12 12 9 13 10 11 8 12 12 8 9 10 10 9 11 12 12 10 9 10 10 13 14 16 19 20 15 18 19 16 17
19 16 6 4 4 5 8 10 12 9 7 8 9 12 11 8 9 9 5 7 7 7 5 7 7 8 7 8 11 11 10 12 11 7 13 14 17 15 17 15 19 20 16 20
2 6 5 5 7 6 10 10 6 2 1 2 4 7 10 8 9 12 5 7 9 5 4 7 8 8 7 10 10 11 16 15 6 7 11 12 12 13 14 15 18 16 15 20
9 8 9 8 6 7 6 8 4 2 1 3 5 11 10 9 9 10 6 9 9 9 10 10 10 6 9 11 8 10 10 9 7 12 12 11 10 14 13 13 16 15 12 15
6 3 3 4 5 7 7 5 4 4 5 8 11 9 8 9 8 7 10 9 10 12 12 13 12 7 8 9 9 11 9 9 12 13 12 9 12 12 11 11 14 13 12 15
6 6 7 7 10 11 10 9 11 10 8 10 8 8 8 7 6 10 10 12 12 13 11 7 6 7 8 8 10 11 9 8 11 11 9 10 11 10 10 10 11 12 11 14
10 7 14 16 18 16 13 14 11 12 13 12 8 9 8 9 6 7 8 11 12 11 10 11 8 10 9 9 10 9 6 6 9 8 9 10 9 10 8 9 8 10 12 13
11 13 15 18 23 22 18 24 16 13 14 9 10 9 9 4 4 5 7 9 6 8 12 14 13 14 14 15 10 7 6 7 8 7 8 8 9 9 7 8 7 9 10 12
9 13 16 18 19 25 21 23 14 15 10 9 12 10 8 4 1 3 4 5 5 10 11 11 12 14 15 13 7 6 6 8 5 6 7 6 7 8 7 7 6 8 9 9
12 12 17 21 20 19 21 20 18 14 12 11 11 9 5 5 1 2 3 2 7 9 11 12 12 12 12 10 8 5 7 9 7 6 4 5 4 5 5 6 6 7 7 9
19 22 22 21 19 18 20 20 18 18 12 12 11 9 8 6 3 2 4 4 8 9 10 11 12 12 13 8 5 6 8 10 7 5 5 3 2 3 3 4 4 5 6 6
21 23 24 26 12 15 14 20 18 15 13 14 10 9 7 4 1 2 4 8 9 9 10 12 11 13 13 5 5 7 9 9 8 6 6 4 2 1 1 1 2 3 4 5
25 26 24 12 10 15 19 16 12 12 13 11 8 8 5 4 3 5 8 8 8 8 10 10 11 11 12 9 8 9 9 9 9 6 5 4 3 2 1 0 1 3 2 2
20 20 19 14 15 19 17 12 10 14 14 10 10 9 6 5 3 4 7 5 6 8 10 11 12 12 11 11 10 10 10 10 9 9 7 5 5 3 3 2 2 2 0 1
21 22 17 16 17 18 16 9 12 11 13 12 7 7 4 3 3 5 6 7 7 8 11 13 12 12 13 12 11 10 10 10 9 9 8 6 6 6 5 4 4 2 1 4

GFSNGP_925_spd_012.txt.gz
Wind_Speed
6 8 5 16 17 17 11 14 6 15 12 13 3 2 5 7 6 7 7 7 7 7 10 16 19 22 18 12 16 17 13 5 5 7 6 5 6 5 8 11 10 14 14 15
9 7 8 18 15 13 13 14 11 10 13 2 6 6 6 10 14 14 6 8 13 11 14 17 18 18 13 18 23 20 17 6 4 2 1 3 10 6 10 12 12 11 13 14
6 4 5 10 7 5 6 7 8 7 5 3 9 8 10 17 16 14 7 13 13 13 15 18 15 11 17 17 16 10 3 4 4 5 6 7 7 9 11 9 9 12 16 18
3 1 4 8 5 6 5 7 7 3 4 6 9 12 11 12 12 7 13 16 14 16 19 19 13 18 14 9 6 9 10 7 8 8 9 8 5 5 7 10 14 16 16 16
2 3 6 10 9 2 2 7 4 4 10 12 16 15 11 6 8 12 17 17 19 21 17 12 18 16 10 13 14 12 8 8 5 7 4 5 7 9 11 13 14 16 18 17
3 4 5 8 4 4 1 5 5 6 8 16 14 11 12 7 10 15 22 21 15 10 13 15 10 7 9 13 8 9 9 5 3 4 5 7 9 10 11 14 15 17 12 19
3 6 8 9 7 1 4 9 4 9 14 12 7 4 8 10 14 19 15 10 14 19 18 16 8 8 7 4 8 6 4 4 6 8 10 10 10 12 14 16 14 14 19 23
2 3 8 4 2 1 7 3 13 13 3 3 4 5 10 10 9 10 12 18 23 18 16 8 8 9 3 3 1 4 6 6 8 11 10 9 12 14 14 14 12 17 21 24
9 7 4 4 9 6 8 12 5 2 3 2 7 8 6 6 8 10 13 18 19 17 11 9 10 7 9 5 0 3 6 8 10 9 10 13 13 13 13 11 17 18 21 22
6 8 10 9 15 14 6 1 3 4 4 6 5 6 5 6 8 10 12 14 17 15 12 16 16 3 1 0 1 4 7 10 8 12 12 12 12 11 11 17 17 18 19 18
14 16 18 15 10 4 4 2 1 6 2 9 5 4 5 7 7 13 14 14 12 11 11 11 9 4 2 2 6 10 11 11 11 9 10 14 13 11 15 15 14 18 20 13
14 14 11 13 1 0 3 2 6 10 11 5 1 5 6 5 12 12 10 8 10 11 8 5 7 1 4 7 10 12 12 11 8 10 10 15 13 15 12 11 14 14 13 13
14 17 10 3 9 9 5 2 7 10 5 5 4 5 7 8 7 7 8 4 12 11 8 5 4 5 8 8 11 14 13 11 12 13 9 13 14 14 16 12 14 13 11 15
14 10 2 4 2 4 11 11 13 9 6 6 6 7 8 10 11 10 12 14 11 12 8 6 8 7 7 8 12 12 14 15 14 7 10 12 10 10 12 13 16 16 12 15
5 9 4 7 3 6 10 8 6 6 7 8 11 10 8 9 11 14 14 13 12 10 9 10 9 8 5 9 9 9 10 9 6 8 11 10 9 11 9 11 12 12 13 16
9 8 7 6 7 8 10 9 6 7 7 12 12 12 12 13 14 15 12 10 11 13 13 13 12 9 7 9 10 9 10 8 9 11 11 8 9 9 8 8 10 9 11 13
8 7 7 4 5 6 8 8 7 7 12 12 17 17 12 11 12 10 11 8 9 11 10 10 9 7 8 9 10 11 10 9 9 10 11 8 8 7 7 7 8 8 8 10
9 8 7 4 5 8 9 11 15 17 12 14 14 9 8 9 10 11 9 9 7 4 7 9 9 11 11 9 9 10 12 9 7 9 8 8 7 7 6 6 7 7 7 9
4 10 12 10 13 14 13 15 18 20 20 18 14 13 10 12 10 7 4 4 3 5 8 11 11 12 14 12 14 11 9 7 8 8 7 7 6 6 5 4 5 6 6 8
6 11 13 15 20 21 17 22 22 19 21 15 15 13 10 12 8 5 3 2 2 5 10 9 10 11 14 14 13 9 8 8 7 7 7 6 5 4 4 3 2 5 5 6
13 18 17 19 21 27 25 22 16 13 20 24 16 13 12 13 8 7 7 3 1 5 7 9 10 11 12 13 10 7 6 6 9 7 6 4 4 3 4 3 1 3 4 4
16 14 18 22 21 22 30 24 15 19 23 19 18 12 13 10 7 8 6 4 3 6 7 8 10 11 13 12 10 7 6 8 9 8 7 5 4 4 3 2 1 1 2 3
19 21 22 22 21 23 27 17 22 22 19 19 15 14 15 11 7 6 2 3 4 7 7 8 10 10 13 11 6 7 7 8 9 10 8 6 5 3 3 3 2 1 0 1
21 22 22 25 27 18 11 21 20 23 21 18 13 11 11 9 7 6 3 5 7 7 6 8 8 8 9 12 8 9 10 10 10 10 9 8 5 5 4 4 3 2 1 1
23 26 24 24 16 15 18 17 20 19 13 9 8 10 9 7 5 3 5 6 6 5 5 6 8 8 10 10 10 10 11 11 11 10 8 8 8 6 5 4 4 3 2 1
22 20 21 22 22 24 20 16 14 11 9 9 9 11 10 9 7 4 4 5 4 6 5 7 9 9 11 12 12 10 11 11 11 10 9 7 7 7 5 5 4 4 3 3
21 23 19 21 21 21 21 18 10 8 10 11 11 12 12 6 4 5 5 6 7 6 7 8 9 10 10 13 12 13 13 11 11 11 9 8 9 9 8 7 5 5 4 5

GFSNGP_925_spd_015.txt.gz
Wind_Speed
5 7 7 13 12 16 7 10 6 10 11 12 5 5 7 7 7 12 13 11 8 9 11 19 21 21 21 15 20 23 22 21 11 1 4 8 4 9 14 13 9 14 12 11
4 7 9 15 13 11 12 9 8 9 9 0 3 6 6 8 11 13 11 8 8 11 16 17 19 22 19 19 22 19 13 8 3 2 2 7 9 5 6 10 14 10 9 14
5 5 9 6 7 4 4 5 5 5 5 2 6 7 10 13 13 12 12 12 14 14 18 22 23 19 17 22 17 10 9 8 7 8 10 11 14 15 12 10 8 11 12 13
3 3 2 8 3 6 9 9 6 4 3 6 9 8 10 7 6 7 11 15 14 21 21 22 17 20 20 18 13 14 14 11 10 10 9 10 8 8 7 8 10 11 13 15
3 4 6 10 10 2 4 6 5 5 4 7 10 8 5 3 5 8 10 19 22 18 18 22 24 20 12 11 13 8 8 8 7 10 9 9 7 9 9 11 12 14 13 12
2 4 5 8 3 1 3 7 5 2 6 9 5 9 4 5 9 15 19 13 18 25 29 27 24 12 9 11 3 5 1 3 4 5 6 8 10 9 10 13 13 10 14 18
3 7 8 10 7 1 4 5 7 5 11 8 5 3 4 7 12 8 13 19 24 22 20 21 12 6 6 4 5 4 4 3 5 7 9 9 10 12 13 12 12 14 18 20
2 3 8 5 1 5 8 3 4 5 3 3 2 3 10 10 7 13 16 19 20 20 23 20 17 11 14 11 5 5 6 6 9 10 9 11 12 12 12 11 15 18 19 24
9 6 4 5 5 7 4 6 3 1 2 2 5 8 9 6 6 11 16 17 18 17 15 17 16 16 6 4 6 9 8 10 11 10 10 10 11 12 12 16 17 19 21 22
5 6 15 10 14 15 5 3 2 2 4 8 11 12 7 4 6 9 14 15 11 9 9 11 16 15 12 9 7 7 11 11 11 11 9 10 14 12 14 17 19 18 20 20
10 16 14 14 6 6 1 5 7 10 8 11 14 11 6 5 7 11 13 7 6 8 8 14 14 13 6 4 7 10 12 12 10 10 11 13 15 14 15 15 14 19 19 16
10 15 13 14 3 3 8 7 2 4 10 15 11 6 7 7 12 12 11 13 11 12 15 13 8 7 7 8 8 11 11 11 12 13 14 13 15 16 12 14 14 15 15 15
14 14 6 5 8 5 8 2 9 11 12 9 8 11 14 10 13 11 13 13 14 14 14 13 10 9 9 7 9 11 12 14 15 13 9 13 16 15 17 17 14 15 14 14
9 4 5 10 3 5 7 12 13 16 16 15 16 15 17 14 16 13 13 14 13 13 14 11 10 9 8 7 10 9 11 10 12 9 12 15 15 12 15 14 16 18 15 15
5 7 8 9 1 7 14 13 10 9 9 12 19 19 19 15 14 16 16 15 13 13 11 10 10 10 7 8 9 10 9 11 11 11 13 14 11 12 13 12 14 14 15 17
11 12 13 11 7 6 6 8 9 11 9 16 19 21 22 18 18 17 15 11 11 12 11 11 10 8 7 8 10 10 12 9 10 11 14 11 11 11 12 11 12 12 12 14
6 6 2 3 4 7 7 8 9 10 13 14 18 21 21 18 15 14 14 10 9 8 4 6 7 7 9 10 10 10 12 14 11 11 11 10 12 11 11 10 10 10 9 12
7 3 7 8 9 7 8 11 15 16 15 19 21 18 18 15 13 15 14 10 6 3 1 5 6 8 11 12 11 13 15 11 9 11 10 10 11 10 9 9 8 9 9 10
6 8 12 13 17 14 14 17 21 25 27 20 16 16 19 19 17 14 11 8 6 3 2 6 8 9 10 12 12 14 12 10 8 10 9 10 10 9 9 9 7 7 7 8
12 15 16 19 23 22 19 26 28 24 22 14 19 18 19 18 14 13 10 9 7 3 3 6 7 9 10 11 13 10 7 9 7 11 11 11 10 10 8 8 6 6 6 5
15 18 20 20 21 27 26 26 23 23 21 23 18 21 18 17 11 11 11 7 6 5 5 7 8 9 10 11 11 10 9 7 8 11 11 11 10 9 8 8 5 5 5 5
16 16 21 23 22 23 30 28 25 28 25 22 21 22 16 14 9 12 15 13 7 5 7 7 9 10 10 13 11 7 7 9 11 11 13 12 11 9 8 7 6 5 5 4
19 20 21 21 20 23 30 31 30 26 22 19 21 19 15 12 8 8 4 7 7 8 8 9 9 9 9 10 10 9 10 10 10 12 12 13 12 10 8 8 7 6 6 5
20 22 22 25 27 22 15 24 27 26 19 23 20 13 8 6 8 10 8 6 7 8 8 8 8 8 9 10 10 10 11 12 12 13 12 12 13 11 10 9 8 7 6 4
24 26 24 23 18 16 20 23 23 19 18 18 6 5 2 6 6 6 6 7 8 8 7 7 8 9 11 11 13 14 11 12 13 12 12 10 10 13 10 9 8 7 6 5
20 19 21 22 22 22 21 21 16 16 16 7 6 6 7 7 9 8 6 5 5 5 8 8 9 11 11 11 13 13 14 14 12 12 12 11 11 9 10 9 9 8 7 6
20 17 18 18 19 20 19 21 16 14 9 9 9 10 11 12 9 8 5 6 7 9 9 9 9 11 12 12 14 14 13 12 13 14 12 12 11 11 11 11 9 8 8 7

GFSNGP_925_spd_018.txt.gz
Wind_Speed
6 9 7 9 11 9 9 8 7 13 8 11 7 3 6 7 7 9 9 8 7 9 14 19 23 25 27 25 17 21 21 16 11 5 4 4 6 10 13 9 9 14 13 10
4 5 5 8 12 13 10 6 13 14 16 7 3 4 6 8 9 9 6 7 9 11 16 20 21 22 26 24 25 20 13 11 9 10 10 8 8 9 12 15 17 15 11 13
5 3 8 7 6 5 3 5 5 6 9 4 3 8 7 7 5 3 4 7 11 12 19 21 22 26 28 24 19 17 15 13 12 10 12 11 12 13 13 11 9 11 13 15
4 5 1 6 3 6 8 10 8 7 4 4 7 6 8 1 3 6 7 8 9 15 20 23 27 28 27 17 15 13 10 9 8 6 7 8 10 10 10 11 13 15 15 15
3 4 6 10 8 1 5 7 4 4 2 6 6 3 2 5 2 5 6 12 14 19 22 27 26 25 16 14 10 8 8 7 9 10 9 10 12 13 12 13 14 15 12 15
1 5 5 7 3 1 2 7 1 4 5 5 8 9 6 5 6 10 12 16 19 22 22 25 26 19 9 14 7 12 9 12 10 11 12 13 13 12 12 14 13 12 16 18
5 5 7 9 6 1 4 6 4 3 5 8 4 1 3 7 11 9 10 14 17 17 19 23 23 17 15 17 9 8 11 17 11 12 13 12 13 13 13 13 13 17 19 18
1 2 8 5 2 4 6 4 4 5 4 1 4 4 7 10 7 7 11 15 15 17 17 17 14 12 13 10 6 12 15 10 13 13 14 13 12 13 14 13 16 18 20 23
8 7 4 5 7 6 2 6 5 2 6 5 2 9 10 7 6 8 12 14 13 12 13 8 10 9 7 9 11 11 10 13 14 14 12 9 13 15 14 16 18 20 20 20
2 6 13 8 12 8 3 2 2 6 7 0 8 9 11 8 5 8 13 14 11 10 11 14 17 19 15 12 9 9 11 13 13 12 12 11 13 14 15 17 20 18 20 19
7 15 14 13 12 4 5 10 8 4 2 7 7 13 13 7 7 14 15 15 11 14 15 16 19 16 10 8 8 9 10 11 12 13 14 14 13 15 16 15 16 18 20 22
10 13 10 6 10 13 13 9 4 7 7 12 12 11 12 9 16 16 17 16 15 15 15 17 16 13 10 10 8 9 10 12 13 15 14 12 16 20 14 15 16 16 16 17
15 7 4 9 13 12 4 3 9 8 13 11 16 13 14 14 16 21 19 16 17 17 16 14 13 11 11 10 8 8 9 10 11 12 12 16 19 19 19 20 16 17 17 16
4 6 4 2 3 3 4 7 10 15 16 15 16 19 17 17 21 19 18 21 17 18 15 13 12 12 10 9 8 8 9 8 10 10 12 15 17 15 17 18 18 21 19 18
11 12 8 7 4 5 12 13 7 8 12 14 16 15 18 17 18 20 26 22 18 15 13 11 12 13 9 8 8 7 9 11 9 11 12 15 14 15 15 16 16 18 19 20
9 11 10 8 6 7 8 8 7 7 9 15 16 20 19 21 22 25 25 20 14 16 11 10 9 6 4 6 8 8 10 10 11 12 12 14 12 15 15 15 15 16 17 17
6 7 6 6 8 8 8 10 10 10 16 17 21 19 16 16 22 22 25 22 14 13 9 6 7 6 5 6 8 8 12 14 12 10 11 12 13 14 14 14 14 14 14 15
3 4 8 9 8 10 10 13 16 18 16 23 26 21 16 13 17 24 22 18 11 11 7 6 5 6 7 7 10 11 13 15 11 8 10 11 12 13 13 13 13 13 13 13
5 9 15 15 17 17 17 18 20 26 30 28 23 18 20 22 25 24 22 11 8 8 9 3 4 6 9 9 12 14 13 10 7 7 10 11 11 11 13 12 12 11 12 11
12 17 19 20 24 25 20 27 28 26 30 27 27 21 20 23 24 23 14 11 8 7 5 2 5 7 9 10 11 13 12 9 7 8 10 11 11 11 11 11 11 9 10 10
14 18 20 22 23 28 28 27 25 24 30 28 22 22 22 24 25 16 8 7 7 7 6 5 7 9 9 12 13 14 12 11 10 10 11 12 12 11 11 10 10 8 9 9
18 17 21 24 22 24 30 28 28 29 28 29 28 23 19 20 18 10 10 9 5 7 5 7 9 8 10 10 12 12 10 11 12 11 12 14 13 12 10 9 9 8 9 9
18 20 20 22 22 24 31 29 27 26 27 26 23 18 20 19 11 9 3 4 8 8 6 8 8 8 10 9 10 12 12 13 13 12 13 13 13 12 11 9 9 8 8 8
20 22 22 25 25 22 17 26 26 26 25 25 24 23 14 7 8 8 5 3 4 5 7 7 7 8 9 11 12 13 15 13 13 13 13 13 13 11 12 10 9 8 8 7
22 23 23 20 16 17 21 23 23 20 19 19 19 6 4 6 5 3 6 4 6 7 7 6 8 8 9 11 11 12 15 15 15 14 13 13 13 12 11 10 9 7 7 6
19 17 20 21 20 22 24 23 18 19 18 16 10 8 8 5 5 3 3 4 4 5 7 9 9 8 10 12 12 13 15 16 15 14 14 13 13 12 11 10 9 8 7 6
20 21 20 19 17 20 22 21 19 17 16 15 12 11 9 9 10 8 7 4 5 9 9 8 8 8 10 10 12 14 16 16 14 14 13 15 15 13 12 11 10 8 7 7

GFSNGP_925_spd_021.txt.gz
Wind_Speed
5 10 4 8 12 11 13 13 8 16 16 19 12 8 4 10 10 11 11 8 10 10 14 16 19 22 24 24 22 17 15 12 8 5 6 6 5 6 7 8 9 12 16 13
4 5 4 8 14 14 13 14 13 18 22 17 6 3 7 10 10 10 6 7 9 11 14 17 21 22 22 20 17 15 16 13 9 9 9 11 11 9 11 13 12 11 9 11
4 4 8 7 4 4 3 6 5 7 10 4 6 5 10 11 7 3 5 8 9 9 14 16 17 17 17 17 13 14 12 9 8 10 8 10 10 11 11 10 9 10 11 12
3 4 2 2 2 6 6 15 9 11 10 8 7 8 12 7 1 3 6 7 7 10 14 17 19 18 16 14 15 9 11 10 11 12 11 10 11 12 12 10 11 12 13 11
2 3 7 10 4 1 5 9 3 3 1 6 9 9 12 2 4 7 5 9 9 13 15 17 17 16 14 12 13 8 9 8 12 11 11 12 12 12 11 12 13 12 12 14
2 3 5 4 2 1 3 8 2 1 9 8 14 12 11 3 4 13 10 8 12 14 14 15 17 16 13 13 11 7 9 11 13 10 11 11 12 12 11 11 12 12 15 14
7 6 8 7 4 1 1 5 4 3 8 11 12 4 3 6 13 8 8 8 9 10 13 14 14 11 10 10 7 4 9 12 10 11 11 10 10 10 11 12 12 15 17 16
2 4 7 4 1 3 3 5 11 10 9 5 6 6 6 10 12 14 11 10 13 11 12 11 8 7 10 11 8 9 11 9 9 10 10 9 9 11 12 11 13 14 15 16
9 7 3 2 5 6 6 8 4 3 10 9 7 7 10 11 14 18 15 13 12 12 13 11 11 11 14 14 10 11 9 8 8 8 8 9 10 11 12 12 13 15 17 19
2 7 8 10 12 5 7 10 11 9 6 6 9 9 12 13 15 15 16 14 13 12 14 14 12 13 16 12 9 7 7 7 7 8 10 10 9 10 11 13 15 16 18 19
8 14 14 7 5 7 9 9 7 1 1 7 9 11 12 13 17 17 17 16 14 14 15 15 14 14 14 12 10 7 6 6 7 8 9 8 8 10 12 10 12 16 17 18
6 11 11 3 6 6 7 3 2 4 9 11 11 12 15 16 17 17 20 21 18 15 15 15 14 13 13 12 9 6 6 5 6 8 7 8 10 12 10 10 12 12 13 14
10 4 5 9 7 3 2 3 7 9 10 11 16 12 15 16 17 21 19 19 18 19 16 14 13 12 11 11 9 7 7 6 7 7 7 8 11 12 14 13 12 13 14 13
6 8 6 4 3 2 4 9 13 12 12 11 15 17 17 17 18 15 17 21 21 20 17 13 11 11 11 9 7 6 5 6 9 7 7 9 10 10 11 12 13 14 15 14
13 14 11 6 3 5 9 13 13 12 13 14 15 16 19 19 19 19 20 21 22 20 17 10 9 11 8 5 5 6 5 7 7 8 9 9 9 9 9 10 11 12 14 13
6 6 3 2 6 8 10 11 12 13 16 18 18 19 18 14 18 18 20 22 19 19 17 10 8 6 3 2 3 5 7 8 8 8 6 8 8 9 9 10 11 11 12 13
2 4 4 7 8 9 10 13 14 17 20 19 21 23 24 20 20 19 21 27 24 22 14 10 5 6 3 3 4 5 7 9 11 9 5 7 8 8 8 9 9 9 9 10
1 3 6 7 9 10 11 14 16 18 18 22 27 27 25 18 18 23 24 25 23 16 12 8 4 1 3 3 6 7 10 9 9 5 6 7 8 7 7 7 8 8 8 9
6 8 10 11 12 12 14 16 19 24 28 28 25 24 24 24 25 26 24 22 15 7 6 6 2 1 4 5 6 8 10 9 6 5 7 9 7 7 7 7 8 7 6 8
10 13 15 17 21 20 18 24 25 23 27 24 26 23 22 25 24 22 20 15 10 5 4 5 2 2 3 5 7 10 11 9 9 7 7 8 8 7 7 8 8 6 5 6
13 15 16 19 21 25 25 25 24 23 28 25 22 22 23 26 23 20 12 7 4 5 8 2 3 4 5 5 7 11 8 6 7 8 8 9 10 8 8 7 7 7 5 5
13 14 19 22 20 23 27 25 25 26 25 26 25 22 21 21 17 17 11 7 2 5 7 2 3 5 5 5 5 7 8 8 8 9 8 9 9 9 8 8 7 7 6 6
15 17 18 20 20 20 27 27 23 24 26 24 22 23 20 19 15 6 3 3 6 8 5 3 4 4 6 6 6 8 9 10 9 9 10 11 11 11 10 8 8 7 6 6
17 19 19 21 21 20 16 23 24 23 24 24 24 23 19 9 6 3 3 1 1 3 4 5 4 6 7 7 8 8 9 10 11 11 12 11 11 12 10 10 9 8 7 6
21 21 20 19 15 16 18 21 22 21 21 20 20 22 9 6 5 4 4 3 3 7 9 7 7 8 7 6 8 9 9 10 12 13 12 12 12 12 11 10 9 8 7 6
17 15 16 16 17 18 19 19 19 21 20 18 16 18 9 7 6 5 4 4 4 5 5 8 9 8 7 7 8 8 10 13 13 13 12 12 12 13 12 11 9 9 8 7
20 20 19 17 15 16 18 19 20 21 20 19 15 18 12 11 11 12 10 8 6 5 7 7 8 7 8 8 8 8 11 14 14 14 14 12 12 13 13 12 10 9 9 8

GFSNGP_925_spd_024.txt.gz
Wind_Speed
8 11 14 13 15 13 16 17 11 18 17 16 16 15 12 5 9 13 13 10 8 9 10 11 14 16 16 16 17 16 17 19 17 11 11 8 12 11 12 14 16 15 15 13
4 7 10 13 16 15 16 16 17 18 19 15 10 9 4 8 12 14 11 8 6 8 10 12 14 16 16 16 15 16 17 15 10 8 7 7 10 11 13 14 15 14 14 15
3 8 14 5 4 2 4 6 8 12 12 10 12 7 9 12 15 14 8 7 8 10 10 13 15 17 16 16 15 17 14 12 9 10 10 9 10 13 15 16 16 15 15 16
2 4 3 3 7 11 14 14 10 12 11 7 8 9 12 15 9 6 7 9 10 10 13 14 16 16 16 16 14 15 13 12 10 11 10 11 13 14 16 15 16 16 16 15
2 3 13 12 3 2 3 15 10 6 5 12 16 19 17 11 7 5 7 12 13 12 12 14 16 16 16 16 15 13 12 10 13 13 13 13 14 15 15 15 16 15 15 16
2 3 5 5 4 3 4 9 6 9 12 20 17 10 9 9 5 7 16 15 13 14 14 15 17 14 14 14 13 11 8 10 12 12 13 14 14 14 14 15 15 15 16 17
6 6 8 8 4 1 4 4 9 15 14 9 9 3 3 6 10 13 13 15 16 16 16 17 15 13 12 14 13 10 11 12 12 12 13 13 13 13 14 15 15 14 16 16
2 4 6 1 4 3 10 14 15 14 8 4 3 2 5 9 11 14 16 18 17 17 19 19 16 14 15 16 14 14 13 12 12 12 11 12 13 14 14 15 15 13 14 15
6 7 9 10 13 12 11 11 5 4 4 2 3 6 9 11 14 17 19 20 20 20 22 21 18 17 17 17 15 13 11 11 12 11 10 12 13 14 14 15 15 14 15 17
7 10 14 12 16 8 6 6 4 4 3 4 8 11 13 13 16 20 22 23 23 23 23 24 20 19 18 17 14 12 10 11 11 11 10 12 12 12 13 14 12 15 16 16
14 15 15 6 5 7 6 4 2 3 4 7 11 14 15 15 19 20 21 22 22 22 22 23 23 21 18 15 13 11 10 10 10 9 10 11 10 11 11 11 10 13 15 16
5 8 4 5 9 7 6 2 2 6 9 13 14 13 18 18 22 22 22 24 22 22 24 25 26 22 18 12 9 10 10 9 8 9 10 9 10 11 9 8 10 9 10 11
5 7 8 10 7 5 2 3 6 11 14 13 18 17 19 21 24 25 24 23 23 25 27 28 26 20 14 8 10 7 7 7 8 8 8 8 9 11 12 10 8 8 9 11
6 9 6 2 3 4 4 9 12 16 16 16 19 21 22 24 27 25 24 23 22 24 23 22 21 15 9 8 6 6 6 7 7 8 7 7 9 10 11 11 13 13 9 10
7 6 7 7 4 5 9 12 13 13 17 20 21 21 24 25 25 26 25 21 21 23 23 21 16 10 9 5 5 5 5 6 6 6 6 7 8 9 10 10 11 12 12 9
7 4 2 2 6 8 11 12 14 15 19 22 23 23 24 25 27 28 26 24 22 23 22 17 10 6 4 3 3 5 5 6 7 7 7 6 8 9 9 9 11 11 11 11
3 1 4 7 9 11 11 14 16 18 21 21 23 25 25 23 23 23 25 26 22 21 18 11 6 3 4 3 3 4 6 7 7 8 6 6 8 8 8 9 10 10 9 7
3 5 8 9 10 11 13 16 17 18 19 23 25 22 20 19 21 26 26 25 19 16 12 6 5 3 2 2 2 4 5 5 6 5 4 6 7 8 8 8 8 9 8 7
5 8 10 12 12 13 15 16 18 21 22 21 21 21 21 21 23 23 25 22 17 11 3 4 6 3 2 2 3 5 6 6 6 5 5 6 7 7 7 8 8 8 7 7
10 11 13 13 14 14 15 19 19 20 21 20 20 20 21 22 22 23 22 19 15 4 2 6 4 3 3 3 4 5 7 6 6 6 6 8 9 9 9 7 7 7 6 6
11 13 11 14 16 19 18 20 20 20 23 20 18 20 22 24 24 23 17 13 2 4 6 5 2 3 4 3 5 4 5 5 6 7 8 8 9 9 9 8 7 6 6 5
12 12 14 17 15 17 18 17 17 21 19 19 20 20 21 22 19 17 11 5 1 4 6 4 4 4 4 5 6 5 6 6 6 7 7 8 9 9 8 8 7 7 6 5
13 13 14 15 14 17 20 20 18 16 17 18 19 21 21 19 13 8 5 4 3 6 6 5 5 5 5 8 7 6 8 8 9 10 10 9 9 9 9 8 7 7 6 5
14 14 15 15 14 14 16 19 16 17 18 18 19 23 21 15 10 7 7 5 2 3 6 7 8 6 7 9 7 6 7 8 9 9 10 10 10 9 8 7 7 7 6 6
14 15 14 13 12 15 17 20 20 18 18 18 20 22 13 10 10 10 9 8 7 6 9 11 10 9 10 8 6 7 7 8 8 10 10 10 10 10 10 8 7 7 7 6
15 14 13 14 15 17 19 18 17 18 19 20 21 20 18 15 14 14 12 12 12 10 8 7 8 10 9 8 7 7 7 8 9 9 10 10 10 10 10 10 9 8 8 7
13 12 12 14 14 16 16 16 16 18 20 19 22 21 17 18 16 18 18 16 15 13 11 10 8 8 9 9 9 8 7 8 9 9 10 10 10 10 10 10 10 9 8 8

GFSNGP_925_spd_027.txt.gz
Wind_Speed
7 11 12 14 13 14 16 16 15 18 19 16 17 13 14 11 7 11 13 15 13 11 14 15 12 14 16 18 17 17 17 17 15 12 12 10 10 10 13 14 16 19 20 20
4 6 12 17 16 16 17 13 12 14 15 11 12 12 11 13 13 16 14 13 11 10 13 13 14 16 18 17 17 16 17 16 13 11 12 12 13 14 15 18 20 21 20 20
4 9 14 6 3 7 7 7 11 11 12 13 11 12 16 18 16 14 12 12 9 10 14 16 15 16 18 17 18 16 16 15 13 13 13 13 14 16 17 19 21 20 20 20
3 5 2 7 16 14 12 9 10 12 12 8 10 14 17 9 9 9 9 8 8 14 17 15 17 20 18 19 20 18 16 15 13 12 14 15 16 17 19 20 20 20 20 19
2 4 14 12 3 6 9 15 11 5 8 15 17 16 14 7 8 6 6 13 14 18 17 19 21 21 20 22 21 17 17 12 13 14 15 17 17 18 18 19 19 19 18 19
3 4 4 6 9 4 7 11 5 10 18 19 19 12 7 6 8 10 15 18 18 20 22 22 22 22 22 22 22 19 16 14 15 16 15 17 16 17 17 18 18 17 14 20
7 6 9 9 4 3 5 3 15 15 10 10 6 3 8 9 11 15 18 20 21 22 23 23 23 24 24 24 24 24 17 14 17 17 16 15 14 16 18 18 18 10 16 16
3 3 6 2 5 5 7 12 11 11 8 7 7 6 8 13 13 17 19 22 24 24 25 27 28 28 28 25 28 23 17 17 18 15 13 13 14 16 18 17 15 14 15 17
8 5 9 8 7 3 5 4 5 2 3 3 6 8 11 13 14 20 24 25 25 25 27 28 28 28 30 24 25 19 17 18 17 14 12 13 15 17 16 15 14 14 15 17
7 7 12 11 7 9 8 6 3 1 2 5 8 11 14 14 18 22 24 25 25 26 26 27 29 30 30 27 19 20 17 16 14 13 10 13 14 14 13 13 12 12 17 17
13 16 12 10 9 6 5 3 1 3 6 8 11 14 15 15 20 23 24 25 27 26 26 27 31 32 32 30 20 16 13 12 14 11 10 10 13 11 12 12 8 12 14 15
7 3 1 2 5 4 4 1 3 6 9 14 16 15 21 20 23 24 25 29 27 29 28 30 31 27 30 28 16 9 8 12 12 8 9 10 11 12 11 10 12 12 11 9
2 4 5 8 4 5 3 3 7 11 14 13 18 20 22 23 25 27 28 27 28 27 27 29 25 25 24 13 8 9 8 12 10 7 8 9 9 11 12 11 11 12 10 9
9 10 5 5 3 6 5 8 10 14 16 18 20 21 22 24 26 26 27 30 32 29 24 24 23 22 18 10 10 7 8 10 9 9 7 6 8 9 10 12 12 13 7 8
4 3 2 6 5 5 6 10 11 12 16 18 19 20 21 23 26 28 30 29 28 27 27 23 19 21 12 9 6 6 6 7 6 8 8 8 9 10 10 10 10 13 12 8
5 5 5 0 3 6 9 11 12 12 16 18 19 20 23 25 25 25 26 27 25 25 26 22 20 13 7 6 5 7 8 7 8 9 9 9 8 8 9 10 10 11 12 11
7 3 1 4 6 8 10 13 14 15 17 18 21 23 22 21 21 24 25 23 24 25 23 18 14 7 5 5 6 7 7 7 7 9 10 8 7 9 8 9 10 10 11 5
2 2 5 6 8 10 10 12 14 16 17 21 23 20 18 17 20 24 25 25 25 24 20 13 7 5 4 5 6 7 7 7 7 8 7 7 7 9 8 9 9 9 10 8
1 5 8 10 12 12 13 15 15 17 20 19 19 19 20 21 22 23 24 23 22 18 3 2 5 4 5 5 5 6 6 8 9 9 8 8 9 9 9 9 9 9 9 9
6 10 12 12 12 11 14 16 17 16 16 18 20 19 20 20 20 22 23 22 19 7 4 3 4 5 5 6 5 7 7 8 8 8 9 9 10 10 9 9 9 9 9 8
10 13 11 12 12 14 19 19 19 17 20 18 17 19 20 20 22 20 18 14 5 4 3 5 4 6 5 6 7 7 7 8 9 9 10 10 11 10 10 9 9 9 9 7
13 13 12 15 15 15 15 16 14 21 22 19 18 18 18 19 17 17 14 11 7 7 6 8 8 8 8 8 9 9 8 9 10 11 11 10 9 10 10 9 10 9 8 8
14 14 14 15 17 17 16 20 22 18 18 18 18 18 18 20 20 13 12 7 7 10 9 12 11 10 9 9 12 13 12 11 11 11 12 13 13 12 10 10 10 10 9 8
14 15 15 16 16 15 15 17 17 16 19 18 19 19 21 20 16 13 15 15 14 12 10 12 14 13 12 13 15 15 12 11 12 12 12 12 14 14 12 11 10 9 9 9
14 14 15 15 13 15 19 21 20 19 17 17 19 20 20 16 18 18 18 18 17 17 15 13 14 16 15 17 17 14 12 12 12 11 13 13 12 12 13 12 11 10 9 9
14 15 15 14 15 16 17 17 18 17 18 19 19 19 21 23 21 19 18 20 19 18 18 17 15 14 15 17 16 15 13 12 11 11 12 13 13 13 13 12 12 12 11 10
15 14 14 16 17 17 16 15 17 19 18 20 22 21 20 23 23 22 21 21 21 21 23 21 18 17 15 15 15 14 14 12 12 11 12 12 12 13 12 12 12 12 12 10

GFSNGP_925_spd_033.txt.gz
Wind_Speed
5 6 4 3 5 7 5 6 3 7 3 6 10 8 7 7 9 10 10 10 8 6 11 15 16 17 20 9 14 17 17 17 20 20 11 5 7 8 11 10 10 12 15 16
3 7 7 4 8 8 4 2 3 4 4 11 7 8 11 10 10 9 7 6 6 8 12 15 16 17 13 21 23 23 16 19 22 31 12 10 9 12 10 10 10 8 11 11
3 5 6 4 3 4 3 5 3 3 3 8 13 11 8 8 7 4 4 6 6 9 15 18 21 24 26 21 19 17 23 23 24 15 9 11 10 12 10 9 9 9 10 5
2 4 3 4 5 7 5 7 7 10 11 10 8 6 7 6 3 5 7 7 10 17 21 28 30 24 21 24 26 24 22 24 16 6 10 14 16 11 4 6 10 12 3 5
3 1 6 6 2 3 4 2 6 7 7 7 4 4 3 4 3 4 7 15 18 24 25 14 19 22 21 21 23 24 19 22 20 21 14 11 10 6 10 10 11 0 4 9
2 4 6 6 4 3 1 3 3 7 6 4 4 5 3 6 7 10 17 20 19 14 22 22 21 24 26 27 27 19 24 19 19 15 6 5 7 10 5 9 1 3 7 12
2 3 7 8 0 3 4 5 6 6 3 1 2 4 4 7 11 16 15 13 18 20 18 20 25 27 26 22 18 18 23 26 20 16 10 8 6 6 7 5 5 7 12 15
2 2 7 6 3 6 4 4 6 4 4 2 2 4 6 7 7 12 14 19 21 17 20 23 25 27 16 20 13 17 23 20 18 16 8 3 5 7 5 5 6 9 14 15
8 6 6 3 5 4 6 6 4 4 5 4 5 3 5 4 6 12 17 20 19 23 23 24 25 21 20 11 14 17 19 16 11 13 10 6 6 5 7 6 9 12 12 14
4 5 5 9 7 6 5 6 6 5 4 5 4 4 4 5 8 12 16 17 21 22 21 21 25 26 19 18 12 12 14 14 14 13 12 5 7 9 8 8 11 12 12 14
2 5 9 4 5 6 5 5 5 5 6 3 3 5 5 4 9 12 15 19 21 21 20 23 26 26 26 13 11 11 15 16 15 12 5 7 8 7 7 10 12 14 13 13
5 4 4 4 7 6 6 6 5 4 2 4 7 4 8 7 11 15 17 21 20 21 22 23 24 25 22 16 15 16 12 14 9 9 7 7 7 7 8 11 14 14 14 14
5 5 6 8 6 6 5 5 5 4 2 5 8 9 10 8 12 17 20 20 19 20 19 26 22 21 20 22 17 12 10 7 8 8 8 11 11 11 14 14 11 15 13 13
11 8 5 3 4 8 5 6 6 8 10 9 9 9 10 12 14 18 17 21 22 21 23 23 22 22 23 20 17 12 7 6 7 8 11 11 10 11 11 11 14 16 14 12
7 5 5 7 8 9 9 8 6 6 8 8 8 10 10 11 15 17 21 23 22 24 21 22 21 19 21 16 11 8 7 8 6 8 10 11 11 11 11 9 12 13 13 11
7 6 10 7 5 6 6 7 5 4 6 6 9 9 10 17 20 22 22 19 22 23 28 26 22 23 14 9 9 9 11 9 5 10 11 11 12 13 8 11 10 12 12 10
7 5 6 6 6 6 5 7 5 2 5 7 10 11 18 18 21 21 22 23 21 22 23 24 20 13 12 8 7 8 5 8 10 11 10 12 12 10 11 10 14 13 13 11
9 12 12 7 6 5 4 4 5 7 7 10 17 16 17 16 18 23 20 21 19 21 22 13 18 11 7 7 9 9 9 10 10 11 12 12 12 11 13 15 14 13 12 11
16 13 14 12 8 5 5 8 8 10 15 16 15 16 13 15 18 19 22 21 21 19 17 14 12 9 8 9 8 9 10 10 10 12 12 12 13 14 15 16 14 12 13 13
12 9 5 3 4 6 8 10 12 14 16 15 13 16 16 15 19 19 22 19 22 22 20 14 12 12 12 12 13 10 10 12 12 12 14 14 15 14 13 12 12 14 13 13
4 3 4 6 9 8 10 11 13 15 17 16 16 20 20 21 21 21 20 17 22 22 20 16 15 15 13 13 12 14 14 16 16 16 14 15 16 17 16 16 15 12 12 12
2 4 7 8 9 12 13 14 14 17 19 21 20 19 20 19 23 22 19 24 26 19 19 19 17 18 20 19 17 19 18 18 17 17 17 17 15 15 17 15 16 15 12 12
8 9 10 11 12 12 13 18 20 19 18 20 13 11 16 19 20 20 17 21 20 25 24 23 23 20 21 21 22 21 20 20 19 18 18 16 15 16 15 16 18 17 16 17
10 11 13 12 12 15 16 21 20 19 17 8 11 17 21 23 23 23 20 25 25 25 27 26 22 23 23 22 22 23 23 22 22 21 18 16 15 15 16 18 17 17 15 15
14 15 16 16 15 17 20 19 18 14 7 14 18 17 21 24 23 25 25 25 26 27 25 25 26 24 22 23 25 27 26 24 23 22 21 18 16 17 16 16 18 17 16 15
15 17 18 18 19 18 19 17 13 8 14 15 15 18 24 22 22 23 24 25 25 25 24 25 24 25 25 26 28 28 29 26 23 22 21 20 17 16 14 15 15 15 15 15
19 19 18 17 17 17 16 12 12 15 13 14 16 18 21 21 23 21 22 23 22 22 23 23 24 26 27 27 28 31 32 29 24 19 20 19 18 15 13 12 13 13 14 15

GFSNGP_925_spd_036.txt.gz
Wind_Speed
2 3 2 1 1 4 2 5 5 5 5 3 5 7 6 6 6 5 5 6 6 5 10 11 11 12 14 15 19 21 21 19 18 23 19 17 19 14 14 14 9 9 7 4
2 6 6 3 5 4 4 2 4 8 5 3 5 6 6 6 5 5 5 5 5 7 10 14 18 21 21 20 20 20 20 24 25 25 20 15 16 19 15 11 15 8 3 8
3 4 5 5 5 3 3 2 3 4 4 4 4 5 4 4 2 1 3 5 5 8 13 19 19 16 17 17 18 19 18 14 17 19 13 8 12 13 19 18 14 4 8 5
2 3 1 5 5 4 9 3 7 9 7 5 5 5 5 3 2 2 4 4 8 14 19 17 13 14 15 18 20 17 14 13 14 13 15 15 15 9 6 4 9 13 6 1
3 2 5 2 4 5 5 5 6 8 7 4 4 4 2 1 2 2 4 9 14 11 9 7 11 15 18 22 13 10 13 15 19 17 20 19 12 10 16 14 12 6 3 3
3 4 6 5 3 4 5 5 7 7 7 5 4 1 3 3 4 7 11 9 6 8 8 15 21 23 22 14 12 10 12 17 20 17 17 15 12 13 13 6 3 4 3 6
2 2 7 7 5 2 5 7 7 7 6 6 5 5 4 3 5 6 7 10 11 14 17 19 22 22 21 18 8 9 13 17 16 14 11 11 10 6 3 2 4 2 6 6
2 2 8 6 4 7 5 4 6 6 5 5 4 4 3 3 2 7 10 11 14 16 18 19 19 23 23 22 12 12 13 14 12 12 14 9 3 6 4 6 1 4 5 7
9 6 5 5 4 2 5 6 5 6 5 6 5 4 1 4 5 7 8 12 15 17 18 19 20 20 22 23 20 10 8 9 13 13 12 9 1 3 3 1 3 6 6 9
3 4 5 4 3 4 4 5 5 4 5 6 4 3 5 3 4 7 9 11 16 16 16 19 19 20 21 25 14 9 10 11 14 13 10 4 4 1 3 3 7 8 9 10
2 3 4 2 2 6 5 6 5 5 5 4 6 5 4 3 4 5 8 14 16 15 17 16 21 24 21 19 20 18 17 13 10 8 3 4 3 3 4 5 8 10 10 11
6 6 4 4 8 6 6 5 6 5 4 7 9 6 6 4 3 6 13 17 17 18 18 19 23 22 22 19 19 19 17 10 6 5 4 5 7 5 6 8 7 10 9 12
4 3 2 7 7 6 5 7 8 7 12 6 8 8 5 2 5 10 17 17 17 20 18 24 24 23 20 18 18 17 16 6 5 5 6 9 8 9 10 9 8 11 10 10
9 9 5 3 5 8 5 7 14 15 13 11 8 5 4 4 8 14 17 19 20 20 21 22 21 19 19 20 15 11 7 7 6 5 8 10 9 9 10 11 10 13 11 9
5 2 5 9 10 8 8 12 7 6 7 6 4 5 5 6 12 16 18 20 20 21 19 18 18 20 18 13 9 9 8 9 11 2 7 10 11 11 11 7 10 12 13 10
6 7 9 8 7 8 7 6 6 4 3 2 5 8 7 11 14 16 17 18 18 18 19 20 20 18 14 12 9 8 9 8 5 8 11 11 11 11 11 10 10 12 13 12
12 8 8 8 7 5 6 6 6 3 1 4 6 8 13 11 13 15 18 17 18 22 20 21 21 16 15 9 8 8 10 12 10 11 11 11 11 13 11 10 13 15 14 13
13 13 13 7 5 5 4 4 2 3 4 6 11 11 11 8 10 16 20 21 22 20 20 16 16 15 10 8 9 12 11 12 11 10 11 12 12 12 12 15 16 17 15 13
19 12 11 11 8 5 2 3 4 6 10 12 12 13 12 12 13 17 19 20 22 21 20 18 17 13 14 11 10 10 13 13 12 11 12 14 14 13 14 14 14 14 13 14
11 10 8 5 1 2 4 6 8 10 12 12 12 14 15 16 16 21 21 19 25 23 21 23 17 16 17 13 13 16 17 18 18 17 17 16 15 14 15 15 15 15 14 13
7 5 3 2 4 6 8 10 12 14 15 15 15 17 17 17 16 19 19 18 24 23 21 20 22 22 20 17 17 18 18 18 21 20 20 20 19 18 17 13 14 13 15 14
4 5 6 7 8 11 12 12 12 16 17 18 17 13 10 15 19 18 18 22 27 20 21 22 23 23 24 24 21 22 23 23 24 21 21 20 22 20 16 16 15 14 14 14
6 7 8 11 13 14 14 15 18 16 16 16 15 7 10 16 17 16 17 19 22 24 24 25 26 28 25 24 25 24 25 25 26 24 24 23 22 21 18 17 16 15 15 13
6 9 11 13 13 14 14 18 16 15 13 13 9 12 13 16 19 15 18 21 21 23 24 25 26 24 24 25 26 25 26 28 28 28 25 24 24 22 19 18 17 16 15 14
11 13 13 15 16 17 19 20 17 15 10 10 13 14 13 16 17 23 21 22 20 22 23 23 24 24 24 23 25 29 27 28 30 31 30 25 24 23 21 19 17 16 15 13
17 19 20 20 21 22 22 18 16 13 12 16 17 15 14 16 17 19 18 17 18 19 21 22 22 24 24 23 24 26 29 30 30 31 29 27 23 23 20 18 15 14 13 12
21 23 23 22 24 24 22 16 12 16 18 18 17 18 15 16 17 10 10 14 19 19 19 20 24 24 25 26 27 26 25 25 29 32 29 26 20 19 18 16 12 12 13 13

GFSNGP_925_spd_039.txt.gz
Wind_Speed
4 4 2 1 4 5 6 5 6 5 8 5 9 8 6 6 5 5 3 3 2 2 5 9 11 9 9 12 14 16 18 17 15 16 18 21 20 21 17 18 16 11 12 18
1 5 6 3 5 7 5 4 5 3 3 5 4 5 6 6 4 2 0 2 3 6 9 10 7 8 10 11 15 18 18 11 13 16 15 15 17 16 18 16 13 20 9 5
3 4 4 6 8 8 4 2 6 6 7 7 5 6 6 5 2 1 2 4 4 5 6 5 7 8 12 15 18 16 10 9 10 14 15 18 21 20 20 20 14 2 4 10
2 3 1 6 5 5 5 2 3 3 8 7 5 3 4 2 2 4 4 4 5 3 5 5 10 14 15 16 14 10 7 8 12 16 19 23 21 17 18 10 11 8 11 5
3 3 5 4 4 6 6 7 6 7 6 5 5 4 4 6 6 5 3 3 1 3 4 9 12 14 13 14 10 9 12 12 15 17 19 18 14 16 15 15 10 7 5 1
3 4 6 5 2 5 4 5 9 8 9 7 7 3 4 8 5 3 4 5 5 6 7 10 12 11 15 18 21 19 15 15 15 14 15 13 13 11 12 9 5 5 2 3
2 3 8 6 4 3 5 7 7 10 10 8 6 4 2 6 3 5 7 9 5 6 7 9 12 15 19 21 21 24 19 14 13 11 14 14 13 7 1 3 3 4 2 4
3 2 7 7 4 7 6 1 7 6 6 7 4 5 5 5 7 7 8 4 5 8 10 12 16 18 19 22 26 25 16 12 11 15 17 14 11 9 8 5 4 2 4 5
9 6 4 5 3 0 4 5 6 7 5 6 7 6 6 6 6 6 4 3 6 9 11 14 16 15 22 21 20 19 13 12 15 14 15 13 3 2 2 3 3 3 5 7
3 4 6 5 1 3 3 5 6 6 6 7 6 6 6 5 5 4 2 5 9 10 13 17 13 18 19 17 19 18 16 18 16 13 11 4 3 3 4 3 2 5 6 7
4 4 1 5 5 5 5 6 6 7 6 7 8 6 5 4 5 2 3 8 10 11 14 16 14 19 18 18 16 14 18 19 13 8 7 2 3 1 1 4 6 6 9 10
6 6 5 4 7 7 7 6 7 8 5 5 8 6 8 7 4 1 5 9 11 14 16 17 17 18 19 13 13 15 17 16 8 5 1 3 6 7 7 7 6 6 8 9
3 2 2 3 7 6 6 7 7 8 12 7 8 10 7 3 2 2 7 10 14 16 17 18 18 17 16 16 17 15 14 12 3 3 4 7 10 10 9 9 9 8 7 8
5 7 4 2 4 6 7 9 13 15 13 11 10 6 3 2 1 7 10 13 15 17 18 16 15 16 18 15 17 12 9 9 7 9 8 8 8 10 10 11 11 10 9 9
3 3 2 7 8 6 14 16 9 8 8 7 4 2 1 1 5 9 10 13 16 14 15 17 16 20 17 14 15 11 9 9 11 8 5 8 10 12 12 13 9 11 12 10
3 6 8 10 10 10 8 7 7 5 5 4 2 1 1 5 6 8 11 14 15 16 20 20 21 23 17 18 14 12 10 10 10 11 10 12 11 12 11 11 12 11 13 14
9 7 10 11 12 7 3 4 5 4 3 1 2 4 7 6 7 10 11 15 16 19 22 22 21 19 17 17 12 12 13 12 13 13 14 12 12 14 14 14 14 14 16 14
16 15 17 10 6 5 4 3 1 1 1 3 6 8 9 9 10 11 13 18 21 23 26 21 17 18 17 19 15 16 16 17 14 13 13 12 13 14 15 16 16 16 16 13
15 9 8 9 7 5 2 1 3 4 5 7 8 11 11 13 14 15 17 19 21 20 23 17 16 19 17 18 17 16 16 16 18 17 16 16 17 16 16 15 16 15 15 15
10 9 7 5 3 1 1 3 5 7 9 10 11 12 14 16 14 15 17 21 23 24 24 19 17 18 19 20 20 18 17 18 19 20 21 21 21 22 20 19 17 16 15 16
7 6 5 3 2 4 6 8 10 12 13 14 14 16 16 18 15 13 19 16 24 23 23 21 22 22 21 20 19 25 25 23 23 24 24 25 23 22 23 22 20 17 17 17
4 3 3 4 6 9 10 11 12 14 16 17 17 16 14 18 15 18 18 20 24 20 22 20 21 22 22 22 22 22 25 27 26 25 26 27 26 24 24 24 22 20 18 18
5 6 7 9 11 13 15 16 18 17 17 17 17 18 19 18 17 14 14 19 19 21 22 21 22 24 23 24 21 21 22 24 27 28 28 29 29 27 25 26 23 21 19 19
7 9 10 12 13 15 16 21 20 20 20 20 20 20 16 16 21 17 18 19 18 18 18 19 21 23 23 23 23 23 24 25 26 28 28 29 30 30 28 25 24 21 19 18
9 11 13 15 15 15 21 25 26 24 22 22 21 18 18 18 18 20 18 17 13 15 17 19 19 20 21 22 22 23 24 25 27 28 28 28 28 28 27 25 22 22 18 17
14 15 16 16 16 19 20 22 19 24 29 26 22 21 21 16 15 16 12 9 11 14 17 18 19 20 21 22 23 24 25 25 25 26 27 27 28 28 25 24 18 16 15 14
16 18 19 18 18 21 22 24 22 23 25 22 22 29 22 15 12 10 10 8 11 13 16 14 15 19 20 21 21 21 21 22 23 27 27 27 26 26 23 18 13 11 9 10

GFSNGP_925_spd_042.txt.gz
Wind_Speed
2 3 2 2 4 6 6 5 5 4 7 6 9 8 8 7 6 5 4 4 3 3 6 6 5 6 7 7 10 13 15 14 9 12 14 17 20 23 24 21 17 15 15 16
2 4 6 3 5 7 5 3 7 3 7 5 5 7 7 7 7 5 3 1 3 2 2 4 5 5 6 9 13 16 15 10 11 13 15 18 20 22 22 18 17 14 9 3
4 4 4 6 9 9 5 5 7 6 8 6 4 7 8 7 6 5 5 4 3 1 1 3 3 5 9 10 15 14 12 13 14 14 16 18 20 20 15 16 10 8 6 6
2 3 2 5 2 6 7 5 6 2 4 10 6 4 6 5 6 6 5 4 1 2 2 4 4 7 10 11 11 14 16 17 15 15 17 18 20 18 14 11 13 10 10 5
4 3 6 5 4 6 7 7 8 7 5 5 5 4 4 6 5 5 5 3 4 3 4 2 5 6 9 12 14 16 18 18 16 15 17 19 19 19 16 13 11 9 4 3
3 4 6 6 2 4 4 5 6 8 8 8 6 3 5 9 7 7 5 7 7 5 2 3 4 7 10 12 15 19 22 22 17 15 15 18 21 20 18 13 6 4 3 3
2 3 8 6 3 1 5 6 6 9 8 9 6 5 3 7 7 9 12 12 6 2 2 3 5 8 10 15 17 19 21 19 15 14 16 19 19 15 8 0 4 4 4 5
3 2 7 7 3 7 5 1 5 7 7 9 5 6 6 6 7 13 12 7 3 1 3 4 7 7 13 17 17 19 19 17 16 17 17 18 17 15 10 8 2 2 5 7
8 6 4 6 3 1 2 3 4 6 5 9 8 6 8 7 8 11 8 5 1 4 6 8 10 9 15 18 17 19 17 15 16 20 16 13 8 4 1 3 4 5 6 8
2 4 7 8 4 4 5 5 4 5 6 7 7 7 6 6 7 9 6 1 4 6 8 12 13 11 16 17 18 15 13 16 20 16 12 10 5 4 4 4 5 6 7 8
5 8 3 8 7 4 4 4 5 5 5 6 9 7 6 5 7 6 3 2 5 7 10 14 15 14 16 17 13 12 14 18 16 12 8 2 3 4 6 6 8 11 10 11
6 6 4 5 2 6 7 5 6 7 6 7 9 7 9 7 7 4 1 4 7 10 12 15 16 15 14 13 14 14 18 13 14 7 6 4 5 9 10 12 10 11 10 11
3 1 1 2 3 4 6 6 7 9 13 9 9 13 10 5 5 3 2 4 7 10 14 15 14 13 14 15 15 15 18 15 11 11 10 10 7 10 12 12 12 12 11 10
2 3 1 1 2 5 9 14 18 19 17 17 12 8 6 4 4 2 4 5 9 13 13 12 15 15 17 18 16 15 16 13 13 12 13 15 9 11 12 13 14 17 10 10
4 4 2 7 9 10 18 19 13 10 8 7 5 4 2 3 5 5 5 7 8 11 12 16 18 20 21 18 15 18 16 15 12 12 12 9 12 15 14 14 14 17 14 13
6 8 11 12 11 12 13 13 9 5 5 4 2 3 4 5 6 6 5 5 6 11 16 20 24 24 17 16 16 19 15 15 15 15 16 16 16 17 16 15 15 16 15 15
10 7 11 11 12 11 7 4 4 5 4 4 5 5 7 7 7 9 9 9 12 17 21 22 25 18 17 17 18 19 19 18 18 18 17 18 19 18 18 17 17 17 17 17
18 15 14 9 7 4 4 4 3 3 4 5 6 7 8 8 11 13 14 15 19 21 22 23 19 18 17 20 21 21 20 21 22 22 20 18 18 19 19 18 18 19 19 18
15 11 8 6 6 5 2 1 2 3 4 6 7 10 11 13 14 15 16 16 17 21 25 22 22 20 20 21 22 24 27 23 22 22 22 23 24 22 23 24 23 22 19 19
10 10 8 6 3 2 2 4 5 7 9 10 12 14 16 18 17 17 16 18 18 21 23 22 22 23 22 22 20 21 22 24 27 28 26 24 25 26 27 25 24 25 24 22
7 5 4 3 2 3 5 8 10 12 14 15 15 18 20 21 20 18 17 16 24 21 19 20 21 20 20 21 23 26 25 24 23 25 27 29 29 28 29 28 25 25 24 24
4 3 3 4 5 8 9 10 12 16 18 19 21 21 21 23 22 22 18 19 24 17 17 20 18 19 21 22 23 22 23 24 25 25 24 27 26 26 27 28 27 26 25 24
5 5 5 7 8 10 14 17 20 21 22 24 25 26 26 27 25 17 14 21 15 16 17 16 16 19 22 23 22 22 22 22 23 23 26 27 27 26 26 27 28 29 26 24
6 9 10 11 13 17 17 21 23 25 25 27 28 28 29 29 28 24 21 18 15 15 14 15 16 19 19 19 20 20 20 21 21 23 24 26 26 27 26 27 26 27 29 22
12 13 16 19 15 14 17 20 22 20 24 25 28 31 32 27 23 25 23 18 16 12 14 14 17 18 17 17 17 18 19 19 21 23 24 24 24 27 27 27 27 25 26 21
15 13 13 14 13 16 18 19 18 20 22 24 27 27 28 27 31 29 22 17 15 12 10 13 13 13 13 14 14 14 15 16 17 19 19 19 21 24 28 27 25 24 22 15
13 15 14 13 14 18 20 21 21 23 24 25 29 33 32 30 31 30 19 14 10 6 8 8 7 9 10 11 13 15 16 17 19 20 21 22 22 21 18 13 7 7 3 4

GFSNGP_925_spd_045.txt.gz
Wind_Speed
2 2 1 2 4 9 8 4 6 4 9 5 11 14 13 11 12 11 9 7 6 6 6 6 8 7 5 5 7 10 12 11 9 9 11 12 15 19 21 19 13 13 10 9
2 2 3 3 4 7 6 4 10 4 12 8 0 9 12 14 13 11 9 8 8 8 6 7 7 5 3 5 7 12 11 9 11 12 13 14 16 18 16 13 10 10 12 5
3 2 3 5 9 12 6 6 7 10 8 7 6 11 15 15 13 11 9 9 8 7 8 8 6 2 3 6 8 9 11 12 14 14 14 14 14 14 14 12 10 9 9 5
2 1 1 4 2 1 10 6 12 2 4 8 4 5 10 12 13 10 9 10 8 10 10 9 4 1 2 5 8 10 11 13 14 14 14 12 12 14 14 13 11 12 9 7
3 3 5 5 3 5 6 5 12 11 5 5 6 5 4 10 9 10 9 10 10 10 10 7 3 1 4 7 8 10 12 14 15 13 11 10 12 15 15 13 13 11 7 5
3 2 5 5 2 3 3 4 2 7 9 10 10 5 6 15 10 9 11 12 13 12 8 5 1 3 6 6 9 10 12 14 14 10 9 11 15 14 14 12 9 4 6 4
2 3 7 6 2 2 3 4 4 8 8 13 7 3 3 12 11 13 13 14 12 9 5 1 2 5 5 7 9 10 12 13 11 10 13 15 14 14 15 8 5 6 5 5
3 1 6 5 3 5 3 1 2 6 8 13 6 7 9 11 11 16 15 10 7 4 2 1 4 6 6 9 11 11 12 11 10 13 14 14 13 11 9 6 6 4 4 7
8 5 3 5 3 1 1 2 2 3 3 7 8 7 11 11 10 13 12 10 5 1 1 3 5 6 8 11 11 12 12 12 12 14 12 10 9 8 6 4 4 4 5 7
1 2 7 10 5 5 5 4 2 3 5 11 9 12 11 11 9 12 9 6 3 1 2 5 7 8 9 11 11 11 12 12 13 13 13 8 6 5 5 4 5 7 7 9
4 7 4 7 6 3 3 2 2 4 5 9 13 11 10 6 10 9 7 4 2 2 3 6 9 10 11 11 11 13 13 13 14 13 8 7 5 5 6 7 8 10 10 10
5 2 2 3 4 2 3 2 6 10 11 13 14 9 12 8 8 8 7 3 1 3 5 8 11 11 11 9 11 13 13 14 12 13 9 9 9 10 10 11 12 12 13 12
3 2 1 2 3 2 5 9 12 14 14 12 14 15 9 6 7 6 4 2 3 5 8 10 10 11 12 12 14 14 15 14 13 11 11 12 11 11 13 11 12 12 13 14
4 2 1 5 4 8 14 17 20 21 19 19 13 8 7 5 5 4 4 5 5 6 8 9 10 13 14 14 14 16 16 17 16 13 13 12 14 14 11 13 15 14 12 13
7 6 6 11 15 14 18 19 14 12 10 7 7 7 5 3 4 6 7 7 7 8 10 11 12 16 18 16 14 15 14 16 17 16 15 14 11 12 13 14 15 15 14 13
11 13 14 16 15 14 12 12 10 6 7 5 3 2 4 5 6 8 9 10 9 10 13 16 21 24 21 17 15 15 17 18 18 17 15 15 16 16 15 15 16 15 15 14
13 10 13 12 10 10 8 5 3 4 4 4 4 3 4 7 9 12 13 13 15 17 19 21 23 20 17 17 16 16 20 18 20 17 16 17 16 15 16 16 17 16 16 15
16 13 13 11 8 6 3 3 3 1 1 3 3 5 8 10 13 15 15 14 16 20 21 19 18 18 19 18 18 18 19 19 17 18 18 18 18 18 17 17 18 17 18 17
16 13 10 7 6 5 4 3 2 2 3 5 7 10 12 15 17 18 18 17 19 21 23 15 17 17 18 19 18 18 17 16 16 17 18 20 20 20 20 21 21 20 20 19
10 9 9 7 6 6 5 5 4 6 8 9 11 15 19 22 22 22 20 21 22 23 19 17 17 17 17 18 18 19 19 19 19 19 19 19 19 21 23 23 25 22 22 20
7 7 8 8 7 7 9 9 11 13 16 17 18 21 24 27 27 26 19 15 27 20 14 15 15 17 13 15 17 20 20 21 21 21 20 18 19 19 20 22 23 23 22 22
7 8 8 8 8 10 13 14 15 17 20 21 22 24 25 25 24 26 29 24 30 23 15 14 15 15 16 18 18 20 21 21 21 21 20 19 18 19 19 19 19 20 21 22
9 9 11 13 12 10 13 19 22 22 22 22 22 22 21 23 23 19 19 25 23 18 14 13 14 14 17 18 17 15 16 17 19 19 19 19 20 20 20 20 20 19 19 20
11 12 11 10 13 16 18 20 20 18 19 20 20 21 21 24 30 22 25 26 26 25 15 11 12 12 15 15 13 12 12 12 13 15 17 18 20 21 21 20 22 23 21 21
11 10 13 14 15 15 16 18 18 19 22 22 22 22 23 22 24 33 31 28 28 26 16 11 9 9 9 8 9 9 9 10 12 13 13 14 15 16 17 18 20 23 23 19
13 13 11 11 11 13 15 17 17 18 21 24 23 24 27 29 28 31 29 28 30 15 9 3 3 4 4 6 7 9 10 11 13 14 14 14 15 16 19 20 19 15 13 10
11 12 10 10 12 14 15 17 18 20 21 22 26 28 29 29 28 30 29 22 7 1 2 3 3 4 5 6 8 9 10 11 13 14 14 15 15 16 17 17 17 17 16 14

GFSNGP_925_spd_048.txt.gz
Wind_Speed
1 0 3 4 7 13 15 13 8 10 11 9 9 11 11 12 13 14 14 13 12 11 12 12 12 11 9 5 1 4 7 9 9 9 10 12 13 14 15 16 15 14 10 9
4 2 2 6 8 11 15 16 15 18 18 10 6 7 11 14 15 15 15 14 12 12 12 12 13 10 6 2 2 6 7 9 10 12 13 14 14 15 15 17 16 13 12 10
2 2 2 6 16 18 13 13 14 14 14 7 7 10 14 15 16 15 15 14 13 12 12 12 10 7 4 2 2 5 8 10 11 12 14 15 15 15 16 17 16 15 14 12
1 1 3 1 1 2 13 16 14 16 6 6 2 5 8 11 14 14 14 13 12 13 12 12 9 6 3 2 4 6 8 10 11 12 14 14 14 15 17 17 15 15 13 11
2 4 6 11 4 3 4 7 6 14 7 5 4 4 6 10 12 13 12 13 14 13 12 11 7 4 2 4 6 7 9 10 11 12 14 14 14 16 18 16 17 15 10 9
3 3 4 2 3 1 2 6 3 5 8 8 8 5 3 14 12 11 13 14 14 14 12 9 5 3 4 7 7 9 9 11 12 13 13 14 16 17 16 16 15 10 6 6
3 3 6 1 2 3 3 3 1 5 9 11 7 2 3 12 12 14 15 15 15 13 8 5 3 4 7 8 9 9 10 12 13 12 13 14 15 14 14 13 9 7 7 7
3 3 5 6 6 3 3 1 2 3 4 8 2 3 7 11 13 15 17 17 13 9 5 4 3 5 8 10 10 11 12 14 13 12 13 13 13 13 11 9 7 6 7 8
6 2 3 7 4 1 2 3 2 3 3 6 7 7 10 11 12 15 15 12 8 5 4 3 3 6 9 11 11 12 13 13 13 13 14 13 12 11 10 9 8 9 8 10
2 2 7 8 9 8 9 8 5 4 5 6 8 10 12 12 11 13 12 8 3 4 2 4 5 7 10 11 11 12 12 12 12 13 14 14 10 9 9 9 9 10 11 11
5 9 6 1 2 7 5 2 2 1 0 4 10 11 13 11 12 11 8 5 6 3 3 6 7 9 10 11 11 12 12 13 14 14 13 13 12 11 11 11 11 12 12 11
2 4 3 4 6 7 3 2 4 7 11 11 14 12 15 11 11 9 10 8 5 4 5 7 8 9 10 10 11 13 14 14 13 14 14 14 14 14 14 15 13 14 16 15
2 4 3 4 6 5 6 8 11 14 17 16 18 17 15 10 10 11 8 5 6 6 6 7 8 9 10 11 12 13 15 16 15 14 14 15 14 15 15 15 14 15 15 18
4 2 5 9 6 10 15 19 22 21 18 17 17 15 14 8 4 6 7 6 6 7 8 8 9 10 11 13 14 15 16 16 14 16 17 15 15 14 16 15 14 16 14 14
8 9 11 12 14 15 18 18 14 10 10 9 8 5 3 4 5 6 6 7 8 9 11 11 12 14 14 15 16 17 17 17 15 16 17 18 17 17 16 16 16 17 16 14
9 11 12 14 14 14 13 12 10 8 7 3 2 1 2 4 5 7 9 10 11 13 13 14 18 17 15 16 17 18 18 18 19 18 18 17 18 18 17 17 17 16 16 16
13 11 13 13 11 10 9 6 3 3 3 2 2 3 4 5 9 11 13 13 17 21 23 23 24 17 15 16 17 19 20 20 20 21 20 19 18 18 19 18 18 17 17 16
13 13 15 13 9 6 5 6 6 4 4 4 4 5 8 10 12 16 19 19 20 24 25 25 25 17 15 15 16 17 18 18 17 17 17 17 19 20 20 19 20 19 19 18
17 14 10 9 8 7 6 6 6 5 7 8 9 11 14 17 17 19 21 18 19 21 26 19 19 19 16 15 16 15 16 18 18 17 17 18 19 20 21 22 22 22 22 21
13 12 11 11 11 10 9 9 9 9 10 12 15 14 14 18 20 22 21 22 23 27 29 22 19 17 15 14 14 14 15 18 19 20 19 20 21 20 19 20 22 23 24 24
11 11 11 11 11 14 14 13 13 12 11 13 12 13 15 18 18 18 19 22 26 24 26 26 21 19 15 14 12 13 15 18 19 19 19 20 20 19 19 19 20 20 21 22
10 11 11 11 10 10 9 10 11 10 11 12 13 15 18 19 21 21 17 20 25 27 26 24 23 18 15 13 13 12 13 16 17 17 18 18 18 17 17 17 17 19 20 20
11 10 10 11 10 8 7 11 12 11 12 14 15 18 20 21 20 21 22 26 29 29 28 24 23 20 17 14 10 9 9 11 12 13 14 14 15 18 20 19 20 20 20 19
10 10 9 8 7 8 10 13 14 12 13 14 15 18 20 24 23 20 25 29 31 33 30 28 22 20 14 7 6 5 6 7 8 9 10 11 12 13 14 16 17 19 21 21
10 8 8 7 7 9 10 13 14 15 17 18 18 18 19 20 23 30 28 29 29 29 27 8 7 5 4 3 4 4 5 5 7 8 9 10 12 13 14 15 16 17 17 18
8 7 6 8 8 9 11 13 14 16 18 19 19 21 22 22 23 25 26 27 22 17 12 10 10 9 9 8 7 7 7 7 9 9 10 11 12 12 14 15 16 16 16 16
8 7 6 6 8 10 11 12 13 16 17 19 21 21 22 24 24 23 21 19 16 14 12 12 12 12 10 10 10 9 9 9 10 11 11 12 12 13 14 15 16 16 16 16

GFSNGP_925_spd_051.txt.gz
Wind_Speed
15 5 7 8 8 11 16 17 15 13 16 8 4 10 9 9 11 13 14 15 14 13 14 15 16 15 12 9 8 4 5 7 8 8 10 12 14 14 15 15 17 18 17 17
5 7 8 11 13 13 14 17 18 19 17 16 9 3 8 8 11 14 14 15 14 13 15 15 15 13 11 8 5 3 6 7 8 10 12 14 15 16 17 17 18 18 16 15
6 3 5 6 15 17 17 17 14 16 15 11 2 5 10 9 11 13 13 13 13 12 14 13 12 11 9 6 3 3 6 8 9 11 13 15 17 17 17 18 18 16 15 15
1 1 1 3 1 5 7 13 15 14 13 10 8 4 5 6 10 10 11 12 11 12 11 11 10 9 6 4 2 4 7 9 10 12 15 17 17 17 17 17 17 17 17 15
3 6 8 11 7 2 3 7 6 8 9 2 2 3 8 6 6 9 9 11 12 11 11 12 9 6 3 3 5 6 8 10 12 14 16 17 17 17 17 18 16 15 17 14
3 3 4 3 4 1 1 6 7 4 1 4 5 4 6 7 7 7 10 11 12 13 12 11 8 3 2 6 6 8 10 11 13 15 16 17 16 17 17 16 16 10 11 9
5 3 6 1 4 2 4 3 4 5 2 4 6 6 5 5 7 9 10 11 12 13 12 9 4 1 5 9 9 9 10 12 14 16 17 16 16 14 15 15 11 8 13 12
3 2 6 7 6 2 4 2 5 2 3 4 2 4 2 6 7 10 13 15 13 12 9 5 1 3 8 9 10 9 12 14 15 16 16 16 16 16 16 13 11 9 11 11
7 3 4 7 4 4 3 4 3 5 3 3 3 2 4 7 9 12 14 12 10 7 2 1 3 4 8 10 11 12 13 15 14 15 16 17 17 16 14 11 12 10 11 11
1 3 4 3 3 4 5 6 5 4 6 6 7 5 6 9 10 11 13 9 8 3 3 4 3 5 8 10 11 13 15 15 15 15 16 16 16 15 13 12 12 12 13 13
5 9 3 5 6 6 5 4 3 3 4 4 2 7 10 10 11 11 9 5 2 3 5 6 6 7 9 10 11 13 14 15 16 14 14 15 15 17 16 16 14 12 13 15
3 5 4 7 6 5 3 3 4 5 8 9 13 12 16 13 11 8 4 2 5 7 7 9 9 10 10 10 11 12 15 15 15 15 15 15 16 18 18 19 21 21 19 18
2 3 5 5 6 7 8 9 11 12 13 14 17 18 16 14 11 12 10 8 9 10 10 10 11 11 11 10 11 13 16 17 17 16 16 15 16 17 18 17 17 19 21 20
3 2 5 6 6 11 14 17 17 18 18 17 15 12 10 7 5 7 6 8 9 10 12 13 13 14 13 13 15 15 17 19 19 18 16 17 17 18 18 17 16 17 17 19
7 9 13 12 13 13 15 15 13 11 10 8 7 3 1 2 4 6 7 9 10 12 14 15 16 17 15 16 17 18 19 20 19 20 19 20 21 20 19 18 20 20 19 17
9 11 11 12 12 12 12 11 11 8 6 6 5 4 6 7 8 10 11 12 12 15 18 20 22 21 21 20 21 21 21 21 20 19 20 21 21 21 19 19 20 20 19 18
10 10 11 12 10 9 10 7 9 10 8 7 7 7 7 8 10 11 13 15 16 20 25 26 28 24 22 21 22 22 22 20 19 21 22 22 22 22 21 20 20 21 20 19
10 11 12 12 10 8 9 10 10 10 10 8 8 9 11 12 12 15 16 18 22 26 24 26 28 26 25 25 25 23 20 18 18 19 19 20 20 20 21 21 22 22 21 20
19 15 13 11 11 11 11 10 9 8 9 10 10 11 12 13 14 18 20 19 20 22 23 23 26 28 25 27 27 24 21 16 16 18 19 20 20 21 21 21 21 21 22 22
15 15 15 15 14 12 11 10 8 8 9 12 13 13 15 16 20 20 20 20 20 19 24 26 29 29 28 28 30 20 21 17 16 17 17 19 20 20 20 20 20 20 19 20
14 14 14 14 13 13 13 10 11 10 10 14 13 13 15 19 18 19 21 21 22 22 27 30 28 27 27 29 27 19 15 18 17 15 17 18 17 16 17 18 18 17 17 17
14 13 12 11 10 10 10 11 10 10 11 13 13 13 17 19 20 19 18 21 25 30 30 31 30 32 28 33 24 17 14 12 10 11 12 13 14 16 18 19 19 18 18 19
13 12 12 11 9 7 7 9 10 8 10 12 13 15 18 19 20 23 22 25 30 30 32 31 30 30 29 26 18 10 8 7 7 8 9 10 11 12 13 14 16 17 18 20
11 10 9 7 6 6 6 8 10 8 10 12 14 15 18 21 21 20 24 28 29 28 26 20 24 24 20 15 12 10 9 8 8 8 8 9 10 11 12 14 15 16 17 18
10 9 7 4 4 6 7 9 9 10 12 13 14 16 17 17 19 24 24 24 23 24 21 21 22 21 17 16 15 14 13 11 11 11 11 11 12 13 13 14 15 16 17 17
6 5 6 6 6 6 7 9 10 11 12 14 14 15 16 16 17 18 18 19 18 19 18 18 19 19 17 16 15 14 13 13 13 13 13 13 14 14 15 16 16 17 17 18
8 5 4 3 6 7 8 8 9 10 11 12 13 13 14 14 15 15 16 17 18 17 17 17 17 17 17 16 15 14 14 13 14 15 14 14 14 15 16 17 17 17 18 18

GFSNGP_925_spd_054.txt.gz
Wind_Speed
15 15 7 10 12 7 10 10 10 11 15 12 4 12 10 8 7 6 7 6 7 8 9 13 14 14 12 12 12 8 3 2 3 3 4 7 10 12 13 14 15 17 18 11
9 10 12 11 15 14 14 15 14 14 14 12 8 9 4 4 7 7 9 9 9 10 12 14 15 13 14 11 10 5 2 3 4 5 6 8 11 14 16 15 15 17 13 11
3 6 7 5 10 16 16 15 11 12 11 8 3 2 3 4 6 3 5 9 8 8 10 14 14 14 11 9 6 2 3 4 6 7 9 10 13 15 16 16 17 15 11 13
1 1 1 10 0 4 4 8 9 11 9 8 7 7 5 4 2 4 1 5 6 8 12 12 14 11 10 8 5 2 2 5 7 9 11 13 14 15 16 16 16 16 11 13
3 4 9 13 3 1 0 3 10 8 9 9 10 6 6 3 5 4 5 6 10 11 14 14 13 10 8 5 1 3 6 5 7 10 12 14 16 15 15 17 20 19 12 8
3 3 5 0 5 2 1 2 6 6 5 5 3 1 4 7 6 4 7 11 14 16 14 16 13 9 4 4 5 4 4 5 8 11 13 15 16 14 14 16 18 11 7 11
4 2 6 6 7 1 2 3 5 7 6 5 2 5 5 7 6 8 10 13 18 20 17 15 12 9 9 6 8 6 5 5 9 12 15 15 16 14 16 15 14 11 12 13
3 2 6 6 5 1 4 5 5 6 6 6 9 6 4 7 8 12 18 19 18 15 15 14 11 7 4 7 8 8 8 9 12 13 11 14 18 18 18 15 7 9 10 14
7 4 4 6 7 5 3 3 3 4 6 3 2 5 4 7 13 16 15 14 12 16 13 9 5 2 7 10 9 9 11 11 12 13 11 12 14 19 20 14 12 16 14 15
3 4 7 5 7 9 9 8 9 8 6 5 6 6 7 12 10 13 13 17 14 12 5 2 5 11 9 9 10 10 12 12 13 14 14 12 12 15 19 19 14 16 16 17
5 6 2 13 10 7 6 5 4 6 6 5 2 12 13 11 13 16 13 9 6 3 5 10 6 6 9 10 10 11 12 12 14 14 14 12 16 18 20 20 21 20 16 16
1 6 6 9 7 4 6 8 9 11 13 16 16 14 18 13 13 10 8 7 7 6 6 8 10 11 10 11 11 10 11 13 14 16 16 15 18 19 18 22 21 22 25 25
4 7 11 10 10 13 13 13 13 13 15 15 19 18 16 11 7 4 2 6 6 8 10 10 12 13 14 13 12 15 17 16 18 18 16 16 19 17 19 20 20 22 22 23
5 9 7 6 11 13 15 17 19 20 18 17 15 12 9 8 8 3 3 6 8 10 12 14 15 16 16 16 17 14 17 19 21 21 18 18 19 19 20 20 19 19 20 22
9 11 15 15 16 13 15 16 13 12 11 10 8 9 9 8 9 11 11 11 11 13 15 17 18 21 22 22 22 23 25 25 22 24 25 25 24 23 22 21 22 22 22 21
11 12 13 14 13 12 12 11 10 8 9 14 13 13 12 11 9 9 10 14 16 14 20 26 29 30 25 24 25 27 27 27 26 26 21 19 19 21 20 20 22 21 20 22
12 11 12 13 12 11 10 11 13 14 14 12 10 10 11 12 11 14 14 16 17 21 25 23 26 25 25 25 27 29 30 30 29 27 19 14 16 18 18 17 17 18 20 22
11 10 11 11 10 11 12 14 14 14 12 10 11 13 14 14 11 14 17 19 25 23 22 19 22 30 31 30 28 30 29 31 27 20 14 16 19 20 21 19 20 21 21 21
16 13 13 14 17 16 14 13 14 15 14 13 13 13 12 11 14 15 17 21 21 19 19 22 27 29 29 29 31 25 26 30 25 18 14 18 20 20 19 19 20 21 21 20
18 19 19 19 17 15 14 14 14 14 13 14 12 14 14 17 19 19 20 18 18 19 29 28 30 29 29 29 33 29 28 28 29 22 15 14 16 16 16 16 15 18 19 16
16 17 16 17 17 18 17 14 13 12 9 14 14 14 16 18 17 19 16 15 17 29 26 29 26 26 34 35 36 28 26 26 20 13 8 10 11 12 14 16 17 19 21 20
15 13 14 15 15 14 13 11 10 11 12 13 12 14 17 15 16 15 15 17 24 25 26 23 25 32 33 32 29 26 22 17 13 13 12 12 13 13 14 15 16 18 18 20
15 14 14 14 13 12 12 11 8 11 12 11 11 13 12 13 14 16 15 21 22 25 24 20 30 29 27 27 27 27 25 24 22 21 19 17 15 15 15 14 16 17 19 21
15 14 13 12 11 9 8 9 8 8 10 9 10 11 13 13 13 15 18 19 21 22 20 23 27 26 24 24 24 24 23 21 21 20 20 19 19 17 18 18 19 19 20 20
14 12 10 8 7 8 7 8 6 7 8 7 9 10 12 12 13 16 17 18 19 20 19 20 22 25 23 23 22 22 20 20 20 19 19 19 19 19 19 20 19 20 20 20
10 11 11 10 9 7 6 6 6 6 7 9 9 10 11 10 12 13 15 16 18 19 19 19 20 21 21 21 20 20 20 19 20 20 18 18 18 18 19 20 21 21 21 22
10 8 7 8 7 6 6 5 6 7 8 6 10 11 10 11 12 14 15 16 17 17 18 19 19 19 19 19 19 19 19 18 19 19 19 19 19 20 20 21 21 21 22 21

GFSNGP_925_spd_057.txt.gz
Wind_Speed
4 6 4 5 0 5 4 6 6 8 7 10 5 11 9 8 6 7 7 10 14 13 13 21 25 28 26 19 13 10 7 10 11 7 2 3 6 9 11 14 17 18 16 12
1 5 8 4 5 6 6 6 4 3 5 4 4 8 8 7 2 7 9 11 12 13 17 22 26 28 22 18 13 14 12 11 7 3 4 7 9 10 13 15 15 15 17 12
2 4 6 6 6 6 6 5 4 4 7 5 5 7 6 6 7 6 8 8 11 12 19 24 26 26 26 21 20 15 12 10 7 6 7 8 13 14 15 14 12 12 11 13
3 3 1 8 5 5 4 1 5 6 6 8 6 5 7 7 7 8 8 8 9 15 21 22 26 27 28 22 17 12 11 7 3 7 13 13 13 15 14 13 16 19 18 14
4 4 5 9 1 2 3 3 5 7 7 7 6 9 11 7 8 7 9 11 18 26 30 32 30 27 25 20 19 14 11 7 7 13 10 12 14 16 17 16 19 18 12 7
3 4 6 6 3 4 3 1 5 8 6 6 6 5 3 4 9 10 19 22 25 29 31 32 27 25 24 20 14 9 3 6 14 10 12 12 15 15 18 18 19 18 15 12
2 2 7 7 5 1 6 6 4 7 6 7 5 3 2 14 17 24 24 27 30 30 28 28 25 24 19 14 12 4 8 5 8 10 12 13 13 15 17 18 20 12 10 11
3 2 6 6 4 6 5 3 7 7 6 9 7 6 12 14 15 20 22 25 27 27 25 23 20 16 10 3 5 9 8 11 12 13 14 13 15 17 15 18 15 14 16 19
7 6 6 4 8 5 7 7 5 6 6 7 7 9 14 13 14 19 22 23 23 24 20 15 10 8 2 5 8 8 10 12 13 14 14 14 14 13 15 17 19 22 21 23
4 3 6 10 9 10 9 8 8 7 6 4 5 15 14 13 12 17 18 18 18 16 12 6 2 4 6 9 9 11 11 14 14 14 14 14 15 14 14 15 19 22 20 18
2 8 12 9 7 7 9 10 15 15 13 12 18 14 15 12 14 15 15 13 10 7 4 3 4 6 9 11 11 13 17 16 12 16 17 16 18 19 20 20 20 23 24 24
4 3 6 5 4 11 14 14 13 16 17 17 19 15 17 11 13 14 12 7 3 2 2 8 9 10 9 11 14 16 13 18 23 24 21 23 25 27 24 24 24 22 23 25
5 10 15 13 14 15 16 15 14 15 16 14 16 18 17 13 13 10 5 4 6 3 6 9 13 14 15 17 18 19 24 27 26 25 25 27 28 28 26 31 27 25 24 24
14 15 9 4 9 14 17 20 22 20 19 19 18 16 15 12 8 3 9 15 14 14 15 16 16 19 25 27 28 27 27 28 27 29 32 33 32 32 32 25 22 24 28 27
10 13 16 15 16 14 18 17 12 9 8 11 15 16 18 15 15 18 19 18 16 16 17 20 21 22 22 23 25 27 29 31 33 35 34 36 32 32 35 23 25 27 27 28
16 17 15 15 13 11 10 9 9 9 12 15 17 18 16 16 16 16 16 18 19 18 18 19 20 18 22 25 25 26 26 27 29 29 29 28 28 25 21 19 21 17 17 20
17 12 13 13 10 8 8 11 15 14 15 16 15 15 16 15 15 16 16 17 15 16 18 19 21 26 30 26 28 27 27 29 26 25 28 28 26 19 13 18 24 21 20 23
14 13 12 12 13 14 12 16 18 17 14 16 16 17 18 17 12 13 16 17 17 13 22 22 27 29 25 26 30 31 29 28 29 27 28 27 23 19 18 20 21 22 23 25
19 14 16 21 21 19 16 17 18 19 18 17 18 17 14 14 13 14 15 17 17 18 20 24 25 21 28 32 32 33 32 29 29 27 28 31 26 21 15 13 13 13 14 17
21 24 25 22 24 22 19 20 21 20 16 15 16 16 15 15 15 16 15 14 18 20 24 22 20 30 30 28 28 27 30 30 27 26 17 24 20 17 16 17 16 17 17 18
16 20 20 21 20 22 21 19 19 16 15 15 17 16 14 14 14 15 13 11 16 20 21 14 24 29 26 26 25 26 24 27 28 26 25 24 21 20 20 17 18 18 18 19
17 17 19 19 18 18 18 18 17 16 15 14 15 14 12 11 13 12 13 15 14 20 15 20 25 26 23 23 25 25 24 26 26 24 25 24 22 21 20 20 20 19 21 21
17 17 18 19 18 18 16 16 15 15 13 12 13 12 11 11 12 12 10 13 16 17 15 20 23 27 23 23 24 24 22 25 26 24 22 21 21 20 19 20 20 22 21 21
18 18 19 20 21 18 13 12 12 12 11 11 11 10 9 9 9 11 9 12 15 16 17 19 21 23 24 22 22 23 22 21 24 24 22 21 21 19 20 20 21 22 20 21
17 17 18 17 15 13 13 10 12 10 8 9 8 7 7 7 7 8 11 12 14 16 16 16 18 19 19 20 19 20 20 21 21 21 22 22 22 19 22 20 22 22 21 22
16 15 17 18 15 13 11 9 11 8 5 6 7 5 7 6 8 9 10 13 15 14 14 16 15 16 18 18 18 18 18 19 21 19 19 22 20 21 22 21 21 22 23 22
16 16 16 15 13 10 9 7 6 6 4 4 8 8 10 6 8 8 10 13 14 12 14 13 14 16 17 15 18 16 18 18 20 17 17 22 24 23 21 21 21 23 22 23

GFSNGP_925_spd_060.txt.gz
Wind_Speed
5 3 3 1 3 2 4 4 5 7 7 8 7 8 11 8 7 7 7 8 9 10 11 20 24 28 30 27 22 20 19 19 19 16 11 6 3 7 9 12 15 15 16 17
3 3 3 3 3 5 4 3 5 5 6 5 3 0 6 9 7 7 9 10 12 14 19 20 23 26 30 26 23 25 25 22 17 12 7 6 6 11 16 15 14 13 14 13
4 3 4 6 6 7 5 5 5 5 5 2 5 7 4 3 5 7 8 12 15 14 18 21 23 27 29 29 31 27 24 18 13 10 8 7 15 11 13 13 10 12 15 15
3 3 2 7 4 6 6 3 4 7 3 5 7 5 8 7 5 8 9 9 8 14 19 21 25 27 30 29 26 24 20 15 10 3 4 6 9 12 12 13 15 17 18 19
4 3 5 8 3 6 5 2 4 7 5 8 7 12 8 11 8 8 8 12 17 23 26 28 30 32 28 26 24 21 16 8 3 3 4 9 11 11 13 13 15 19 20 20
3 4 6 7 4 3 5 0 1 5 5 6 4 4 3 7 9 14 19 20 23 25 29 32 28 31 29 21 17 13 5 2 6 7 11 10 11 13 11 12 15 18 19 20
2 3 7 8 6 1 5 6 5 5 4 4 4 3 6 7 14 20 22 24 27 29 29 28 26 25 22 14 8 5 1 1 5 10 10 12 13 13 15 18 17 19 16 15
3 3 6 6 2 7 6 3 6 5 5 12 12 11 10 12 13 17 21 23 24 26 26 22 18 13 8 7 3 2 6 9 9 11 12 13 14 16 19 19 18 17 18 21
8 6 4 3 4 3 5 7 4 7 5 12 13 11 12 12 12 16 20 21 23 24 19 13 9 8 6 2 6 7 7 10 12 14 14 14 16 19 20 19 19 22 22 24
4 2 3 4 4 5 5 8 5 5 7 10 14 12 12 12 10 14 17 17 18 17 13 8 6 5 5 7 8 9 12 15 16 17 18 18 18 21 21 22 24 22 24 26
4 3 8 5 3 8 10 10 13 12 9 15 17 12 12 11 10 13 14 15 14 13 9 5 4 6 7 9 11 14 17 19 22 22 23 24 26 26 26 29 29 29 29 27
5 12 5 4 5 9 12 10 10 16 14 13 17 14 16 10 13 13 14 12 9 6 6 9 10 11 12 14 16 17 19 23 25 27 31 33 33 34 34 34 36 35 32 28
6 7 13 11 9 9 15 12 13 15 15 15 14 18 17 14 13 13 11 11 14 16 14 13 14 16 18 19 20 21 23 24 25 27 28 29 29 28 27 35 33 34 31 28
18 18 11 1 7 10 16 17 21 20 19 18 18 18 17 17 21 20 17 14 14 14 15 15 15 17 20 22 24 25 27 26 26 28 26 26 26 27 28 26 28 30 34 27
6 9 13 15 14 12 19 19 15 11 12 16 20 19 19 17 16 15 14 14 15 16 16 15 17 19 22 24 24 24 24 23 26 28 27 25 24 26 29 28 27 27 25 21
14 18 15 15 14 12 13 11 15 11 12 14 16 17 18 20 18 16 17 17 18 17 17 17 19 21 21 21 24 24 24 25 27 26 26 28 28 27 27 27 27 16 12 16
19 10 13 13 13 12 10 10 11 12 14 16 16 18 18 18 17 16 15 14 14 16 15 18 19 17 20 24 26 25 26 28 30 27 26 27 27 28 29 27 19 14 18 19
11 12 11 14 14 14 13 16 17 16 15 18 20 19 19 18 12 11 11 13 12 14 18 15 14 20 22 21 22 21 23 24 25 26 26 23 26 26 24 17 14 14 15 14
19 16 20 20 21 20 18 17 18 21 22 20 19 19 16 14 11 11 12 13 14 12 13 12 18 19 18 20 21 18 19 22 23 22 23 24 23 23 21 20 20 20 19 20
18 24 25 22 22 25 21 20 22 21 18 18 19 17 16 14 11 12 12 14 12 11 7 13 17 18 15 16 18 15 19 23 21 20 22 21 22 21 20 22 21 21 21 21
15 22 22 23 21 21 21 23 23 18 16 15 17 16 15 13 12 10 9 8 9 10 6 12 17 19 16 15 17 16 18 22 22 21 20 20 22 21 20 21 19 20 20 20
18 19 21 22 21 19 19 19 21 20 17 16 14 14 13 11 10 11 10 8 7 7 8 13 15 16 17 15 18 18 16 20 21 21 19 19 20 19 19 20 19 20 19 19
18 20 20 20 19 19 20 18 18 17 16 14 13 12 11 9 7 7 5 5 7 8 8 10 12 14 16 18 17 18 18 19 19 19 18 19 18 17 19 19 19 20 20 19
20 19 19 20 23 19 15 13 13 14 15 12 10 6 5 6 6 4 4 4 5 8 8 8 11 13 15 15 16 16 16 17 18 15 17 19 19 17 21 18 19 20 19 20
19 19 19 16 14 11 14 14 15 14 11 9 6 4 3 2 3 1 2 4 6 6 8 10 10 12 15 14 14 14 14 16 18 13 14 19 22 21 21 18 19 19 19 22
17 16 16 15 12 12 13 11 11 9 7 6 4 2 2 3 1 1 2 5 8 6 8 9 10 12 15 13 12 12 13 16 18 13 14 19 22 24 21 19 19 20 22 21
19 18 15 14 10 10 10 9 7 6 3 2 4 3 2 2 2 2 4 8 11 7 8 9 11 13 14 14 12 11 12 14 17 17 17 20 24 24 21 19 19 20 21 22

GFSNGP_925_spd_063.txt.gz
Wind_Speed
4 4 4 4 4 5 6 6 6 7 7 9 8 8 9 9 5 7 8 10 10 9 7 17 21 24 25 30 34 30 23 19 18 18 16 14 10 5 4 4 6 8 10 12
3 2 3 3 6 5 4 3 6 6 6 7 4 3 5 7 7 9 8 9 11 12 14 18 23 26 28 28 28 24 21 21 21 20 15 10 4 3 4 6 8 11 12 12
5 1 3 5 8 8 6 6 6 6 9 2 2 4 4 7 2 4 6 8 10 11 14 16 18 25 26 27 23 22 24 22 17 13 8 3 3 2 7 10 11 12 14 15
2 2 1 7 3 4 6 3 5 2 2 4 4 4 6 8 3 6 7 8 8 13 17 21 25 24 25 25 27 27 23 19 13 6 3 2 4 6 7 9 11 13 15 17
4 4 5 5 4 7 7 5 2 6 6 5 3 1 7 10 9 6 6 9 14 19 22 25 25 27 30 28 26 24 18 10 6 2 3 5 8 8 9 11 12 13 17 20
3 5 7 7 3 3 5 4 5 5 7 6 2 3 3 6 7 10 16 16 20 25 27 29 27 31 32 27 21 15 8 3 4 2 7 10 10 11 12 12 14 17 17 19
3 3 7 7 6 3 5 7 7 7 6 6 4 2 6 8 10 15 18 21 25 26 27 29 31 28 24 16 10 6 1 3 5 8 9 10 11 13 14 16 18 21 22 21
3 3 6 6 4 9 6 2 5 5 4 5 8 8 9 9 9 12 17 21 25 27 29 26 21 17 14 10 4 0 3 7 8 9 11 12 14 15 16 19 22 24 25 26
9 6 4 3 4 3 6 7 5 7 6 11 12 6 9 9 9 12 17 19 24 25 21 15 12 10 9 7 4 4 6 9 11 13 14 15 17 20 21 22 25 29 29 30
4 4 3 1 1 3 4 6 7 6 12 10 12 11 11 9 8 12 16 17 18 18 16 12 10 10 8 5 6 8 12 15 18 20 23 25 26 26 27 28 30 31 29 28
1 1 4 3 2 5 7 7 10 8 7 14 16 12 12 10 9 14 16 16 17 15 13 12 12 14 13 12 11 13 14 16 18 20 21 24 25 26 28 33 33 32 31 32
6 11 5 6 7 6 9 7 7 16 11 9 13 15 16 9 14 15 15 15 15 16 18 15 13 14 14 15 16 17 19 22 23 25 26 27 28 32 28 28 30 31 35 38
6 9 5 12 8 3 9 8 9 11 14 16 16 20 19 15 13 19 19 19 18 16 13 13 13 15 15 16 17 19 20 21 22 21 21 22 23 23 27 32 27 30 32 35
15 15 8 3 6 9 13 16 19 20 19 20 21 21 22 20 20 18 16 16 15 14 15 14 14 17 16 17 19 20 21 21 21 22 23 24 23 24 24 27 30 34 34 30
6 7 10 16 15 13 17 18 15 13 13 15 21 21 21 18 16 16 15 15 16 16 15 14 15 16 16 18 19 19 20 20 22 23 23 23 23 25 26 27 27 28 30 32
13 15 16 17 15 14 14 13 16 12 12 16 18 19 20 22 20 17 15 11 13 13 12 14 14 14 16 17 17 17 18 19 22 21 22 20 20 21 25 28 26 26 24 21
19 9 14 13 13 12 12 10 12 11 15 17 18 21 22 20 18 16 15 15 15 14 12 12 12 13 12 14 16 17 16 17 20 19 19 21 21 21 20 22 22 21 21 25
8 10 11 17 16 15 12 14 18 18 16 18 23 22 19 16 14 15 15 13 12 12 10 11 11 10 10 13 15 13 15 18 17 16 18 19 19 19 20 20 19 20 22 21
16 16 16 17 19 18 17 18 18 20 24 24 23 19 18 16 16 14 12 11 11 9 7 9 10 10 10 12 13 11 15 17 17 17 17 16 19 18 20 20 19 21 21 20
16 20 24 22 22 24 20 20 22 20 18 22 22 20 18 15 16 14 9 12 8 4 3 7 10 11 11 11 13 11 14 15 16 15 15 16 18 17 18 20 19 22 21 20
15 19 20 23 21 22 22 22 23 18 17 18 19 18 17 15 13 9 9 7 4 2 5 7 10 12 13 12 12 12 11 14 14 14 14 15 17 16 18 20 20 21 21 20
17 17 20 23 22 20 18 19 21 22 20 18 17 17 17 13 10 9 7 5 3 2 5 7 8 10 10 11 12 12 11 12 12 12 13 16 16 16 19 21 20 21 21 20
20 22 21 20 20 19 18 19 19 19 18 15 14 12 10 9 7 8 6 1 2 3 4 6 7 8 9 10 10 10 10 12 13 11 12 14 16 16 19 20 19 20 20 19
20 20 20 20 23 20 17 14 13 14 14 12 10 8 8 8 5 4 2 1 1 3 4 4 5 7 9 10 10 10 11 12 14 13 12 14 18 20 20 20 19 20 20 21
21 20 20 17 14 12 14 13 13 11 10 8 7 6 5 2 0 5 3 2 3 5 6 7 6 7 9 11 10 11 10 11 13 15 14 16 20 22 23 21 19 20 20 22
18 17 16 14 13 13 12 11 10 10 9 7 4 2 4 5 4 4 3 3 5 6 8 8 7 8 10 11 12 13 11 11 13 15 15 17 21 23 23 22 21 20 21 23
19 18 16 16 13 11 10 9 9 7 5 3 2 1 3 7 7 5 3 6 7 8 9 8 8 9 10 12 12 14 11 11 14 15 16 18 22 25 24 22 22 21 22 22

GFSNGP_925_spd_066.txt.gz
Wind_Speed
4 4 5 6 5 8 7 6 6 7 8 9 7 6 7 6 5 6 9 9 9 8 7 14 18 20 20 23 26 27 27 26 20 15 13 15 14 12 8 5 4 7 9 8
3 2 4 3 7 6 6 4 6 5 7 9 6 4 5 6 7 7 8 5 4 7 9 12 16 19 21 23 24 27 25 19 17 16 16 14 11 6 2 3 6 7 8 9
4 3 3 6 8 9 7 5 7 8 10 4 3 3 3 7 8 5 3 5 7 7 8 15 18 23 23 25 26 25 20 20 20 18 14 7 2 2 2 6 9 9 10 11
3 2 0 7 1 4 9 7 6 5 4 5 4 6 5 5 5 7 6 6 7 10 15 20 23 24 26 26 23 22 23 22 18 11 5 3 2 7 9 10 11 11 12 13
5 4 5 5 4 7 7 9 6 6 5 5 7 5 5 6 7 5 5 7 11 16 18 21 23 25 27 24 24 26 22 16 11 4 3 5 8 10 10 11 12 12 13 15
3 5 7 8 4 4 3 8 7 8 8 8 6 3 2 3 4 8 13 14 17 22 24 26 24 26 30 29 27 20 14 9 3 2 2 6 10 11 13 14 15 16 18 19
2 3 7 7 4 4 6 8 5 9 7 7 4 2 7 6 8 12 15 18 23 25 25 27 29 33 29 23 17 11 5 3 3 3 7 9 12 14 15 17 19 22 25 26
3 3 6 8 5 9 7 0 5 6 7 5 9 8 9 9 9 10 15 20 24 27 28 29 27 25 20 16 8 5 4 2 5 6 9 11 14 17 19 21 25 28 30 34
9 7 4 7 5 4 5 5 7 7 5 10 12 6 7 9 10 11 18 20 23 26 27 23 19 18 19 10 6 5 5 7 8 10 12 13 16 20 22 24 27 31 28 29
3 5 7 5 3 2 5 5 5 5 10 9 10 11 12 10 10 12 18 20 24 24 22 22 22 20 16 11 8 8 9 10 11 13 16 18 20 21 23 25 25 22 22 24
4 5 2 6 6 6 4 6 9 8 6 11 15 12 12 11 10 15 19 21 23 23 23 20 18 17 14 12 10 11 11 13 16 18 21 23 23 22 22 22 21 26 26 27
7 9 6 5 9 8 8 6 8 14 9 7 11 14 13 11 15 17 19 23 22 22 22 18 16 15 14 12 12 13 14 16 18 20 22 22 23 24 20 20 23 25 28 31
2 6 3 6 7 4 7 7 7 10 13 15 14 19 19 14 15 22 20 19 20 20 20 16 15 14 12 12 13 14 15 15 17 19 20 20 20 19 26 31 26 26 26 29
9 8 5 3 5 7 12 12 19 18 17 18 20 22 24 20 21 20 18 20 22 21 17 15 13 13 11 12 12 13 13 14 17 17 17 16 14 15 18 20 25 31 33 27
7 4 6 13 12 12 13 16 15 13 14 15 20 21 22 20 18 18 20 21 20 18 15 12 11 11 10 11 11 11 12 13 15 13 12 12 15 17 18 18 20 22 27 32
10 9 12 17 14 12 12 10 15 12 13 15 18 19 20 23 21 20 19 16 13 13 12 11 10 8 8 10 10 11 10 12 13 13 14 14 15 17 15 17 16 19 20 23
12 7 9 8 13 13 14 12 12 11 13 17 20 22 23 22 21 18 16 16 16 15 11 10 9 7 8 10 9 9 10 12 13 12 14 14 15 15 16 17 15 17 18 20
10 9 7 9 13 16 13 11 18 20 15 20 22 23 20 16 15 15 16 15 14 12 10 9 8 7 7 8 7 7 11 12 12 12 12 12 14 12 15 17 16 19 22 21
11 15 13 13 15 15 14 16 18 18 23 25 23 18 19 20 18 15 14 13 11 9 6 6 6 6 6 8 8 8 11 12 12 11 11 11 13 13 14 18 18 20 22 21
15 19 22 21 22 23 19 17 22 20 20 25 24 21 18 18 17 16 11 10 7 6 4 5 6 7 8 9 9 9 11 12 12 12 11 12 13 13 14 17 18 19 21 22
14 16 17 20 20 22 21 22 23 19 17 20 20 18 18 17 14 12 10 8 5 4 3 5 7 7 8 9 10 11 11 12 12 12 12 13 15 15 16 19 19 19 21 22
14 14 19 22 23 20 18 20 21 22 20 19 19 20 19 14 11 9 6 5 4 2 3 5 6 7 8 9 10 10 10 10 12 12 11 12 14 17 19 20 21 20 21 22
19 21 22 22 21 19 18 19 20 20 20 18 17 14 10 9 7 7 5 3 2 0 3 5 6 8 9 10 10 11 10 10 11 12 11 12 14 17 20 21 22 21 22 23
22 21 21 22 22 20 18 14 15 16 17 14 11 9 8 8 6 4 4 4 0 2 4 6 8 8 9 10 11 12 12 11 11 12 12 13 15 18 21 22 23 22 22 23
23 21 20 19 17 14 16 14 15 12 11 9 7 5 3 3 0 5 3 1 3 5 7 9 10 8 9 10 11 12 13 13 13 13 14 15 17 20 23 23 23 23 23 23
19 17 17 16 15 14 13 11 10 8 8 7 4 1 3 3 2 4 3 2 4 7 8 10 11 10 10 11 12 13 15 14 13 14 16 17 18 21 24 24 24 23 23 23
19 18 17 17 16 14 13 10 9 7 5 4 2 1 3 3 5 4 3 5 7 8 9 10 10 11 12 13 14 15 15 14 14 17 19 19 20 22 25 25 25 24 23 23

GFSNGP_925_spd_069.txt.gz
Wind_Speed
5 4 5 5 5 11 10 7 7 12 11 11 10 5 5 4 4 7 6 8 11 9 8 10 11 12 12 12 13 14 17 19 22 23 18 13 12 12 10 8 8 5 7 11
4 3 6 4 6 8 7 4 9 8 9 11 5 4 5 4 5 6 7 5 7 9 11 13 12 13 13 15 17 22 24 27 23 16 15 19 15 10 9 6 2 9 13 10
5 1 4 4 7 10 5 5 7 10 11 1 5 5 2 3 4 4 4 3 4 7 10 15 17 19 19 20 20 20 25 22 18 23 21 16 11 8 4 8 16 11 9 10
3 1 4 5 2 2 8 9 10 8 7 6 3 4 3 2 2 2 4 6 8 10 14 15 18 18 20 20 22 27 24 25 25 21 16 13 6 6 10 8 9 9 11 11
5 5 4 3 5 6 7 14 8 12 7 4 9 6 2 2 2 2 3 6 10 13 15 17 19 20 23 23 26 30 30 26 19 14 12 3 5 6 7 8 10 12 13 14
3 5 9 6 4 6 5 12 8 10 9 11 10 5 4 4 4 5 7 10 15 17 19 21 20 23 25 25 27 25 24 17 12 8 4 1 3 5 7 10 12 14 17 20
3 3 6 5 4 6 5 10 3 9 8 14 8 1 8 9 7 9 11 15 17 19 21 22 23 27 28 25 22 21 15 13 8 5 3 2 4 6 9 11 14 18 23 26
3 2 8 7 4 9 7 3 3 7 9 8 9 11 11 11 11 11 16 18 20 23 23 22 24 29 24 20 15 14 12 10 8 6 4 4 6 9 11 11 13 18 23 23
9 7 4 11 6 6 4 4 5 8 8 13 15 9 13 13 13 13 19 22 23 26 24 21 20 20 21 14 13 13 10 10 8 6 6 7 8 9 10 11 12 14 16 20
2 5 6 5 3 3 5 5 4 5 14 15 14 16 15 14 14 14 22 23 24 26 24 21 19 19 17 14 12 12 11 8 7 7 8 8 7 8 9 10 12 14 17 20
3 4 3 6 8 2 4 5 7 9 10 14 19 17 17 15 16 20 21 22 23 24 22 19 17 17 14 13 10 10 9 8 7 7 8 8 8 8 8 9 11 15 16 19
7 7 5 6 7 11 10 10 13 13 12 13 16 19 18 16 20 23 22 23 22 21 21 18 17 16 13 12 10 9 8 7 8 7 7 7 7 7 7 9 11 12 14 15
3 1 1 3 5 3 7 8 9 12 15 18 15 21 22 18 22 25 23 21 20 20 19 18 16 14 11 10 9 9 9 7 6 7 7 8 9 9 11 10 11 11 14 16
3 6 1 3 4 6 11 12 16 16 17 18 23 24 25 24 25 23 20 20 22 21 18 17 14 13 9 8 9 8 8 9 7 6 7 7 8 10 10 12 13 14 13 15
4 4 2 9 10 11 13 15 16 14 14 15 20 22 24 23 22 22 21 21 20 19 16 14 13 11 8 8 8 7 6 6 6 5 5 6 7 9 9 12 13 14 16 16
8 8 4 8 12 12 14 12 17 15 15 13 17 20 20 24 26 23 20 16 17 15 13 14 12 9 8 7 7 6 6 7 6 5 5 6 7 8 9 11 12 13 15 19
9 7 9 9 12 13 9 8 12 14 13 17 21 22 24 25 19 21 18 17 20 17 13 11 10 8 7 7 5 5 5 5 6 5 5 6 7 7 8 9 10 12 13 14
3 4 5 10 14 15 13 12 15 17 16 25 26 24 23 16 16 17 18 18 17 14 11 9 9 8 7 6 5 4 5 5 5 5 5 6 7 7 7 9 10 12 13 15
9 13 13 14 15 14 13 14 19 22 24 27 25 18 18 17 17 17 16 15 12 11 8 8 7 7 7 7 5 5 6 6 5 5 6 6 7 8 8 10 11 12 13 14
16 20 22 22 22 22 18 20 21 21 21 24 24 21 18 16 18 19 15 12 7 8 8 7 6 7 6 6 6 5 7 7 6 6 6 7 8 9 9 10 12 12 12 13
14 16 17 20 21 23 23 23 25 19 15 19 20 17 16 17 16 15 11 9 7 7 6 6 6 5 5 5 6 7 7 7 8 7 7 7 8 9 10 12 12 12 13 13
13 13 18 22 23 23 21 21 22 21 20 21 21 21 19 13 12 10 7 7 7 5 4 4 4 4 4 5 6 7 7 8 9 9 8 7 8 10 12 13 13 14 14 14
19 21 22 22 22 22 22 20 21 21 21 20 18 13 11 9 7 6 5 5 5 4 3 2 4 5 6 7 8 9 10 10 10 10 11 11 10 11 12 13 17 16 15 16
23 24 25 25 24 24 20 17 18 18 20 16 15 12 9 8 7 6 7 5 3 1 1 3 5 7 7 8 9 10 11 12 13 13 13 13 13 14 14 18 19 19 19 19
25 24 22 19 19 16 17 16 16 14 14 12 10 8 6 5 4 4 4 3 1 2 4 5 7 8 8 9 10 11 12 14 15 14 14 15 16 17 18 19 21 21 22 21
21 19 20 18 16 14 12 11 12 10 9 8 7 5 3 2 2 4 3 0 2 4 6 7 9 9 9 11 12 13 14 16 15 14 15 17 19 19 19 21 23 24 23 23
21 20 19 19 17 15 14 12 10 8 7 6 4 4 3 1 2 3 1 2 4 6 8 9 11 10 10 12 13 14 15 15 15 16 18 20 20 19 20 23 25 25 24 23

GFSNGP_925_spd_072.txt.gz
Wind_Speed
17 15 12 16 14 16 17 18 17 14 17 13 14 14 13 5 3 5 7 6 7 9 9 11 13 15 15 15 16 18 19 19 20 20 27 31 23 21 15 14 12 8 10 8
13 11 12 15 16 15 17 16 14 17 18 14 15 10 10 9 6 6 4 5 5 7 8 11 14 17 17 18 19 20 21 21 23 26 26 21 20 20 17 11 7 9 8 12
12 7 6 8 15 15 15 13 16 16 17 14 14 14 14 8 6 5 4 2 2 6 9 12 14 18 19 20 21 20 22 23 23 24 22 20 18 15 13 9 8 11 11 9
6 4 8 9 3 15 18 17 16 16 18 16 14 6 3 3 3 1 3 5 6 6 9 12 15 16 18 20 20 22 24 22 21 23 25 18 14 9 7 9 8 8 8 9
5 10 10 5 5 9 11 16 15 15 18 14 5 6 7 4 3 5 6 7 9 11 13 15 15 16 18 19 21 22 22 23 22 25 20 12 6 6 7 5 6 7 8 9
4 6 8 5 12 10 5 14 11 11 12 8 10 7 4 10 8 8 9 10 12 15 17 18 19 20 22 22 22 23 23 22 20 15 11 7 5 5 3 4 5 6 8 10
10 5 5 4 7 10 9 13 2 8 7 11 12 2 13 12 10 11 12 14 15 16 18 19 21 23 24 24 24 23 20 18 14 10 7 5 4 3 2 4 6 7 8 11
5 4 9 10 10 10 12 3 6 7 9 12 8 10 11 11 12 12 13 16 16 19 19 19 21 24 25 22 21 19 17 13 11 8 7 4 2 1 2 4 6 7 9 11
8 6 3 18 13 15 4 6 6 9 9 13 14 13 14 13 13 12 16 17 19 22 23 22 21 21 22 19 17 16 14 12 10 8 6 3 2 2 3 5 5 7 8 10
5 9 11 9 14 3 6 4 3 5 11 16 17 17 16 14 13 13 18 19 22 23 22 21 19 18 18 16 13 13 12 10 8 7 5 4 3 3 3 4 6 7 9 10
12 12 6 9 13 13 11 7 7 5 10 15 17 18 16 16 16 17 20 21 21 22 22 21 19 18 15 14 13 13 10 8 6 5 5 4 4 3 3 4 4 6 7 9
7 14 8 10 3 12 14 15 13 14 13 13 17 19 17 16 20 22 23 23 22 22 21 19 17 15 13 11 9 10 9 7 6 5 4 3 2 2 2 2 1 3 5 6
5 1 2 4 4 2 9 7 10 13 14 16 15 18 19 17 23 23 23 23 22 21 20 18 16 15 12 10 9 9 8 7 5 5 3 2 1 2 3 2 6 5 6 7
4 2 5 4 1 1 3 7 8 10 13 15 18 21 22 20 23 22 21 20 20 20 19 18 16 14 10 9 9 9 8 8 4 3 2 1 2 2 4 5 7 7 7 10
9 6 1 6 5 7 10 10 13 12 13 14 19 20 22 22 20 20 20 20 19 17 15 14 15 12 9 9 8 7 5 4 3 3 2 1 2 3 4 6 7 9 10 9
5 3 4 5 9 10 12 11 13 13 13 14 15 20 22 24 24 23 21 19 19 15 11 11 12 9 8 7 7 6 5 4 3 1 2 2 3 4 5 7 8 9 10 12
4 4 5 6 7 9 11 10 9 12 15 13 20 24 29 29 26 22 21 20 19 16 12 11 9 7 7 6 5 4 3 2 2 2 3 3 4 5 6 7 9 10 11 11
3 3 4 9 11 10 12 12 13 16 15 22 22 26 23 20 19 20 21 20 18 15 11 9 7 6 7 5 4 4 3 2 2 3 4 5 5 6 7 8 10 11 12 12
9 12 11 13 13 13 13 13 19 23 25 27 23 21 20 20 21 20 18 16 14 13 9 7 8 6 6 5 4 3 3 3 3 3 4 5 6 7 8 9 10 11 12 13
16 19 21 21 20 20 17 20 23 23 24 27 26 24 22 19 17 16 13 12 9 10 9 7 6 5 4 5 5 3 3 3 4 4 5 5 6 7 8 9 10 11 12 13
16 16 17 19 20 22 22 21 24 22 21 22 23 20 20 16 14 13 11 10 9 8 8 7 5 3 3 3 4 3 3 4 4 5 6 7 8 8 9 10 11 12 13 14
14 14 17 21 22 24 23 23 24 24 23 22 20 19 18 15 13 12 10 9 9 7 5 4 3 3 3 4 4 5 6 6 7 7 8 8 9 9 10 11 11 13 14 14
19 22 24 23 23 26 26 25 23 22 22 19 17 14 13 11 8 6 6 6 6 5 3 2 2 4 5 5 6 7 7 8 8 9 9 10 10 10 11 12 13 14 14 15
25 26 26 26 26 26 22 21 22 21 21 18 16 12 10 9 9 8 9 7 5 3 1 1 3 6 6 6 7 8 9 9 10 10 11 11 11 12 12 13 14 15 15 16
25 24 23 21 20 19 20 19 18 17 16 15 13 11 9 8 6 5 5 4 2 2 2 4 6 7 6 8 9 9 10 10 11 12 12 12 13 13 14 15 15 16 17 17
22 21 21 20 17 16 14 13 14 12 11 11 10 7 6 5 4 4 3 3 3 3 3 5 6 7 8 9 10 11 11 12 12 12 12 13 14 15 15 15 15 16 17 18
22 20 20 20 18 16 14 13 13 12 10 8 7 7 6 4 3 2 2 2 3 4 6 7 9 9 9 10 11 11 11 12 12 13 14 14 14 15 14 14 16 17 17 17

GFSNGP_925_spd_075.txt.gz
Wind_Speed
22 18 14 17 18 20 20 19 19 17 19 18 13 9 11 12 7 4 6 8 8 8 9 11 13 15 16 18 15 17 16 16 17 24 23 21 21 25 27 23 19 15 11 12
19 18 18 17 15 17 17 17 18 19 20 15 15 10 12 11 11 8 7 4 4 5 7 9 11 12 11 15 15 16 19 21 23 23 21 27 29 25 21 15 17 12 11 11
16 18 19 16 17 17 18 17 14 17 16 16 14 11 13 13 14 5 6 4 3 4 5 9 11 17 16 17 18 20 20 22 20 21 22 24 22 20 17 14 12 9 9 9
7 2 14 10 14 18 20 19 17 18 17 15 16 16 6 4 6 4 5 4 4 5 9 11 15 17 18 18 19 23 23 22 21 21 21 20 18 16 13 10 8 7 7 7
6 12 14 18 8 12 15 17 17 18 16 15 13 5 8 6 4 4 5 5 8 10 13 16 19 22 21 19 20 20 21 22 21 21 20 19 16 13 7 7 6 6 6 6
4 12 17 13 11 10 14 14 17 16 14 9 4 6 8 11 10 10 9 10 12 15 17 18 20 22 22 22 22 20 21 21 22 21 18 14 9 8 6 5 5 5 4 5
11 7 7 9 8 9 11 13 7 5 7 7 8 3 11 12 12 12 13 14 15 15 16 18 19 20 21 22 21 22 23 22 18 15 11 10 8 7 6 5 3 3 2 5
8 7 9 8 7 11 13 15 6 8 8 8 6 10 11 13 13 13 14 17 16 16 17 18 20 21 21 21 22 22 21 19 15 12 9 7 7 5 4 4 4 3 3 4
8 5 8 16 12 16 12 9 6 7 6 7 11 12 14 13 14 13 16 17 18 19 19 18 20 21 22 20 21 20 17 14 12 10 8 6 5 3 2 2 2 2 3 4
16 18 16 12 11 11 7 7 5 4 5 9 13 13 15 14 14 14 16 17 19 20 19 19 18 18 19 19 17 16 14 12 11 9 7 5 4 2 1 0 1 2 3 5
14 16 15 7 10 10 11 8 9 8 10 13 13 15 16 15 15 14 16 17 19 18 19 18 17 16 15 15 15 14 12 10 8 7 5 5 5 3 3 4 2 1 2 4
8 10 13 15 6 11 12 14 11 10 10 11 15 16 17 14 15 17 17 19 18 18 18 17 16 14 12 11 12 13 12 9 7 5 4 3 3 4 2 2 2 4 5 3
13 7 5 3 1 3 6 8 10 9 9 10 11 13 16 15 18 18 20 20 20 20 19 18 16 15 12 10 9 9 10 9 7 4 3 1 0 1 3 4 3 5 5 6
9 3 7 7 1 1 2 1 1 2 4 8 12 16 17 14 20 19 18 19 21 21 20 18 18 16 14 13 12 11 10 9 6 4 2 1 2 3 4 5 6 7 8 5
6 8 7 3 1 2 3 2 6 6 7 9 11 15 18 14 15 19 20 21 21 20 20 19 19 17 12 11 11 9 8 6 5 3 2 1 3 4 5 6 8 10 10 10
4 3 2 2 3 3 4 6 7 8 9 11 11 14 19 20 24 23 21 21 21 18 16 19 17 11 9 9 8 8 7 5 4 1 1 3 4 5 7 7 9 10 11 13
4 5 4 3 4 5 5 6 8 9 12 13 15 20 26 27 25 22 23 23 21 20 17 15 13 9 8 7 6 4 3 2 2 2 2 4 5 6 7 9 10 11 12 11
3 4 5 4 7 10 10 11 11 14 15 23 27 28 25 23 18 20 21 21 21 19 15 12 11 9 8 7 6 4 3 2 3 3 4 5 6 7 8 10 11 12 13 13
11 12 13 14 14 14 14 14 19 24 24 24 25 21 23 23 23 22 20 17 16 15 11 10 10 9 8 6 5 4 4 4 4 5 6 7 7 8 9 10 11 12 14 14
17 19 22 20 22 20 15 20 23 24 24 27 28 26 22 21 20 19 18 17 13 12 10 9 8 7 6 6 6 4 4 5 6 6 7 8 9 9 11 11 11 13 14 14
17 17 17 19 20 22 21 22 25 24 24 25 25 22 21 20 18 16 14 13 10 10 9 7 6 5 4 3 4 4 5 6 7 8 9 10 11 12 12 13 13 14 14 15
14 14 17 22 23 25 26 28 28 27 27 26 24 21 20 17 16 16 12 11 9 7 6 5 4 3 3 4 4 6 7 8 9 10 11 11 12 13 13 13 14 14 15 16
20 23 25 25 25 27 28 28 27 26 24 20 18 16 15 13 8 7 9 7 7 5 3 5 2 3 5 5 6 7 8 10 10 10 11 12 12 13 14 14 15 15 16 16
25 27 27 26 26 26 23 23 24 23 22 20 17 13 11 10 11 11 10 8 6 4 5 5 3 4 7 7 8 9 10 11 11 11 12 13 13 13 14 14 15 16 16 17
25 25 24 23 22 20 22 20 20 19 18 17 15 13 12 11 9 7 6 5 5 4 5 5 7 9 8 9 9 10 11 12 12 13 14 13 14 15 15 16 16 16 17 17
24 21 22 22 20 18 17 16 15 14 13 14 13 11 10 9 8 6 5 5 5 6 6 7 9 10 10 11 11 12 13 13 13 13 12 14 15 16 16 16 16 16 17 18
23 22 22 22 20 19 18 16 15 14 12 11 11 10 9 8 6 5 4 5 7 7 8 9 10 11 11 12 13 13 13 13 13 13 14 15 15 16 16 16 16 17 17 17

GFSNGP_925_spd_081.txt.gz
Wind_Speed
11 20 18 19 12 14 11 7 10 10 15 11 8 7 6 8 6 7 8 7 6 8 8 9 17 26 29 28 27 25 22 24 28 32 30 30 33 31 29 28 33 33 29 26
11 14 15 9 19 11 14 11 7 8 10 8 8 5 6 8 9 7 9 8 8 7 6 5 14 20 23 26 26 26 25 24 25 24 25 26 27 28 31 32 29 28 24 24
7 10 12 8 15 11 17 13 10 9 8 6 5 3 3 4 6 6 6 8 7 7 8 12 17 24 24 26 24 23 25 22 22 23 24 24 25 26 28 29 28 23 21 20
2 1 13 5 7 6 12 9 4 1 2 3 5 4 5 6 6 7 8 7 8 8 12 14 22 25 27 27 27 26 24 22 21 21 22 22 24 25 25 27 21 19 17 16
2 6 6 12 3 5 5 6 4 2 2 3 5 4 6 4 6 5 6 6 7 16 18 21 22 24 27 25 25 24 23 23 23 24 25 24 23 26 26 21 18 18 14 15
2 1 7 1 8 2 2 4 5 1 4 6 3 4 4 3 7 8 8 14 16 20 21 22 22 23 24 21 21 19 21 21 22 22 24 25 25 24 21 20 16 17 16 16
1 3 7 6 8 3 5 6 6 2 3 1 4 5 6 7 6 7 8 17 21 21 19 20 20 19 18 18 17 19 20 20 22 22 23 25 24 22 19 17 19 20 19 14
4 4 5 8 3 4 4 7 5 3 3 4 8 8 8 7 8 8 8 11 20 17 18 20 19 19 17 15 19 21 22 22 23 23 20 23 19 18 19 20 20 16 14 12
10 6 7 3 2 5 6 6 3 3 4 8 9 7 9 8 8 8 7 10 16 19 18 19 19 18 16 18 25 26 24 20 19 20 19 21 20 18 18 16 14 12 10 13
3 7 11 5 5 5 7 10 7 5 7 6 7 9 7 7 7 7 8 8 18 20 16 16 17 16 24 25 24 24 23 23 21 22 21 21 20 19 19 16 14 11 11 13
6 8 4 8 9 7 11 13 8 3 3 5 8 6 6 6 7 7 8 16 21 20 21 20 26 23 22 24 25 25 24 22 21 22 22 21 18 14 12 10 7 10 9 9
5 8 7 5 2 7 16 11 9 7 5 5 8 9 7 8 6 10 15 22 23 22 27 27 31 30 26 23 27 29 26 26 23 21 18 15 12 11 9 6 4 3 1 3
3 2 3 7 7 5 7 3 7 6 5 6 6 8 7 8 12 23 24 26 28 29 30 31 33 34 29 28 29 30 28 24 22 20 18 15 9 6 5 0 2 2 2 3
4 5 5 2 5 7 8 7 8 10 10 9 14 18 21 18 24 25 26 30 33 34 32 32 33 30 25 25 28 28 24 19 14 10 8 7 6 4 5 2 1 2 4 6
3 6 7 8 8 7 7 9 12 12 13 16 21 20 24 21 19 27 30 33 34 33 29 31 31 25 20 20 19 17 15 13 10 7 7 6 5 4 4 4 2 2 4 3
4 8 8 11 9 8 11 10 13 12 16 15 18 23 29 33 32 30 28 26 30 25 26 28 26 19 17 16 15 14 13 11 9 7 5 3 3 2 3 4 5 6 4 2
12 7 10 9 12 14 15 15 15 15 15 16 18 25 30 32 32 30 30 32 33 30 27 25 20 17 16 14 13 11 9 7 6 4 3 4 3 4 6 7 7 8 7 7
17 16 13 15 13 15 15 16 16 18 17 23 26 26 26 26 20 26 27 30 31 28 23 19 16 15 14 12 10 8 7 7 7 6 6 6 9 9 8 6 8 8 9 9
19 19 18 18 15 17 16 16 21 25 25 27 29 26 26 26 27 27 26 25 22 20 15 15 14 14 13 12 10 10 10 9 9 9 8 8 11 9 9 12 12 9 9 10
19 20 24 22 25 23 16 23 27 27 25 30 30 28 26 24 25 27 26 23 18 16 13 12 13 13 13 12 10 10 10 10 10 10 11 11 11 12 11 11 12 12 11 10
17 17 18 19 21 25 25 25 28 25 25 28 29 25 24 23 24 22 20 17 14 16 15 14 14 14 12 13 12 11 11 12 13 13 13 12 12 13 13 13 14 13 12 13
15 17 18 24 25 25 26 27 30 29 29 28 27 26 26 24 25 24 21 17 12 14 14 16 16 14 12 12 12 12 12 14 14 14 14 12 13 15 16 16 14 13 14 14
21 23 25 24 25 27 29 28 28 27 26 25 25 24 20 18 17 17 15 15 16 15 16 17 16 15 13 15 14 14 15 15 15 13 15 17 14 14 16 18 18 15 14 12
25 26 27 28 30 29 22 25 28 28 29 29 25 24 24 24 23 23 19 15 16 16 16 16 17 14 14 16 18 17 16 16 17 17 14 13 16 17 18 17 17 17 17 16
26 26 26 25 23 21 25 25 26 25 26 26 27 28 26 23 24 20 20 19 16 15 15 15 14 15 15 17 17 16 16 17 16 15 16 16 16 16 17 18 17 16 17 19
22 20 22 23 21 20 21 21 21 21 22 22 24 25 23 22 23 21 18 17 17 16 16 16 16 15 16 16 15 15 15 16 15 15 15 17 18 17 16 17 19 21 22 21
24 24 24 24 24 24 24 23 20 20 22 23 24 24 23 21 20 19 18 17 15 15 15 15 15 16 16 15 14 16 15 13 15 18 19 17 16 17 19 22 23 20 19 20

GFSNGP_925_spd_084.txt.gz
Wind_Speed
7 10 10 12 14 9 17 9 11 9 11 9 8 9 10 11 8 8 9 8 8 9 9 11 16 23 29 30 32 34 34 33 34 30 29 33 35 33 32 35 37 35 36 33
5 10 11 6 23 19 4 4 9 7 9 9 9 5 6 10 10 8 7 4 8 10 9 7 15 19 22 24 30 33 32 30 27 25 27 30 28 23 27 28 29 32 31 31
5 4 10 6 10 14 6 6 5 6 9 5 6 8 10 10 9 10 9 8 6 5 6 9 12 21 22 24 26 27 27 23 19 19 20 20 20 22 25 27 28 29 29 28
3 4 13 8 7 13 18 14 8 5 4 7 6 4 2 4 7 7 7 7 6 5 7 12 13 15 19 21 22 23 21 19 18 20 22 22 23 24 25 26 26 27 24 21
1 3 4 10 7 6 7 8 8 7 7 5 4 4 4 2 1 7 7 6 6 12 14 18 18 18 20 20 18 19 20 20 21 22 23 21 21 23 23 24 24 21 20 19
3 3 8 4 10 4 1 5 4 7 7 5 7 4 5 4 5 7 7 8 12 18 20 20 19 21 22 18 19 17 19 19 18 18 18 19 20 21 23 24 21 20 19 18
3 3 6 9 9 4 4 6 4 6 4 5 4 6 5 8 5 5 7 13 16 17 15 18 19 19 18 18 14 15 16 16 15 15 16 17 19 22 22 21 20 20 21 22
2 3 6 4 6 6 5 4 2 4 2 7 5 6 7 8 8 9 11 12 16 16 16 16 16 16 16 13 14 15 15 14 13 14 15 19 19 17 19 21 25 25 25 21
9 7 9 4 5 4 2 4 2 3 4 6 9 7 8 7 7 7 9 12 17 19 18 15 12 12 16 15 17 18 18 17 17 16 15 15 14 16 18 21 23 20 19 17
3 6 9 9 5 5 6 5 3 3 3 3 4 4 6 7 7 6 9 12 18 18 14 13 13 15 21 21 22 22 22 22 21 22 22 20 18 17 17 14 15 14 13 14
4 7 6 4 9 8 9 6 5 1 2 8 8 8 7 7 7 8 12 17 20 21 21 20 26 24 22 25 27 29 28 26 26 28 27 27 26 21 18 15 10 10 10 10
5 9 4 8 8 8 6 5 4 6 6 3 8 9 8 9 9 14 18 22 25 24 26 23 29 30 27 25 30 32 28 26 25 26 24 22 20 18 14 11 8 6 5 3
5 4 5 4 2 4 6 4 6 7 2 6 5 12 12 13 17 26 26 26 26 26 27 28 32 33 28 28 30 31 27 24 25 20 16 12 8 6 4 3 4 3 3 3
5 5 2 3 2 3 8 10 15 15 16 14 16 21 23 18 24 26 25 26 29 30 30 30 32 30 28 29 30 27 22 17 17 15 15 12 9 7 6 5 4 3 3 4
5 1 6 8 7 8 7 11 17 14 13 17 22 19 23 20 18 24 27 28 30 31 28 29 31 26 22 19 19 18 18 16 14 12 11 9 8 6 5 5 5 4 3 2
6 8 9 11 11 10 13 14 17 14 15 16 18 23 27 30 29 27 24 21 26 23 24 30 29 23 20 19 19 19 18 15 14 12 10 9 8 8 8 7 7 7 6 4
10 6 8 9 11 13 15 13 14 14 15 17 20 27 30 30 30 29 27 28 32 30 29 28 25 21 21 19 19 18 16 13 10 10 11 10 9 9 8 7 7 6 6 6
13 15 14 13 13 15 14 14 14 18 17 24 27 28 27 26 19 24 25 28 32 32 28 24 22 22 20 17 16 15 15 15 14 13 12 12 11 10 10 10 9 7 5 6
17 20 18 18 15 16 15 15 19 25 25 26 28 26 27 26 26 26 26 27 24 23 19 21 21 22 22 19 18 17 16 15 15 14 13 12 12 11 11 11 11 10 9 8
18 20 24 21 23 22 17 24 26 26 24 29 31 29 27 25 26 27 29 27 22 20 18 19 19 21 19 18 16 17 16 16 15 14 14 13 13 12 12 12 12 10 9 9
14 19 19 18 20 25 25 26 27 25 24 28 30 26 26 25 24 23 24 21 18 20 21 21 20 19 18 17 16 16 16 16 15 14 14 14 14 14 14 13 13 13 12 11
13 16 17 24 24 26 27 29 31 30 29 29 29 29 29 27 27 26 22 23 20 21 22 22 19 16 16 15 16 16 16 16 16 15 14 13 13 14 15 14 14 14 12 10
19 23 26 25 25 28 30 29 28 29 27 25 24 23 23 20 18 19 17 18 22 21 22 20 17 17 17 17 16 15 16 15 15 14 14 14 14 13 13 12 13 14 14 14
24 27 28 29 31 31 22 26 29 29 29 28 26 24 24 24 25 27 25 22 20 20 20 17 16 15 15 16 15 15 15 14 13 13 13 14 14 14 15 15 15 15 17 18
25 26 27 27 25 22 26 27 29 27 28 27 26 24 23 23 26 21 22 20 18 18 18 15 15 15 15 14 14 14 13 13 14 15 16 16 15 15 15 17 19 20 20 19
21 20 23 24 22 22 22 22 22 21 23 23 23 24 25 26 24 23 21 19 17 16 15 14 14 14 13 13 14 14 14 15 16 17 15 13 14 16 19 21 22 20 19 19
25 25 24 24 22 21 21 22 22 20 21 22 23 23 23 23 22 21 18 17 16 15 14 13 13 14 14 13 12 12 14 15 16 14 15 16 17 19 22 23 21 20 19 19

GFSNGP_925_spd_087.txt.gz
Wind_Speed
12 17 12 3 5 4 4 6 10 7 11 11 10 9 9 9 8 4 8 8 10 13 13 13 19 26 30 33 34 37 38 37 39 37 33 33 34 36 34 35 41 35 34 32
11 8 17 18 15 10 9 6 8 7 10 8 10 8 6 10 8 9 11 9 10 10 9 11 17 23 27 29 32 33 32 31 30 30 29 30 31 29 29 31 30 26 27 33
6 4 4 5 16 16 15 4 4 8 8 6 7 9 10 9 9 10 9 10 9 9 11 9 10 17 18 18 21 25 25 22 22 23 23 22 22 24 28 26 23 25 29 30
4 2 5 4 8 13 14 18 11 9 6 9 12 9 7 7 9 9 7 8 7 5 5 6 6 10 11 11 12 16 18 17 16 14 14 16 18 21 20 21 23 23 21 20
2 4 4 2 5 9 9 11 11 12 9 7 5 0 3 2 4 7 8 5 5 8 9 9 11 14 15 14 14 15 15 14 13 14 15 15 16 16 16 18 17 17 19 19
2 6 8 2 6 4 9 10 10 10 11 7 3 4 5 5 4 7 8 7 9 13 13 13 11 12 15 14 13 11 9 9 8 9 11 13 13 12 12 14 16 16 17 16
5 3 7 9 6 2 5 7 4 4 6 6 5 6 1 7 5 6 9 13 18 15 13 13 14 16 16 15 13 10 9 9 8 6 6 8 10 12 15 18 20 20 21 19
3 2 6 5 2 2 5 6 5 4 8 6 7 4 6 5 8 11 12 11 15 15 15 14 13 16 16 14 12 11 11 11 10 10 10 11 14 14 16 19 21 20 23 22
9 6 6 5 3 3 4 1 2 5 7 5 3 3 6 6 8 9 10 12 14 16 17 15 12 14 18 14 15 20 21 20 20 19 18 17 18 17 18 17 19 18 19 19
2 9 16 10 6 4 8 5 6 4 6 1 6 6 7 7 7 8 8 11 17 19 17 17 17 20 22 22 22 23 24 22 21 22 22 21 20 19 19 17 18 16 14 13
6 7 7 12 7 8 9 7 4 9 4 2 8 5 9 7 6 9 12 18 20 19 20 21 25 25 23 23 23 26 24 23 24 26 27 28 27 23 22 18 14 11 9 8
6 9 4 7 6 6 10 8 9 7 7 0 5 7 13 10 8 12 15 20 22 21 24 22 28 27 22 21 25 29 26 22 23 26 25 22 19 18 16 13 10 8 6 3
4 5 4 9 5 3 4 8 3 4 3 9 11 17 15 13 16 23 23 24 23 24 24 26 30 31 26 25 28 30 27 23 22 18 15 14 13 11 9 8 8 7 6 5
10 7 7 4 3 6 14 11 14 18 17 16 17 23 26 18 23 23 24 25 27 29 28 29 32 30 28 27 26 24 22 19 19 18 16 15 14 13 12 11 9 8 7 5
11 8 7 4 6 8 12 13 16 15 14 15 21 19 23 21 17 24 26 28 30 31 28 29 30 27 23 22 24 23 23 21 19 19 17 16 15 14 13 12 11 9 7 6
7 4 8 9 8 8 10 17 14 15 14 14 17 22 27 30 30 28 27 24 29 25 26 29 30 25 23 23 24 25 23 20 18 17 17 16 15 15 13 12 11 10 10 10
5 4 5 7 7 10 11 13 13 16 15 17 20 27 29 31 31 29 29 31 33 31 28 28 26 24 24 23 23 21 20 21 19 20 19 17 17 16 14 14 13 11 11 11
5 4 9 12 13 14 13 14 14 16 17 25 27 28 27 26 20 26 27 30 32 32 29 26 25 25 25 24 23 22 21 21 20 20 18 18 17 17 17 16 15 13 11 11
13 12 14 17 13 16 14 15 20 24 24 27 30 26 28 28 28 28 27 28 26 25 21 23 25 26 26 23 22 21 21 20 20 19 18 17 17 16 15 14 13 12 11 11
17 15 19 18 21 22 18 23 27 27 26 30 31 30 28 26 27 29 31 29 23 19 18 20 24 25 23 21 21 21 20 20 18 18 17 17 16 16 15 14 13 11 10 10
16 15 16 15 17 24 29 25 28 26 26 28 30 28 28 27 26 25 26 23 18 20 22 22 22 21 20 19 19 20 19 19 18 18 17 15 14 14 14 14 13 13 12 11
13 15 14 20 20 24 28 29 31 31 31 31 30 30 30 28 29 29 25 24 20 23 24 23 21 19 18 17 18 19 19 18 17 15 14 14 14 14 13 13 13 12 12 13
17 20 23 24 24 26 31 30 30 31 29 27 25 24 24 22 20 21 19 18 25 24 24 22 19 18 18 19 19 18 17 15 14 14 13 12 12 12 12 12 12 14 15 16
24 24 27 30 31 30 20 27 30 30 31 29 27 25 25 27 27 27 27 24 23 22 22 19 18 17 17 16 15 15 14 13 12 11 11 11 11 11 13 14 16 17 17 16
25 25 27 26 24 21 28 28 30 28 29 27 26 24 22 21 25 23 24 22 20 20 20 17 16 14 14 14 13 13 13 12 12 12 11 11 13 14 17 19 19 18 17 17
22 20 22 23 22 21 21 22 23 22 24 24 24 25 27 27 26 24 22 20 19 17 17 14 13 13 12 12 12 12 12 12 13 14 13 13 15 18 21 20 18 18 18 18
24 25 24 23 21 21 22 22 22 20 21 23 24 24 26 24 23 21 19 17 16 15 14 13 11 10 10 10 9 10 11 12 12 12 12 15 19 20 19 18 17 16 18 19

GFSNGP_925_spd_090.txt.gz
Wind_Speed
12 16 16 27 23 15 17 12 10 6 12 10 10 9 12 10 5 7 8 7 8 9 10 10 18 22 26 29 31 31 32 32 42 34 31 31 34 36 38 37 36 37 36 38
12 14 18 22 21 14 9 5 3 5 6 7 9 5 5 9 9 8 9 10 10 10 9 11 20 25 26 27 28 29 30 33 30 30 31 33 34 36 37 34 33 33 35 36
5 5 15 8 22 20 10 6 8 7 8 4 6 7 10 12 9 10 10 10 10 12 10 7 13 17 19 19 21 26 27 26 26 27 30 32 31 29 30 33 34 34 34 29
3 4 5 7 6 16 14 10 9 6 6 7 8 10 10 9 9 10 11 10 8 6 6 9 7 9 11 10 12 17 18 17 19 20 19 19 20 23 26 26 25 21 19 18
2 3 7 12 7 3 7 15 11 13 9 9 6 2 8 7 9 9 5 3 6 12 13 12 13 15 18 15 14 14 13 11 11 12 14 15 13 12 10 9 6 6 7 8
2 3 5 6 7 15 2 6 6 8 9 9 6 1 7 4 1 4 8 8 12 16 15 17 16 17 21 19 19 16 15 13 10 9 9 9 8 8 8 9 12 12 14 13
11 5 7 9 4 13 4 5 2 3 7 6 5 5 2 4 6 8 7 13 18 17 17 18 18 22 21 21 18 18 19 18 17 15 14 12 12 11 11 13 15 18 21 19
6 5 5 7 3 2 4 7 4 6 6 3 2 3 4 6 7 9 12 12 15 19 19 20 21 24 20 20 20 23 23 22 20 18 16 14 13 13 13 17 20 21 22 21
6 5 7 3 5 6 6 4 6 6 6 4 8 6 1 4 9 9 11 13 17 21 21 21 23 23 22 19 22 23 24 23 21 20 19 16 16 17 17 16 17 16 16 17
1 7 14 8 5 5 7 8 2 6 4 6 7 5 7 11 9 11 11 15 17 21 22 21 21 21 23 22 23 26 27 24 23 24 24 23 22 21 22 19 18 17 16 14
6 14 13 6 1 5 6 6 3 6 4 9 10 8 10 9 12 11 13 22 24 17 23 21 22 24 20 21 25 31 30 28 28 29 30 31 30 26 25 20 16 14 11 9
5 8 5 8 6 5 4 6 9 9 5 6 6 12 16 11 11 16 14 22 28 19 24 23 28 28 24 23 27 32 29 25 23 24 24 24 23 25 23 20 18 16 13 11
11 3 6 14 6 4 4 6 12 15 16 12 12 10 14 16 22 20 25 27 25 24 22 25 29 30 26 27 31 30 28 24 24 24 22 21 21 17 15 18 18 18 15 12
7 4 8 6 3 7 11 10 9 19 15 17 16 20 25 16 20 25 24 26 26 29 24 26 30 28 26 29 32 32 31 29 27 24 23 23 22 20 18 16 14 16 18 20
9 6 11 2 6 8 10 10 12 15 12 14 19 16 20 18 17 21 28 31 29 29 26 28 30 27 28 28 31 29 27 25 25 26 25 23 22 21 20 19 18 17 15 16
3 6 2 5 6 8 6 4 12 9 17 13 16 21 23 29 29 30 26 27 28 23 24 28 29 27 28 29 30 30 29 27 26 25 24 24 24 23 21 19 18 18 19 19
2 5 5 5 5 9 10 9 12 13 15 16 18 28 30 30 30 28 29 31 32 30 29 29 28 27 27 26 28 25 26 27 26 26 25 25 24 23 21 20 18 16 15 14
2 3 0 9 11 14 13 15 13 15 15 23 26 29 28 26 19 25 27 30 34 33 31 27 27 27 27 26 25 26 26 25 25 25 23 22 21 19 18 16 15 14 13 13
7 8 11 14 13 15 15 16 19 25 24 25 27 26 29 29 27 27 27 29 28 27 22 25 27 28 27 24 25 24 24 24 24 22 21 20 20 18 17 16 14 13 12 13
13 12 15 16 21 20 17 24 29 27 26 30 31 30 29 28 28 29 29 28 23 21 21 22 26 26 24 23 23 23 23 22 22 21 20 19 17 17 16 15 14 13 13 12
13 14 14 17 16 24 24 25 32 27 26 29 32 28 28 28 26 24 26 23 20 23 24 23 23 23 22 21 21 21 21 22 21 19 17 17 16 15 14 12 12 12 13 14
11 13 15 20 20 23 26 27 28 33 30 32 32 31 31 29 29 30 26 25 21 23 24 23 22 20 20 20 21 21 21 20 18 17 16 14 13 12 12 13 14 15 16 16
11 16 23 24 22 27 31 31 28 28 29 29 28 27 26 23 21 22 19 19 25 24 25 23 20 18 18 19 19 19 19 17 16 13 12 11 12 13 14 15 15 15 15 16
18 23 25 30 32 31 20 27 30 31 32 30 28 25 26 27 27 26 28 26 24 24 23 19 17 16 17 18 18 17 15 13 11 11 12 12 12 13 14 15 16 15 16 18
22 24 24 25 23 21 29 29 31 30 29 28 27 24 22 20 26 26 27 24 21 21 20 16 16 16 16 16 14 13 13 13 13 12 12 12 14 15 15 16 16 17 17 18
20 19 21 23 22 23 23 23 23 21 23 24 24 25 27 28 28 27 24 22 19 18 18 15 14 14 13 12 11 11 11 11 11 11 11 14 15 15 16 16 16 17 18 20
23 23 23 24 22 22 23 22 24 21 21 24 25 25 27 26 25 24 21 19 17 16 15 14 13 11 10 8 9 10 10 9 8 10 13 15 15 16 17 17 17 18 19 20

GFSNGP_925_spd_093.txt.gz
Wind_Speed
13 13 18 15 17 21 20 19 13 10 16 16 15 13 13 11 7 5 7 9 11 11 14 14 21 24 25 26 28 29 30 31 33 27 26 25 27 27 26 25 27 27 29 31
10 14 17 17 22 22 24 21 22 21 20 10 14 7 10 11 8 9 9 9 9 11 13 15 21 24 22 22 23 25 27 28 25 24 22 22 23 23 23 23 23 24 29 31
4 8 11 12 11 15 15 19 18 16 14 6 7 8 10 10 8 11 12 12 11 11 10 7 13 13 14 18 20 22 22 21 19 19 20 19 18 17 18 19 21 25 28 27
5 6 8 4 6 9 13 20 19 17 8 9 9 8 8 9 11 12 12 14 11 4 5 8 6 8 9 9 11 13 12 12 13 14 14 14 13 14 15 15 13 10 8 7
4 6 11 12 2 3 6 23 16 18 15 13 11 2 11 9 7 13 8 1 3 9 13 15 14 16 17 16 14 14 12 9 6 7 8 8 8 7 6 6 7 8 8 7
4 5 6 1 4 3 5 12 14 8 10 14 11 10 11 4 4 8 5 10 12 16 17 21 18 21 22 21 21 19 18 15 12 11 12 14 13 13 13 14 15 15 17 16
11 8 7 8 1 2 3 5 18 11 14 12 8 7 3 8 11 14 11 14 18 20 18 18 22 25 24 24 22 23 25 23 21 19 18 16 16 15 15 17 19 21 23 22
8 6 10 2 2 3 5 13 14 12 10 12 5 5 11 12 17 15 12 12 14 18 21 24 26 28 25 24 23 27 28 28 25 22 20 19 20 19 19 20 24 24 25 26
6 5 9 13 8 10 10 8 13 5 4 8 8 5 15 14 15 14 13 14 15 21 26 25 22 22 27 22 28 29 30 28 27 27 27 25 25 24 24 22 23 21 20 20
2 2 10 15 17 10 11 13 7 5 6 7 10 10 16 16 14 13 12 14 19 24 25 26 28 24 25 23 29 29 28 25 26 29 29 30 30 27 25 21 19 17 16 15
6 9 7 5 7 12 17 10 5 5 4 12 12 14 15 13 15 12 14 16 20 21 26 25 27 30 21 19 28 32 29 27 26 28 30 32 33 27 29 26 21 17 14 12
7 9 8 12 9 13 11 8 7 4 7 9 18 16 15 13 13 14 17 20 21 22 26 28 37 29 20 21 25 30 28 24 22 23 23 22 24 28 29 27 24 22 20 16
15 13 7 9 10 3 1 3 2 12 13 14 13 15 17 13 16 22 23 23 22 25 28 33 35 29 21 26 30 28 27 23 23 22 21 19 17 16 20 24 30 30 27 25
12 6 9 5 7 3 5 8 7 11 16 17 16 20 23 15 18 19 20 25 26 34 31 32 34 29 25 28 33 32 27 24 23 20 19 18 18 17 15 14 15 16 22 21
16 9 12 8 2 5 7 7 4 11 11 16 20 17 22 15 15 19 23 28 31 33 32 32 31 29 27 28 30 27 25 23 21 21 21 20 18 18 17 16 15 13 12 15
3 4 5 8 7 6 6 9 7 10 12 16 15 19 27 26 26 26 25 25 31 26 26 31 30 27 27 29 29 28 26 24 21 20 19 19 18 17 15 15 14 13 13 13
4 5 2 4 6 6 7 10 9 9 14 17 19 26 28 28 29 29 29 31 35 32 29 30 27 24 22 22 24 22 22 21 20 20 19 18 16 16 15 14 13 13 13 14
2 4 6 5 9 11 12 13 11 14 16 26 28 27 26 25 19 25 28 31 36 35 29 25 24 23 22 21 21 20 20 20 20 20 17 16 16 15 15 14 13 12 11 11
5 5 7 10 10 13 14 15 15 20 25 28 29 27 29 28 27 28 28 31 28 27 22 22 23 24 23 22 22 21 20 20 19 18 17 17 17 16 15 14 13 11 10 10
8 10 14 15 18 19 16 22 21 23 24 32 32 31 27 26 26 29 30 28 24 22 20 21 22 23 23 23 22 20 19 19 19 18 17 16 15 14 13 12 10 10 10 10
9 11 14 15 15 22 23 24 26 26 26 29 31 30 27 29 26 26 26 24 20 20 21 21 20 19 20 21 22 22 21 20 19 16 15 13 12 12 11 10 10 9 9 9
8 11 12 17 18 22 23 26 29 30 31 32 31 30 30 28 28 28 25 24 18 20 20 21 22 22 22 22 22 21 19 18 15 14 12 11 11 11 10 9 8 8 9 10
11 16 18 19 20 25 29 30 30 32 31 28 28 27 25 23 21 22 19 17 21 24 24 24 22 22 22 23 22 20 18 16 15 14 13 13 11 9 7 8 8 10 11 11
18 20 22 25 28 26 19 26 30 31 31 28 30 26 25 25 25 22 27 27 26 25 24 22 21 20 21 20 18 17 16 15 14 13 11 9 9 9 9 10 10 10 10 12
21 23 25 24 22 18 26 29 31 29 31 30 27 24 22 19 23 22 25 25 24 24 23 19 19 18 18 17 16 15 14 13 11 9 8 8 9 9 9 10 10 11 12 13
19 19 20 22 22 20 21 22 23 21 24 24 23 24 26 25 26 26 24 24 23 21 20 17 16 15 14 14 13 12 10 9 7 7 8 8 9 9 10 11 12 13 15 16
23 24 24 23 21 21 21 22 23 21 20 23 25 21 22 23 24 25 23 21 19 18 17 15 13 11 11 10 8 7 6 5 5 7 8 9 9 10 11 13 14 15 16 17

GFSNGP_925_spd_096.txt.gz
Wind_Speed
14 19 18 17 18 17 16 14 14 15 19 13 14 19 18 15 12 8 9 8 10 12 14 15 20 23 25 25 27 28 29 28 27 25 24 24 24 24 24 25 27 27 26 26
14 16 18 20 21 21 21 19 21 22 27 20 20 18 21 19 20 18 12 12 10 12 13 14 18 20 22 22 23 24 25 24 22 22 22 22 22 22 23 25 24 23 23 23
11 5 12 15 22 22 22 20 17 19 20 18 20 22 21 16 15 15 14 13 11 11 11 11 16 17 19 20 20 21 20 19 18 19 19 19 19 20 21 20 19 20 21 20
6 9 9 7 3 14 18 15 10 14 18 21 17 19 20 17 13 10 10 11 12 10 6 11 12 16 16 17 19 19 17 15 14 13 13 12 13 12 11 9 8 7 7 5
4 9 16 18 8 10 12 10 5 11 11 14 20 18 20 15 11 8 6 6 5 5 5 13 13 14 14 15 14 14 14 12 10 9 10 11 11 11 12 14 15 16 16 15
8 7 5 4 12 5 8 13 8 10 13 14 13 14 14 8 3 6 7 5 4 8 12 14 16 19 25 20 21 21 21 21 22 21 22 22 19 19 20 22 24 23 25 25
13 11 8 15 13 11 8 6 16 17 17 17 13 13 1 6 6 7 13 13 13 15 17 19 21 26 25 25 24 25 30 32 31 30 29 27 26 25 26 27 28 29 31 30
6 7 13 6 5 6 11 18 18 16 18 19 15 3 5 8 9 10 12 17 17 18 19 22 24 26 27 25 24 29 29 33 33 32 29 29 30 27 26 28 30 26 27 25
7 5 11 10 4 14 17 18 18 8 21 17 6 4 7 8 10 11 13 18 20 22 23 24 24 26 26 24 29 31 34 30 32 33 32 28 28 25 24 23 22 19 20 19
5 7 13 1 13 17 14 16 14 15 17 8 6 7 8 6 9 13 13 16 20 25 22 23 25 25 27 25 29 32 33 28 28 30 31 29 28 26 25 20 19 17 16 15
9 11 11 11 10 13 16 13 10 12 12 5 9 12 12 7 6 11 16 16 21 21 23 25 22 23 24 25 30 36 31 29 28 29 32 34 33 27 28 26 18 17 17 17
11 12 12 12 14 15 17 14 12 9 1 6 6 10 14 13 10 9 16 21 21 24 25 24 26 25 24 24 29 33 30 24 23 24 25 26 29 35 34 32 31 28 25 20
14 15 13 13 12 16 10 9 7 8 7 7 10 10 11 11 18 17 17 21 22 23 26 26 27 26 24 25 27 33 33 23 23 22 21 20 20 21 23 25 29 26 24 23
19 18 16 17 12 7 4 4 8 11 10 8 9 18 14 13 20 26 16 19 21 27 26 27 28 27 26 28 34 35 29 25 23 21 20 18 17 16 14 13 13 14 19 19
21 16 15 14 12 6 3 7 7 8 10 10 12 13 16 15 17 22 23 24 28 30 25 26 30 28 28 28 30 28 26 23 21 22 21 18 18 16 15 14 12 11 9 12
16 7 8 10 8 3 3 5 8 9 10 11 10 16 23 23 25 25 22 21 24 23 23 25 28 24 27 30 30 28 26 23 21 21 19 17 16 15 14 13 12 11 11 12
13 13 10 5 3 5 6 6 8 11 12 14 16 19 26 27 27 27 27 26 27 28 28 25 25 22 23 24 25 23 22 22 20 19 18 17 15 15 13 12 10 10 10 10
7 6 7 6 5 7 9 10 10 13 13 22 22 22 19 23 19 25 25 27 31 31 27 23 22 23 23 22 22 20 20 19 19 19 17 16 15 14 13 12 11 9 7 7
5 5 3 2 7 10 11 12 15 18 22 25 25 22 23 25 26 27 27 28 25 24 21 21 22 23 24 21 20 19 20 19 18 18 17 16 15 14 12 11 9 7 6 6
3 4 5 7 10 14 14 21 23 20 23 28 31 27 22 22 24 27 27 26 21 21 20 20 22 24 22 20 19 19 19 18 18 17 15 15 14 12 10 9 8 7 7 7
6 7 9 10 12 17 19 23 25 24 23 26 30 28 26 22 25 24 25 22 19 19 20 20 20 20 18 18 18 18 18 17 16 15 14 13 11 10 9 8 7 7 7 7
8 8 9 14 16 18 18 22 26 28 27 29 30 31 28 25 24 25 22 23 18 16 18 19 18 18 18 18 17 17 16 16 15 14 12 11 10 8 7 7 7 6 6 6
12 14 16 16 18 22 26 25 26 29 29 27 28 26 24 22 20 19 18 16 18 18 20 19 21 20 18 16 16 16 16 15 14 12 11 9 7 7 6 5 4 5 5 6
17 20 22 24 26 26 17 23 26 28 31 30 28 24 23 23 23 19 22 21 20 19 19 18 19 18 16 15 15 14 14 13 11 9 8 7 6 5 4 4 4 5 6 8
19 22 24 23 22 19 27 28 29 29 29 29 26 23 21 17 19 19 21 20 19 19 19 18 18 16 14 13 13 12 11 10 8 7 5 4 4 4 4 5 6 7 7 8
18 18 20 21 21 21 21 23 22 22 23 24 23 22 22 21 20 20 19 17 16 16 15 12 12 13 12 11 10 10 8 7 5 4 4 4 4 4 5 7 7 8 8 9
21 21 21 21 21 20 20 21 23 21 21 22 24 20 19 18 18 18 16 15 13 13 12 11 10 10 8 8 7 6 5 4 4 3 3 4 5 5 6 7 8 9 9 10

GFSNGP_925_spd_099.txt.gz
Wind_Speed
17 23 17 15 17 15 16 16 15 15 16 15 14 12 14 17 15 17 8 6 9 12 14 16 20 24 25 26 26 27 26 26 26 25 24 23 23 23 23 25 25 24 23 24
19 19 20 22 23 22 22 20 20 19 21 17 19 20 24 19 17 16 17 13 9 12 14 15 16 21 23 25 27 27 27 27 25 24 23 23 23 22 21 21 21 20 20 20
14 16 20 20 23 24 25 23 20 20 19 16 16 19 21 25 22 20 16 15 13 11 12 12 17 19 21 22 24 25 25 24 24 23 22 21 20 20 20 20 18 10 7 6
7 9 12 14 14 12 14 17 20 22 22 15 19 21 23 21 21 22 17 12 8 7 3 8 15 17 17 19 21 21 21 21 21 20 20 19 16 14 13 12 12 13 13 13
7 9 15 17 12 13 10 11 8 8 7 13 18 16 21 18 20 21 5 6 5 6 2 7 9 17 20 19 19 18 18 18 18 17 16 20 22 22 22 24 24 24 23 22
6 9 10 8 10 12 15 10 14 14 11 13 13 10 9 14 10 4 5 3 1 3 8 8 8 11 17 14 18 18 20 18 19 23 24 27 26 27 27 29 32 30 33 32
13 9 8 14 16 12 9 4 16 17 15 12 11 10 23 10 10 8 5 6 7 7 13 15 16 20 23 24 22 23 31 29 27 29 32 31 32 31 33 34 35 33 33 32
10 5 9 4 8 5 8 12 15 19 18 12 10 17 9 9 6 3 5 7 9 12 16 20 21 25 23 25 23 30 38 34 29 30 31 33 35 32 31 32 31 27 27 26
7 4 2 9 5 4 8 13 19 18 22 5 13 16 4 3 5 6 9 11 15 18 20 24 23 24 27 24 25 31 43 35 27 30 31 32 30 27 26 24 23 21 21 19
6 6 6 9 4 3 7 17 20 19 19 7 12 8 6 7 6 6 7 10 16 20 20 22 26 25 28 28 28 34 38 33 25 31 30 31 31 25 23 20 19 18 20 19
9 8 10 4 4 6 15 16 17 11 18 15 13 8 6 8 9 8 9 11 16 19 19 23 27 29 25 29 30 34 38 31 26 30 31 32 34 29 30 28 22 23 22 20
7 9 8 11 11 10 13 15 10 10 8 6 5 6 7 8 8 9 12 9 15 21 22 25 25 27 25 26 28 32 32 27 25 25 28 30 33 36 35 33 33 32 27 24
10 13 11 13 12 14 15 10 8 6 5 7 10 10 11 9 13 17 18 17 15 19 23 24 26 26 24 25 28 30 29 28 25 23 24 24 24 24 27 29 30 27 25 24
17 16 18 15 11 10 10 5 5 8 10 9 11 15 16 11 13 17 19 24 25 21 25 26 27 27 27 31 32 31 30 27 24 23 23 22 19 18 16 16 16 16 20 19
15 13 13 11 7 10 3 4 3 6 8 9 14 16 18 13 12 16 20 28 34 28 26 27 27 27 29 30 32 29 25 25 25 26 25 22 19 17 16 15 14 13 12 14
12 13 14 12 9 8 1 4 4 6 8 8 12 17 21 22 21 19 22 23 24 21 22 27 29 29 30 27 29 28 27 26 25 23 21 19 18 16 16 14 13 13 13 11
14 14 13 13 4 3 2 0 3 7 10 10 13 19 25 25 23 22 24 26 28 28 25 26 24 23 22 21 24 25 25 24 23 20 19 17 17 16 15 14 13 13 12 10
9 11 13 10 10 4 3 6 9 10 11 18 18 18 17 23 16 20 23 28 29 30 28 25 23 23 20 20 22 22 22 21 20 19 18 18 18 16 15 14 12 11 10 9
8 9 10 8 9 1 7 9 12 17 19 21 22 18 20 23 24 22 21 24 25 25 20 20 21 21 21 21 21 22 22 21 20 19 19 17 17 16 14 12 11 10 9 8
7 7 7 8 10 7 11 15 18 20 20 25 28 25 22 22 24 26 28 28 23 22 19 19 20 22 22 20 20 21 21 20 19 17 17 16 15 14 12 12 10 9 7 7
6 6 8 8 10 15 14 15 18 19 23 24 28 25 24 26 26 26 26 22 20 18 18 18 19 18 18 19 19 19 19 19 17 16 15 14 13 12 10 9 8 7 6 7
5 6 8 12 13 15 16 18 21 23 23 28 27 27 27 26 27 28 25 23 18 16 17 18 18 19 19 18 18 18 17 17 16 15 14 12 11 10 8 7 7 6 6 6
9 11 13 15 16 20 23 23 24 26 25 25 25 23 23 21 19 21 18 17 19 20 20 20 18 18 18 18 17 16 14 14 14 13 12 11 9 8 6 5 5 6 6 6
12 13 15 19 22 22 15 22 26 28 29 26 27 23 22 24 24 23 23 22 22 21 21 18 18 17 16 15 14 14 13 12 12 11 10 9 8 6 5 5 5 6 6 7
14 16 17 19 18 18 24 26 28 28 29 25 24 21 20 17 21 21 21 21 20 21 20 18 17 15 14 12 11 12 10 10 10 9 8 6 6 5 5 6 6 6 7 8
12 13 15 16 18 19 20 20 20 21 23 22 22 21 21 22 23 22 20 20 18 18 16 13 12 12 12 11 10 9 9 9 7 7 6 5 4 4 5 5 6 7 7 8
17 16 18 18 17 18 18 19 21 20 20 21 23 20 19 19 19 19 17 17 16 15 12 11 11 11 9 8 7 8 7 5 6 5 4 3 4 4 5 5 6 7 8 9

GFSNGP_925_spd_102.txt.gz
Wind_Speed
23 26 18 18 15 18 20 16 9 13 15 13 8 7 14 15 13 12 11 9 7 10 10 14 17 22 23 26 25 25 25 27 28 29 28 27 28 28 29 27 28 26 25 26
23 23 24 22 22 18 22 22 19 17 17 14 13 13 13 12 12 14 14 16 15 5 12 12 16 22 24 25 28 25 23 23 22 26 27 26 26 27 25 25 23 20 22 19
18 20 23 22 20 20 21 21 18 17 15 16 18 15 13 12 13 14 12 17 19 6 6 11 17 24 24 25 28 28 24 23 23 24 23 24 22 21 21 19 16 14 12 11
7 12 14 17 16 19 19 18 18 18 18 20 18 16 12 16 14 17 13 14 12 5 5 11 19 22 23 26 27 27 24 23 23 23 22 23 22 23 22 22 21 21 20 21
5 8 14 14 8 7 6 2 16 15 17 18 14 12 7 18 21 20 17 2 6 8 14 9 5 21 19 20 22 22 20 20 23 22 25 28 29 28 28 31 29 28 27 27
6 10 12 10 7 8 7 7 12 11 12 17 12 7 7 20 17 16 18 17 12 9 15 18 23 8 16 13 18 20 22 25 30 30 31 32 31 31 31 36 37 36 36 34
12 7 7 13 9 6 6 3 13 12 11 14 15 10 13 17 12 12 12 13 17 21 18 19 19 23 24 20 24 24 25 30 34 36 36 33 35 33 35 37 39 38 38 35
8 7 11 5 10 5 4 6 7 11 13 16 13 13 13 12 9 9 10 13 18 14 17 16 14 21 23 24 21 31 31 33 32 33 37 39 38 35 35 32 33 31 31 30
6 4 3 8 5 4 2 6 8 10 15 14 14 14 12 5 7 8 8 9 12 14 16 17 15 18 25 22 29 32 35 35 35 36 32 34 41 29 29 27 24 23 24 24
9 15 4 8 6 4 5 7 10 12 13 13 14 7 7 4 4 5 6 7 9 12 15 17 19 22 27 27 30 35 39 35 34 35 31 28 36 27 25 23 21 22 23 22
5 11 9 7 11 9 4 6 12 12 9 8 12 9 9 8 7 6 7 10 11 13 15 19 23 24 25 29 33 36 36 33 33 34 37 34 39 35 36 30 24 24 24 25
5 5 4 9 10 8 5 9 8 7 8 11 12 9 9 9 8 8 10 13 13 16 18 20 24 24 23 25 30 35 33 30 30 27 32 32 35 44 39 36 31 29 28 28
7 11 10 10 13 12 10 11 9 11 12 9 10 9 10 11 12 18 18 21 21 18 20 23 21 23 23 25 28 33 34 31 30 29 28 27 31 31 31 30 29 28 27 27
14 13 12 13 12 9 8 14 15 15 13 11 10 13 13 12 15 17 19 22 26 27 25 31 33 31 31 34 34 34 33 32 28 26 26 26 25 22 21 21 20 22 23 24
9 10 8 7 12 8 7 8 10 11 9 8 12 11 13 13 11 16 17 23 29 29 28 31 34 33 34 34 35 34 33 29 29 28 27 26 24 23 21 21 20 19 18 19
14 10 11 13 17 11 6 6 12 10 10 9 10 14 17 17 21 23 22 21 23 22 24 28 30 28 33 34 33 32 30 28 27 26 25 24 22 22 22 22 21 19 17 16
11 10 11 12 14 9 9 7 10 11 12 11 13 16 20 19 20 24 28 26 27 26 26 27 27 29 30 28 26 25 25 25 25 24 23 22 22 22 22 21 21 18 17 19
10 10 10 10 11 11 7 11 12 12 10 16 18 17 16 17 14 19 27 29 31 31 28 28 29 29 27 23 23 22 22 24 24 24 23 24 22 21 20 20 18 16 15 16
11 11 10 10 11 10 12 13 15 17 18 19 20 18 20 20 21 21 22 27 26 24 21 24 25 26 25 23 23 24 25 25 25 24 23 23 22 20 19 18 17 16 14 13
11 12 12 12 16 14 12 17 19 18 18 23 25 24 21 22 25 26 26 27 24 22 21 22 23 24 24 23 23 24 24 24 22 22 22 22 21 20 19 17 16 14 13 13
9 9 10 10 11 14 16 18 20 19 19 20 23 23 25 24 25 25 22 21 20 21 21 20 21 22 22 23 23 23 23 22 21 20 20 19 19 17 17 15 14 13 11 10
8 7 9 11 11 14 16 18 22 23 24 24 25 25 26 23 25 27 24 21 18 18 20 20 21 23 24 23 22 21 21 20 19 19 18 18 17 16 15 14 11 9 8 7
10 11 12 12 14 16 19 20 21 23 24 25 24 23 23 19 18 19 17 17 19 20 21 22 24 25 25 25 23 21 21 20 19 18 18 17 15 14 11 9 8 7 6 6
9 11 13 14 16 17 13 18 22 24 26 27 26 24 24 24 26 23 24 25 22 22 22 21 21 22 23 22 20 20 19 18 17 16 15 13 12 10 8 7 7 6 4 4
11 12 13 14 15 14 19 21 23 24 26 25 25 23 20 16 20 22 24 23 22 22 22 20 20 21 20 18 17 18 16 16 13 12 11 10 9 7 6 5 5 5 4 4
9 10 12 14 14 15 15 16 17 17 20 21 22 23 25 24 25 23 22 20 19 18 18 17 17 18 18 16 16 16 14 10 9 11 9 7 6 4 3 4 3 2 4 4
14 14 14 14 15 15 16 17 18 18 18 20 23 21 21 22 21 20 20 21 20 19 16 15 15 15 14 13 12 10 8 8 8 7 5 4 3 3 2 1 3 3 5 6

GFSNGP_925_spd_105.txt.gz
Wind_Speed
15 18 19 19 22 18 14 5 5 8 12 14 7 5 7 16 19 11 7 7 6 9 7 17 19 27 30 31 29 33 30 30 30 29 29 30 30 28 28 31 29 30 30 29
14 16 21 21 23 20 17 15 9 14 16 12 7 8 10 11 10 7 9 9 7 3 5 9 19 27 31 32 33 34 31 30 29 30 32 29 31 31 26 27 27 28 26 23
17 14 19 18 12 15 18 15 10 13 16 13 12 10 11 11 12 15 16 19 17 5 5 3 23 32 30 34 33 31 30 29 28 31 29 29 30 30 28 25 22 21 19 17
7 5 13 13 13 17 16 16 10 9 10 13 13 8 14 15 13 14 15 17 20 17 16 7 32 22 29 33 34 30 28 29 30 32 29 28 26 24 24 25 24 24 22 22
5 5 10 14 4 8 4 6 11 8 11 13 19 6 9 15 11 11 12 12 12 21 24 26 17 31 10 24 29 26 25 27 28 29 28 30 30 29 28 31 30 29 28 27
3 4 5 3 8 12 6 2 8 9 11 13 14 9 7 11 11 11 12 15 15 21 23 27 31 7 21 17 18 18 19 20 27 31 33 33 35 35 35 37 38 36 37 35
7 4 7 9 6 5 2 2 3 4 5 7 6 5 13 8 8 8 9 14 19 20 19 21 22 18 25 24 23 21 23 27 31 33 37 38 38 37 41 42 42 39 40 37
4 2 8 7 4 1 3 3 3 2 4 5 6 11 8 6 7 8 8 11 15 13 15 17 16 18 20 23 24 28 29 32 31 31 32 36 39 37 40 41 39 36 35 33
7 6 2 3 2 1 4 1 2 4 7 4 5 7 7 5 8 8 7 11 12 10 11 15 14 17 22 19 25 31 34 32 33 34 34 34 37 34 30 32 31 28 28 25
4 5 6 7 9 3 2 2 4 6 3 5 6 7 6 6 6 5 9 10 9 10 11 13 15 20 23 24 27 32 34 33 32 35 35 34 33 30 28 26 25 25 24 28
4 0 1 6 4 6 7 8 5 6 8 9 8 8 7 7 8 9 10 12 11 12 14 15 17 20 21 24 29 31 33 31 33 33 35 39 38 30 36 31 27 27 26 24
2 5 4 12 13 10 10 3 6 9 9 13 10 8 8 8 9 11 12 16 15 14 17 17 21 22 22 22 26 28 31 29 30 32 37 37 43 43 39 39 36 35 32 32
3 5 13 8 6 8 11 12 12 12 10 10 11 10 9 7 12 14 16 19 19 21 24 24 24 25 26 29 31 29 29 29 30 30 32 32 33 37 34 35 34 34 34 28
12 10 5 4 4 6 12 14 16 16 15 13 12 12 11 11 13 15 15 18 22 27 27 29 31 30 31 35 35 34 35 33 28 27 32 30 29 28 28 28 28 28 27 26
8 8 5 8 12 9 12 12 12 11 10 11 13 12 11 10 9 13 15 16 23 27 26 31 29 25 25 35 39 31 29 28 26 25 27 30 29 29 28 26 25 24 22 23
9 9 9 9 9 10 12 10 11 10 10 11 10 13 15 16 18 19 18 16 22 19 22 28 30 26 27 35 37 37 33 32 31 29 28 30 28 26 25 24 24 24 23 20
12 12 10 11 9 10 8 7 9 9 10 11 14 17 17 18 21 21 22 23 27 28 27 28 27 28 28 31 32 31 29 27 29 29 28 26 25 24 24 25 23 23 25 20
12 11 11 10 8 6 8 10 9 12 11 17 20 18 16 17 13 17 19 26 28 29 27 27 27 28 29 28 28 27 28 29 28 27 28 27 24 24 25 24 23 23 22 19
13 11 11 12 10 9 9 10 13 17 18 19 20 18 19 21 21 20 23 24 23 23 21 25 26 27 28 28 29 29 29 28 27 27 27 27 26 26 25 24 23 22 20 18
11 12 11 11 13 10 10 12 15 18 19 23 24 22 20 20 23 24 25 24 20 19 20 22 26 27 27 26 27 29 29 29 29 30 30 29 29 27 25 23 22 20 18 16
10 10 10 10 11 13 13 13 14 16 17 20 23 22 23 23 23 23 22 18 17 18 18 18 20 23 26 26 27 29 30 29 27 25 26 25 25 24 22 20 18 17 16 13
8 6 8 10 11 13 14 16 19 19 20 21 23 25 26 24 24 26 22 20 21 21 23 22 23 24 25 26 27 26 25 26 25 24 25 24 24 22 19 17 15 13 12 10
9 10 12 12 11 13 18 18 19 21 20 21 22 22 22 20 19 19 16 19 24 23 23 26 23 24 26 28 27 27 26 26 25 24 22 20 19 19 18 15 11 9 9 8
10 11 11 13 14 15 13 17 21 23 24 24 24 23 24 24 25 23 25 25 25 25 23 23 23 23 23 25 24 24 22 22 21 20 19 17 15 14 13 10 9 7 7 6
11 12 14 13 13 13 18 20 22 23 24 24 23 21 21 19 22 23 25 25 26 26 25 22 22 22 22 22 23 23 21 20 18 17 16 14 13 11 9 7 9 8 4 1
8 10 12 12 13 13 14 16 16 17 20 21 21 22 24 24 25 25 25 24 23 23 22 20 20 21 21 21 21 19 18 16 15 13 12 10 8 7 6 5 3 1 2 3
13 13 12 14 16 17 17 17 18 16 17 20 22 21 22 21 21 23 23 22 21 21 21 20 18 18 17 16 15 14 14 12 11 10 9 7 4 3 1 0 1 1 3 3

GFSNGP_925_spd_108.txt.gz
Wind_Speed
6 6 6 11 15 14 13 12 7 9 15 16 11 6 5 6 13 17 14 8 13 3 4 10 10 12 17 26 29 30 29 27 25 27 28 28 28 27 26 28 28 27 28 28
5 5 10 16 16 14 18 17 16 17 18 9 10 11 6 2 3 10 9 13 15 12 5 9 13 16 15 17 28 32 29 28 26 26 28 29 27 29 28 25 23 25 24 23
9 6 9 12 15 14 17 16 11 15 10 3 5 6 9 7 7 8 10 12 14 13 10 14 12 27 24 18 18 27 28 29 28 29 27 29 28 26 25 26 24 23 21 21
3 2 10 7 6 13 17 15 9 3 4 5 5 8 10 6 7 8 11 12 11 11 11 16 16 15 23 23 21 20 24 28 28 28 26 28 26 26 25 27 26 25 22 20
2 4 12 17 9 3 5 6 7 4 3 5 8 10 4 6 7 8 9 9 8 11 16 19 20 6 27 26 20 15 16 19 27 28 26 28 27 27 28 30 28 27 25 25
2 3 5 4 5 4 11 3 2 2 2 3 6 3 3 2 5 7 8 12 11 13 15 21 24 18 10 5 19 16 16 14 21 28 31 30 30 30 29 32 34 33 32 28
8 3 7 10 9 12 3 2 3 3 3 3 1 2 6 3 5 7 6 11 13 14 15 18 20 17 21 20 19 16 19 23 24 28 34 35 36 36 38 38 39 36 35 33
5 4 9 4 7 2 3 2 2 1 3 5 4 5 5 6 8 9 10 12 14 11 15 16 15 16 19 20 17 19 23 29 27 28 30 33 36 36 36 37 36 32 34 33
6 5 3 4 3 3 4 2 2 2 4 3 5 7 7 5 7 9 10 12 13 12 15 17 17 15 19 16 21 22 27 28 29 31 30 30 35 31 29 30 33 30 29 29
1 4 6 6 5 1 5 4 3 3 3 1 4 5 6 6 8 7 9 9 10 12 14 15 18 21 20 19 24 29 29 28 29 31 31 30 29 25 25 25 28 29 24 25
3 4 8 8 6 13 9 7 2 8 7 7 4 8 7 7 8 7 8 11 11 12 14 16 19 20 21 22 25 27 27 27 28 29 31 34 33 29 32 29 31 29 32 23
3 9 5 11 7 12 11 3 6 8 8 10 7 9 7 7 7 8 9 11 11 14 17 15 21 22 23 24 26 27 27 26 27 31 32 35 39 40 39 38 35 33 36 36
3 7 11 12 7 4 10 11 10 11 9 8 9 9 9 6 11 14 12 14 14 18 20 20 23 24 25 28 29 29 29 29 30 32 31 33 35 35 35 36 36 31 30 30
9 2 5 12 4 11 14 12 15 14 13 11 10 12 12 10 14 17 13 12 15 19 20 21 23 23 26 32 36 36 34 30 30 29 31 31 30 30 30 29 30 28 26 29
8 8 7 7 7 9 11 7 9 8 7 8 12 12 12 9 10 14 16 16 19 22 21 21 23 22 25 28 33 33 33 30 29 29 29 30 30 29 27 26 27 27 28 28
9 12 11 11 9 6 6 6 7 6 6 8 9 12 15 16 17 18 19 19 18 17 19 23 26 26 30 31 33 33 33 31 29 29 27 26 25 25 25 22 20 20 21 22
9 12 13 11 10 6 7 6 6 6 6 8 12 13 15 16 18 19 20 22 24 24 23 26 26 28 30 29 29 31 31 29 28 27 24 24 24 23 23 22 18 19 20 20
10 9 10 9 8 5 7 8 8 8 7 12 14 15 14 15 11 15 18 22 26 28 26 24 25 27 28 29 30 29 28 26 26 26 26 26 25 23 22 21 18 21 24 22
13 11 11 10 10 4 5 6 8 10 12 14 16 14 16 17 18 19 22 23 21 21 19 22 24 26 27 26 28 27 27 28 28 26 27 27 25 23 22 21 22 23 23 22
11 13 12 10 11 8 6 7 9 10 12 18 19 18 17 16 19 21 23 22 17 17 20 22 24 24 23 22 25 27 26 26 27 26 26 27 27 26 25 24 23 23 22 19
7 9 10 10 9 10 9 8 11 11 12 17 19 17 18 18 19 20 20 17 17 19 20 20 22 22 22 23 25 26 26 26 25 24 24 26 27 26 24 23 22 20 19 17
5 5 8 9 9 10 11 12 15 16 16 17 20 21 22 20 22 23 19 18 20 21 21 20 21 22 25 26 26 26 26 25 26 26 26 26 26 25 23 20 19 17 15 12
7 10 11 10 10 10 15 16 16 17 17 17 18 19 19 16 15 16 13 17 21 22 22 21 21 23 25 26 26 25 25 25 24 23 23 22 21 20 19 17 14 13 12 9
9 10 10 11 13 14 11 15 20 21 22 23 22 21 22 21 20 19 21 22 22 22 21 20 19 20 22 23 24 23 23 23 22 21 20 19 18 16 15 13 12 10 8 7
9 10 11 12 11 10 14 15 18 19 21 21 21 19 20 19 19 20 23 23 22 21 20 18 18 18 20 21 21 21 20 20 19 19 18 16 15 13 10 8 9 8 6 3
6 7 9 9 10 10 11 12 13 13 16 17 18 19 22 24 24 24 22 21 21 20 20 18 17 18 19 19 19 19 19 17 16 14 13 12 10 8 8 8 6 3 1 1
11 11 11 11 11 13 13 13 14 13 15 17 19 18 19 22 22 22 20 19 18 18 17 17 16 16 17 17 16 15 15 14 12 11 10 9 7 5 3 2 2 2 1 2

GFSNGP_925_spd_111.txt.gz
Wind_Speed
3 5 3 4 7 3 6 9 6 12 15 17 19 9 7 6 2 9 16 16 15 13 6 5 11 16 18 19 19 19 19 23 22 24 26 24 20 19 19 20 22 24 24 25
4 4 4 8 10 11 11 13 13 17 20 17 14 7 9 3 4 9 12 15 14 12 10 8 8 10 17 21 25 22 19 17 17 21 27 26 23 22 22 20 18 19 19 20
4 1 5 9 10 10 7 10 8 14 16 6 6 9 3 8 4 5 6 11 14 13 14 14 16 13 15 20 21 27 23 18 16 19 22 25 25 23 22 23 21 20 19 20
3 1 7 5 8 9 12 15 15 16 12 3 2 2 7 7 4 6 5 10 12 10 11 20 20 13 13 20 23 23 20 22 19 21 19 21 22 23 23 22 22 21 19 18
2 5 10 13 8 2 6 11 12 8 5 1 2 5 2 4 4 5 6 7 9 12 13 18 19 16 10 22 23 20 23 20 21 24 22 22 22 23 23 24 22 21 20 21
3 4 5 4 4 4 3 10 3 1 1 0 3 3 2 5 7 7 7 9 12 15 13 14 21 17 14 9 16 15 24 28 25 25 27 26 26 25 25 26 26 25 23 21
9 3 7 8 7 5 1 5 9 2 1 2 2 2 3 7 6 6 7 9 13 14 13 15 17 13 15 15 15 13 19 28 27 26 29 30 30 30 30 31 31 31 31 28
3 3 7 2 5 1 2 11 5 0 1 2 3 2 5 4 5 6 7 10 11 10 13 16 16 12 14 16 14 15 22 24 27 25 26 27 31 30 30 33 35 32 33 33
5 4 3 4 4 6 5 5 4 1 1 3 5 1 4 4 5 6 7 8 9 10 11 15 18 15 15 13 17 23 24 28 27 28 27 28 30 28 27 28 24 28 28 30
2 2 9 9 9 3 4 4 8 4 7 7 4 4 3 4 6 6 10 10 10 10 11 13 17 17 17 17 19 27 30 27 31 31 31 29 29 27 28 23 27 21 24 28
2 3 9 6 9 10 10 4 3 8 10 9 7 5 3 6 7 8 10 10 9 10 11 12 14 16 16 21 25 28 29 28 29 30 32 33 34 31 33 30 33 34 25 26
3 6 5 10 15 10 9 10 8 7 9 10 8 7 6 7 7 7 9 12 10 11 12 10 13 17 16 17 25 27 27 26 26 30 31 34 37 40 37 36 34 34 31 29
4 3 5 7 10 9 9 9 9 11 8 8 8 8 8 6 8 10 14 15 13 12 10 10 13 17 17 18 25 28 28 28 29 29 30 31 33 35 38 37 36 33 33 31
17 7 5 11 5 6 7 10 10 12 11 10 9 9 11 11 11 14 13 14 17 17 16 15 16 19 20 22 27 30 31 30 30 30 30 30 30 31 30 31 30 30 28 31
16 13 10 10 8 3 5 6 8 7 6 8 10 10 11 9 9 12 16 19 21 22 21 21 19 20 21 24 26 27 28 28 30 30 30 31 31 31 29 29 28 29 31 29
12 10 13 13 14 12 8 5 6 5 6 6 6 11 13 14 15 17 19 19 18 16 20 24 25 25 26 28 30 31 31 31 32 31 30 30 28 27 26 25 25 24 24 25
9 12 13 12 12 12 9 6 5 5 5 6 9 10 11 14 16 17 18 22 24 24 24 24 24 27 28 28 28 29 28 28 30 29 27 26 26 25 25 25 23 21 20 19
8 9 9 9 9 8 6 5 5 5 6 8 10 12 13 13 9 13 15 21 24 25 25 23 25 26 27 27 27 28 28 27 25 26 26 25 25 25 25 25 23 22 21 20
11 9 10 10 12 9 6 5 6 7 9 11 12 12 14 15 15 16 19 20 17 18 18 21 24 24 25 25 27 28 27 27 25 25 25 26 25 25 26 25 25 24 23 21
9 11 11 10 12 11 8 7 6 8 9 14 15 14 14 14 17 19 21 20 17 15 19 20 22 23 22 23 24 26 27 26 25 24 25 26 26 25 25 25 24 22 20 19
8 10 10 10 9 12 11 8 7 9 11 13 15 14 14 15 17 17 17 15 15 16 18 19 20 20 20 22 23 25 27 27 26 25 26 26 27 26 25 23 22 21 19 18
7 7 10 10 10 12 12 10 11 13 14 16 16 19 19 17 20 22 19 16 15 15 18 18 18 19 20 21 22 24 25 26 26 26 25 24 24 24 22 21 20 18 17 14
7 7 9 10 10 10 13 14 13 15 16 16 15 15 16 14 12 13 11 14 16 16 18 18 18 19 20 21 22 22 23 23 23 23 22 22 21 21 19 18 17 16 14 12
5 7 7 7 9 12 10 12 15 16 18 17 17 16 17 17 19 17 19 18 18 19 19 17 17 17 19 21 21 22 21 21 22 21 20 19 19 18 17 16 15 12 10 9
5 5 6 8 10 8 12 12 15 15 17 16 15 15 15 15 17 19 20 19 18 19 19 15 15 16 19 19 20 20 21 20 20 20 19 18 17 15 13 11 11 10 8 5
4 5 7 8 8 8 8 9 10 10 13 14 15 16 19 21 21 20 19 18 18 18 18 16 16 16 17 18 19 19 18 18 17 16 15 14 12 10 10 10 9 6 4 3
9 7 9 8 6 6 8 10 11 10 12 14 15 14 18 20 20 20 19 18 18 18 17 17 16 17 18 17 17 16 16 14 13 13 11 10 9 8 7 5 4 4 3 3

GFSNGP_925_spd_114.txt.gz
Wind_Speed
4 4 3 3 4 6 7 6 5 13 9 19 12 17 16 16 2 2 6 11 12 16 14 16 18 9 13 15 20 24 25 22 18 19 21 22 21 18 17 17 16 17 20 18
7 3 5 5 7 10 8 10 8 16 20 20 18 17 16 12 5 3 7 5 7 12 12 12 17 19 9 15 19 24 24 23 20 18 20 20 20 18 17 16 16 18 18 18
5 2 4 7 16 13 7 9 9 11 18 7 13 14 6 2 3 5 6 7 8 8 12 13 18 20 17 8 21 23 21 21 21 20 20 21 19 18 16 18 18 18 18 18
3 3 6 6 2 3 8 13 10 14 15 12 13 3 2 4 3 4 7 7 10 10 13 19 23 20 13 11 20 22 21 21 22 22 21 22 20 20 18 20 21 20 19 18
2 4 9 9 9 4 4 6 9 15 15 10 6 5 2 3 4 5 6 8 9 13 17 21 22 29 22 13 18 21 22 25 28 25 24 25 24 22 21 21 21 21 19 18
3 4 5 5 1 2 3 7 8 15 3 1 2 5 1 2 5 6 5 9 11 14 13 17 20 22 14 6 15 16 20 23 28 29 30 29 27 27 25 25 25 24 22 21
11 4 6 5 8 2 2 4 4 10 6 2 2 2 4 2 5 5 7 10 11 10 9 15 21 19 12 14 13 9 12 16 19 25 30 29 30 28 29 28 29 29 30 26
2 2 6 4 4 3 0 8 7 10 7 3 2 4 6 6 7 8 10 11 12 11 13 18 21 15 14 17 12 11 20 22 21 20 26 28 31 29 31 34 34 32 32 31
3 3 3 6 5 7 1 4 5 5 5 1 4 4 6 6 9 10 10 12 13 13 14 17 20 18 14 16 11 15 23 24 23 25 27 30 30 28 30 30 30 28 30 31
2 2 8 10 5 4 6 10 8 4 6 6 6 7 7 8 8 9 11 12 14 14 14 15 18 20 19 15 16 24 24 27 26 25 33 33 30 29 29 26 25 27 33 31
3 5 9 2 9 6 6 3 9 8 9 9 7 7 7 6 6 7 11 14 13 14 13 13 13 15 15 13 16 25 25 23 26 27 30 36 32 30 31 26 28 28 30 31
2 7 4 5 7 10 12 12 8 8 9 10 8 7 6 6 8 9 10 12 12 13 12 13 13 14 13 13 17 19 21 21 22 26 30 33 35 38 36 36 37 37 32 38
6 15 8 6 10 11 13 10 11 10 10 7 9 8 8 6 11 10 12 14 14 13 12 13 14 15 14 13 18 23 21 22 25 27 29 32 33 35 38 40 39 39 37 36
15 15 11 15 9 9 10 9 13 13 10 9 8 10 9 9 10 12 13 12 14 16 16 17 19 19 15 18 24 27 28 25 24 25 26 28 30 32 34 34 32 34 34 33
16 11 9 10 13 14 9 7 8 8 7 7 9 8 8 7 8 10 11 14 18 18 17 18 18 19 18 22 26 25 25 24 25 26 25 28 29 31 32 32 31 31 33 30
13 9 12 12 13 13 12 10 6 5 5 4 6 7 7 9 9 11 12 12 13 13 15 19 21 22 22 26 28 30 30 28 28 28 28 29 29 30 30 29 29 27 26 27
12 14 15 13 13 13 11 8 6 4 4 5 7 7 7 8 10 11 14 17 19 19 19 20 21 24 25 26 26 26 27 29 29 28 25 26 26 26 25 26 25 25 24 20
9 8 9 10 10 10 10 8 7 6 4 5 8 9 9 8 7 10 13 17 20 22 20 19 21 22 24 24 25 27 28 26 25 26 25 24 24 24 25 26 25 25 24 21
10 9 11 10 12 11 9 9 8 6 6 7 9 9 11 12 11 12 16 17 15 16 17 18 20 22 22 22 25 26 28 28 26 25 25 27 27 26 26 26 25 25 25 24
10 11 12 11 11 12 10 9 6 7 7 10 12 11 12 13 14 15 18 18 16 14 14 16 19 21 21 21 22 24 25 25 25 25 25 25 25 25 26 26 26 26 24 23
8 10 10 10 10 12 12 9 6 8 9 10 12 11 12 14 16 14 13 13 13 14 15 16 18 18 18 19 20 23 23 24 25 25 25 25 26 26 26 25 25 24 23 22
8 8 10 10 10 11 13 10 8 9 11 13 15 16 17 15 18 19 16 13 11 13 16 17 16 17 18 18 20 22 23 24 25 25 25 25 26 26 25 23 23 22 20 19
5 6 7 9 9 7 11 12 10 10 12 12 14 14 14 13 11 10 8 11 14 15 17 17 17 16 18 20 21 23 24 25 25 25 24 24 24 24 23 22 20 19 17 14
3 5 5 5 5 8 9 9 10 11 12 13 13 13 15 16 16 15 15 14 15 16 17 15 15 16 20 21 22 23 23 24 24 23 23 22 21 20 19 18 16 14 12 11
1 2 3 5 8 7 7 7 10 10 12 13 12 12 12 12 13 15 16 16 15 17 18 14 14 17 20 20 21 21 21 21 21 21 20 19 18 16 15 13 12 11 10 7
0 2 4 3 3 3 3 4 8 8 10 13 13 13 15 17 18 17 17 17 17 17 17 16 16 17 18 19 19 19 19 19 18 17 16 15 14 12 12 11 10 8 6 4
4 3 3 4 3 2 3 5 7 8 9 12 14 13 16 17 17 18 17 17 17 17 18 17 16 17 18 18 18 17 17 16 15 15 13 12 11 10 10 8 6 4 4 4

GFSNGP_925_spd_117.txt.gz
Wind_Speed
13 9 7 7 9 7 10 8 7 12 11 17 20 16 17 15 16 13 12 8 7 7 9 10 18 22 23 13 19 20 21 21 20 18 21 22 19 15 12 10 9 9 10 11
8 6 9 12 11 12 15 13 15 18 20 24 20 15 15 14 15 12 8 5 7 8 9 10 17 20 22 20 14 22 20 20 21 22 21 21 21 17 14 12 10 11 13 13
13 8 7 8 20 17 17 15 14 15 19 16 17 13 13 15 11 6 5 7 9 10 11 13 16 18 20 20 20 20 22 20 21 24 23 22 22 19 15 15 14 14 14 15
6 3 9 11 4 5 11 15 11 16 20 19 19 17 14 5 3 5 7 8 9 9 13 17 19 20 23 21 17 16 22 22 22 24 24 24 23 23 20 21 20 18 18 17
3 7 11 14 15 10 9 14 6 10 13 17 19 13 8 5 6 6 8 8 9 13 15 16 18 21 23 20 13 15 19 22 22 24 25 26 27 27 25 25 25 23 21 21
4 5 5 3 3 2 3 10 2 4 8 15 5 5 4 6 8 8 9 11 13 15 14 16 19 22 21 19 16 13 20 22 22 22 28 31 32 31 29 29 29 27 26 23
12 5 6 5 11 4 4 3 5 8 10 8 4 3 7 8 7 8 10 13 14 13 13 16 18 19 16 17 19 18 2 21 25 27 29 31 33 34 35 34 33 31 32 27
2 4 5 8 6 2 6 6 11 11 7 9 6 7 7 7 8 9 10 13 15 13 14 17 19 19 18 19 17 12 7 20 27 28 31 33 35 32 35 37 35 31 34 31
3 3 3 4 7 10 4 4 9 9 10 6 6 7 7 7 9 9 11 13 14 12 13 16 18 18 17 20 17 16 16 15 25 28 29 30 32 31 28 28 30 27 29 30
5 2 7 12 7 6 6 7 7 9 10 10 8 7 6 8 9 9 12 13 14 13 13 16 18 18 15 14 16 16 24 23 22 27 32 29 29 24 20 27 24 27 29 31
5 4 12 10 12 10 12 13 12 12 12 12 10 9 8 9 10 8 12 14 14 13 13 14 15 18 18 16 13 16 19 22 21 28 26 32 31 28 28 21 31 28 31 29
3 14 2 5 8 10 13 13 11 10 11 12 10 9 8 8 9 11 13 14 15 14 14 14 15 16 16 13 12 16 17 20 23 24 23 30 34 37 34 34 35 36 36 36
5 11 10 11 12 9 9 8 9 10 9 8 9 8 9 6 11 12 13 13 13 13 12 12 14 15 15 13 16 17 19 21 24 25 23 24 31 35 37 39 40 38 37 35
14 13 9 14 7 12 9 8 10 10 10 9 8 8 8 8 11 13 13 12 13 13 13 13 13 14 16 18 23 24 23 23 25 24 26 26 29 31 32 34 33 36 36 36
15 10 7 8 10 12 14 10 9 8 8 8 11 10 11 10 10 10 11 12 16 18 17 15 15 15 15 18 24 25 24 23 24 26 26 27 29 31 31 32 33 33 35 33
13 9 12 12 12 13 12 12 9 8 7 7 8 10 9 10 10 11 13 16 14 15 15 16 17 15 17 22 26 27 28 29 28 28 28 28 29 30 30 28 26 26 25 23
8 12 14 13 12 12 12 9 9 7 6 7 8 7 8 8 11 13 14 14 15 18 16 16 15 14 18 20 24 24 25 27 27 27 26 26 25 25 24 25 25 25 22 16
8 8 9 9 10 10 11 10 11 10 8 6 6 7 9 10 8 10 10 11 16 19 17 12 13 14 17 19 20 22 24 24 23 24 24 25 26 26 26 25 24 23 20 19
12 10 11 11 12 11 10 11 10 8 6 5 6 8 8 9 9 9 10 13 13 12 13 12 13 15 16 18 20 21 23 25 24 24 26 27 26 24 24 23 22 20 18 17
11 11 11 10 11 12 11 11 8 6 5 5 8 8 9 8 8 10 12 14 11 7 7 11 15 17 16 17 19 20 21 21 22 21 21 22 22 22 21 20 20 19 18 17
9 10 10 10 10 10 11 10 7 5 4 3 6 8 9 9 9 9 9 9 8 8 10 11 12 12 14 15 15 17 18 21 22 22 21 23 23 20 19 19 18 18 18 18
5 6 8 9 8 9 12 10 7 5 4 5 8 10 11 9 11 12 10 8 6 7 9 11 10 11 13 14 15 16 18 19 20 20 19 20 20 20 19 18 18 18 18 17
6 7 8 9 8 6 8 10 8 6 6 5 6 7 7 7 6 7 7 6 8 10 11 11 10 11 13 15 17 19 19 20 20 20 19 19 19 19 19 18 18 18 17 16
3 5 6 7 5 6 8 7 6 6 7 7 7 7 7 8 10 9 11 11 11 12 12 11 11 12 16 18 19 20 20 21 21 21 22 22 21 20 20 20 18 16 16 14
1 3 5 5 5 4 4 4 4 5 6 7 7 6 6 5 6 8 11 13 13 14 14 12 13 15 18 19 19 20 20 20 21 21 21 21 20 19 18 17 16 15 14 12
2 2 3 4 3 3 3 2 2 3 4 6 7 7 8 12 14 14 14 15 15 15 15 15 16 18 18 19 19 20 20 20 19 19 19 18 18 17 16 14 14 12 10 9
3 3 3 3 4 4 3 2 2 4 4 5 8 7 9 12 13 15 15 15 16 16 16 16 16 18 19 19 19 19 19 18 17 17 16 15 14 14 13 12 11 9 8 7

GFSNGP_925_spd_120.txt.gz
Wind_Speed
15 16 14 13 15 13 12 12 11 13 14 13 15 15 16 14 14 14 14 11 8 7 9 10 15 15 14 16 24 23 20 21 19 19 19 19 19 15 14 11 8 9 8 7
15 16 14 16 16 17 17 16 17 18 18 19 14 10 12 15 14 15 13 7 7 8 10 11 15 16 17 15 22 27 19 21 21 20 20 20 19 16 14 13 10 10 8 8
14 11 13 13 17 17 20 17 15 15 19 18 16 16 16 16 15 14 8 7 8 10 10 13 16 16 17 17 21 22 17 20 21 21 20 21 20 18 17 17 15 14 14 14
10 11 12 11 8 9 12 14 14 15 18 18 18 18 19 18 14 4 4 6 8 9 12 16 18 18 22 18 20 19 21 19 22 22 20 21 21 20 23 22 21 20 18 19
8 9 13 18 8 9 12 15 14 13 14 17 19 21 18 1 4 4 6 7 9 13 15 17 18 20 21 20 22 20 22 19 23 24 21 20 24 27 26 27 25 22 21 24
8 6 4 3 4 10 8 11 9 5 10 15 14 10 5 7 7 7 8 11 13 15 15 15 18 21 18 16 16 18 19 10 26 25 23 24 28 30 28 30 29 27 25 24
12 8 6 5 9 10 9 5 10 8 12 13 9 4 6 7 8 10 10 13 15 14 13 16 19 19 17 17 14 20 22 17 22 26 30 31 30 31 33 33 32 30 31 26
3 4 3 10 5 5 11 13 12 13 10 9 4 7 8 8 10 11 11 13 15 13 14 17 18 19 18 18 21 21 17 9 15 31 32 32 35 30 32 36 32 29 31 29
5 5 15 18 14 14 12 10 4 8 11 11 11 10 9 9 10 10 12 14 15 14 14 17 18 18 18 20 21 13 14 17 17 20 28 31 34 32 28 27 29 26 25 27
11 10 17 9 12 14 11 10 8 10 11 11 10 10 10 9 10 9 12 13 14 14 15 17 18 17 16 17 14 13 21 19 21 24 25 25 27 25 26 24 24 26 26 28
4 8 11 16 13 11 11 9 8 10 12 12 11 10 9 9 9 9 12 14 14 15 15 16 18 18 18 16 13 13 17 18 22 24 31 24 25 24 28 24 24 25 24 29
3 11 7 6 10 10 10 10 12 12 12 12 11 11 9 9 10 12 13 14 14 15 15 15 16 16 17 16 13 12 15 17 23 22 23 29 29 37 35 36 37 33 31 29
5 13 3 11 10 15 14 12 12 11 12 11 11 11 11 7 11 11 14 15 15 14 14 15 15 16 17 15 14 16 17 18 24 26 22 23 28 28 33 38 42 37 39 33
11 12 4 12 8 13 12 12 11 12 12 12 11 12 10 10 10 12 13 13 14 13 14 14 15 16 15 15 18 21 24 23 23 21 25 24 29 31 28 34 35 37 38 39
13 9 7 8 10 12 14 13 11 11 10 10 11 11 11 10 11 13 13 10 11 14 16 15 15 17 15 15 20 22 23 25 25 25 27 26 30 31 33 33 36 34 36 35
8 7 9 10 10 12 12 13 12 12 10 9 9 10 9 9 10 12 13 14 15 16 15 15 15 14 13 14 18 24 27 28 26 26 28 29 29 31 30 29 28 28 26 25
8 9 10 10 10 11 10 10 9 10 10 10 9 8 7 6 9 11 12 13 16 16 14 14 14 13 14 14 16 18 21 23 26 26 26 26 27 27 26 27 25 24 21 18
7 7 8 9 10 10 10 11 12 13 11 11 8 7 8 9 8 9 10 11 13 16 17 16 14 14 15 15 15 16 18 20 20 22 22 23 24 24 23 24 24 25 23 21
9 9 10 10 12 12 12 13 14 13 12 10 8 8 8 8 8 8 9 10 11 13 15 14 14 14 15 16 16 17 19 20 21 21 23 24 23 22 22 22 22 21 20 20
10 11 12 12 12 13 13 14 14 11 11 9 6 6 7 8 7 8 10 14 13 10 9 11 12 13 14 15 16 16 18 19 20 19 20 21 21 21 21 20 20 19 19 19
9 11 11 12 12 11 12 12 12 12 11 8 6 5 5 6 7 5 6 8 10 10 10 12 11 11 11 12 14 15 16 16 18 18 18 19 20 19 19 19 19 18 18 17
5 6 8 9 10 11 12 12 11 10 9 7 5 4 4 6 7 9 11 9 7 9 9 10 10 11 11 12 12 14 15 16 17 17 17 17 18 18 18 17 18 17 17 16
5 6 8 8 9 9 9 10 10 10 8 7 6 5 5 6 6 5 5 9 8 9 10 10 10 11 12 12 13 13 14 15 16 16 16 17 17 17 17 17 16 16 15 15
3 5 6 7 6 7 8 9 8 7 7 6 6 5 5 4 7 8 8 9 10 10 10 9 10 12 13 13 14 14 14 15 15 16 16 16 16 16 16 15 15 13 13 13
2 4 4 6 7 7 7 7 6 5 4 4 5 5 6 5 4 6 7 8 10 10 11 12 12 13 13 13 14 15 15 14 14 15 15 15 15 15 14 13 13 12 12 11
3 5 5 5 7 8 8 7 6 4 4 3 4 5 6 7 8 8 8 9 9 10 10 10 11 13 14 14 14 15 15 16 15 15 15 14 14 13 13 12 12 11 10 9
2 3 5 5 6 6 6 5 5 3 3 3 4 5 6 7 8 8 9 9 10 10 11 10 11 12 13 13 14 14 13 13 13 13 13 12 12 11 11 10 9 8 8 8

GFSNGP_925_spd_123.txt.gz
Wind_Speed
18 22 21 17 16 11 10 13 14 16 6 11 14 9 9 9 8 11 10 12 12 8 7 11 12 14 15 16 19 19 17 14 18 19 21 19 19 21 18 16 15 12 12 13
17 18 21 21 20 15 15 14 17 18 19 14 14 7 10 12 12 13 13 14 10 8 11 10 13 15 16 18 19 22 19 13 16 20 21 20 23 22 21 18 13 12 11 12
15 16 13 14 17 18 18 16 14 16 17 16 14 13 13 15 15 16 15 8 9 10 9 11 14 15 17 21 20 20 20 15 18 21 19 23 24 22 19 16 17 17 14 13
13 17 15 13 7 12 11 12 16 17 17 15 12 16 19 18 19 16 11 9 9 9 12 14 15 16 18 20 20 19 20 15 18 21 24 22 23 22 20 21 21 20 17 16
5 9 15 17 9 12 13 13 13 14 15 16 18 18 16 14 13 10 10 9 10 14 15 15 16 18 17 18 20 18 19 17 17 20 24 22 21 27 26 25 23 21 20 21
11 5 4 2 3 7 12 11 13 14 15 17 16 7 6 11 12 12 11 14 14 14 14 14 17 19 17 17 20 20 23 24 22 27 22 19 28 29 26 27 26 25 24 22
10 7 6 14 17 12 6 5 12 13 14 12 6 4 5 6 7 10 11 12 13 12 11 13 16 18 16 18 19 23 25 24 21 27 15 33 31 32 32 30 29 28 29 25
5 5 2 21 13 11 12 16 12 12 11 8 8 2 3 7 9 11 11 13 13 12 11 12 15 17 17 17 22 24 23 19 19 11 28 35 36 31 33 36 31 27 29 27
6 6 12 13 7 12 15 10 10 9 9 9 9 9 9 8 9 9 11 14 16 15 14 13 16 18 18 20 23 22 19 15 13 12 8 35 36 32 28 28 29 24 24 25
10 8 14 10 12 13 11 9 9 8 11 11 11 11 9 9 9 9 13 15 17 17 16 16 18 18 18 19 22 21 17 15 14 22 21 20 23 25 27 25 24 25 26 26
4 6 14 9 11 9 9 11 11 12 12 12 10 10 10 9 11 12 15 17 17 17 17 19 19 19 20 21 18 18 18 17 16 24 27 26 30 23 22 18 22 30 26 29
4 10 8 7 12 15 15 16 15 14 14 13 13 12 12 10 12 13 15 17 17 18 18 19 19 19 21 20 17 15 16 16 16 17 19 31 31 35 35 33 33 33 31 36
6 15 13 8 9 15 15 13 11 12 12 13 14 13 13 8 12 14 14 16 18 18 18 19 19 20 21 20 19 20 15 16 18 17 21 24 30 31 32 39 38 37 36 36
10 12 7 12 10 11 12 14 12 13 13 13 13 13 13 12 13 15 16 15 15 17 18 18 19 21 19 18 21 22 21 24 20 22 23 25 27 27 30 31 34 36 36 41
10 6 7 8 9 11 13 14 12 11 11 12 13 13 13 12 12 13 14 16 14 16 18 19 20 19 17 19 22 24 22 23 25 26 27 26 30 30 31 33 33 35 35 36
11 6 10 10 12 13 13 13 13 12 12 13 14 14 12 10 10 11 13 15 17 16 17 17 18 17 16 15 17 21 25 25 26 25 26 27 28 30 29 28 28 28 28 27
10 11 12 12 13 14 13 12 11 11 13 13 14 13 12 9 9 11 11 12 15 16 17 17 16 16 15 16 15 17 19 23 24 26 26 25 26 25 27 27 24 21 22 22
8 8 9 10 11 12 12 13 15 15 13 13 11 10 10 10 9 9 9 9 9 15 17 17 16 15 15 15 16 16 17 18 22 23 23 25 26 25 25 27 25 24 25 25
8 9 11 11 12 13 13 14 15 14 13 12 10 8 7 8 9 9 10 11 13 15 16 14 16 16 16 15 15 16 18 20 21 22 23 23 24 24 24 23 23 23 22 22
8 9 11 12 12 13 13 14 14 13 13 12 10 7 6 7 8 7 8 13 13 12 11 12 13 14 14 15 15 16 18 19 20 19 19 20 22 22 22 22 22 21 21 21
8 10 11 13 13 12 12 13 14 13 13 11 9 7 6 6 7 11 6 8 11 10 10 12 13 11 12 13 14 15 17 17 18 18 19 20 20 20 20 19 19 19 19 19
7 8 9 10 11 12 12 12 12 12 11 10 8 6 6 2 3 8 10 10 8 10 9 10 11 12 11 12 13 15 16 17 17 17 17 17 18 18 18 17 18 17 17 17
6 7 9 9 11 12 12 9 12 10 10 9 9 9 7 7 8 9 7 9 8 9 9 10 10 11 11 12 13 14 15 16 16 16 16 16 16 17 17 17 17 16 16 16
7 7 8 9 10 10 10 11 11 9 9 7 6 6 9 6 7 7 7 8 9 10 11 10 11 11 11 11 12 14 14 15 16 16 17 16 16 16 17 16 16 15 15 14
6 8 6 9 13 12 12 11 11 6 7 6 6 6 7 7 7 6 6 7 8 9 11 12 12 12 12 12 13 13 14 13 14 14 15 16 16 15 15 15 14 14 13 13
9 9 9 7 7 10 11 10 9 8 9 7 6 6 6 6 6 6 7 8 9 10 10 10 11 12 13 13 13 14 15 15 14 15 15 14 14 14 14 14 14 13 12 11
4 2 9 8 9 10 9 8 9 8 7 8 5 6 6 6 7 7 7 8 9 10 10 11 11 12 12 13 13 13 13 13 13 14 14 14 14 13 13 12 12 11 11 11